<?xml version='1.0' encoding='UTF-8'?><gpx version="1.1" creator="JPX - https://github.com/jenetics/jpx" xmlns="http://www.topografix.com/GPX/1/1"><trk><trkseg><trkpt lat="46.292356394421994" lon="11.45533217332387"><ele>1017.0</ele><time>2026-04-12T07:49:35Z</time></trkpt><trkpt lat="46.29240777421078" lon="11.45544559093692"><ele>1017.0</ele><time>2026-04-12T07:49:37Z</time></trkpt><trkpt lat="46.292470823310346" lon="11.455565408703972"><ele>1017.0</ele><time>2026-04-12T07:49:39Z</time></trkpt><trkpt lat="46.2925277438519" lon="11.455676728905926"><ele>1017.0</ele><time>2026-04-12T07:49:41Z</time></trkpt><trkpt lat="46.29250466075614" lon="11.455843346697389"><ele>1017.0</ele><time>2026-04-12T07:49:44Z</time></trkpt><trkpt lat="46.29245758440628" lon="11.455923873519252"><ele>1015.6666666666666</ele><time>2026-04-12T07:49:45Z</time></trkpt><trkpt lat="46.29241806528928" lon="11.45602368575143"><ele>1014.3333333333333</ele><time>2026-04-12T07:49:46Z</time></trkpt><trkpt lat="46.29241644540672" lon="11.456129180812106"><ele>1013.0</ele><time>2026-04-12T07:49:47Z</time></trkpt><trkpt lat="46.292458579367555" lon="11.456234985241972"><ele>1011.6666666666666</ele><time>2026-04-12T07:49:48Z</time></trkpt><trkpt lat="46.292512337842936" lon="11.456339005827203"><ele>1010.3333333333333</ele><time>2026-04-12T07:49:49Z</time></trkpt><trkpt lat="46.29252928680945" lon="11.456476962192978"><ele>1009.0</ele><time>2026-04-12T07:49:50Z</time></trkpt><trkpt lat="46.292488696884945" lon="11.456609602398059"><ele>1008.0</ele><time>2026-04-12T07:49:51Z</time></trkpt><trkpt lat="46.29240884912004" lon="11.456708143929028"><ele>1007.0000000000001</ele><time>2026-04-12T07:49:52Z</time></trkpt><trkpt lat="46.29231986126736" lon="11.456775092191593"><ele>1006.0000000000001</ele><time>2026-04-12T07:49:53Z</time></trkpt><trkpt lat="46.29223482421759" lon="11.456823380110364"><ele>1005.0</ele><time>2026-04-12T07:49:54Z</time></trkpt><trkpt lat="46.29214486149042" lon="11.456864691833099"><ele>1004.0</ele><time>2026-04-12T07:49:55Z</time></trkpt><trkpt lat="46.29204768721855" lon="11.456861585710689"><ele>1002.0</ele><time>2026-04-12T07:49:56Z</time></trkpt><trkpt lat="46.29193786749232" lon="11.456828064564172"><ele>1000.0</ele><time>2026-04-12T07:49:57Z</time></trkpt><trkpt lat="46.29182542048579" lon="11.456792665049177"><ele>998.0</ele><time>2026-04-12T07:49:58Z</time></trkpt><trkpt lat="46.2917188235918" lon="11.456783966566165"><ele>996.0</ele><time>2026-04-12T07:49:59Z</time></trkpt><trkpt lat="46.291621270475105" lon="11.456678605640645"><ele>996.0</ele><time>2026-04-12T07:50:00Z</time></trkpt><trkpt lat="46.29153072009705" lon="11.456581847579402"><ele>996.0</ele><time>2026-04-12T07:50:01Z</time></trkpt><trkpt lat="46.29143832096001" lon="11.456483797794492"><ele>996.0</ele><time>2026-04-12T07:50:02Z</time></trkpt><trkpt lat="46.29133665386073" lon="11.45640046195611"><ele>996.0</ele><time>2026-04-12T07:50:03Z</time></trkpt><trkpt lat="46.291233359386794" lon="11.456314655692786"><ele>993.5</ele><time>2026-04-12T07:50:04Z</time></trkpt><trkpt lat="46.29112838230989" lon="11.456229717250237"><ele>991.0</ele><time>2026-04-12T07:50:05Z</time></trkpt><trkpt lat="46.29101706826766" lon="11.456154129229096"><ele>988.5</ele><time>2026-04-12T07:50:06Z</time></trkpt><trkpt lat="46.29090859051083" lon="11.456080063360213"><ele>986.0</ele><time>2026-04-12T07:50:07Z</time></trkpt><trkpt lat="46.290816111265286" lon="11.456012356708548"><ele>986.0</ele><time>2026-04-12T07:50:08Z</time></trkpt><trkpt lat="46.29075316932212" lon="11.455958205284434"><ele>986.0</ele><time>2026-04-12T07:50:09Z</time></trkpt><trkpt lat="46.290658472237226" lon="11.455896605004536"><ele>986.0</ele><time>2026-04-12T07:50:11Z</time></trkpt><trkpt lat="46.290549379662075" lon="11.45605620598219"><ele>986.0</ele><time>2026-04-12T07:50:14Z</time></trkpt><trkpt lat="46.290457981414534" lon="11.456191020621997"><ele>985.0000000000001</ele><time>2026-04-12T07:50:16Z</time></trkpt><trkpt lat="46.29041867988693" lon="11.456284776139462"><ele>984.0</ele><time>2026-04-12T07:50:17Z</time></trkpt><trkpt lat="46.29035951546578" lon="11.456360912320362"><ele>983.0</ele><time>2026-04-12T07:50:18Z</time></trkpt><trkpt lat="46.290297163217566" lon="11.45644229482827"><ele>982.0</ele><time>2026-04-12T07:50:19Z</time></trkpt><trkpt lat="46.29023119909652" lon="11.456518793673002"><ele>981.0000000000001</ele><time>2026-04-12T07:50:20Z</time></trkpt><trkpt lat="46.29015960504086" lon="11.456594829822615"><ele>980.0</ele><time>2026-04-12T07:50:21Z</time></trkpt><trkpt lat="46.29010444256205" lon="11.456678673505749"><ele>980.4</ele><time>2026-04-12T07:50:22Z</time></trkpt><trkpt lat="46.290063345789086" lon="11.456784699793316"><ele>980.8</ele><time>2026-04-12T07:50:23Z</time></trkpt><trkpt lat="46.29002571245899" lon="11.45690819465853"><ele>981.2</ele><time>2026-04-12T07:50:24Z</time></trkpt><trkpt lat="46.28999470952977" lon="11.45704401024739"><ele>981.6</ele><time>2026-04-12T07:50:25Z</time></trkpt><trkpt lat="46.28997481758215" lon="11.457180934836433"><ele>982.0</ele><time>2026-04-12T07:50:26Z</time></trkpt><trkpt lat="46.2899611953171" lon="11.457314821101816"><ele>981.9999999999999</ele><time>2026-04-12T07:50:27Z</time></trkpt><trkpt lat="46.28993656274458" lon="11.457434386968718"><ele>982.0</ele><time>2026-04-12T07:50:28Z</time></trkpt><trkpt lat="46.28993661566409" lon="11.457543155968798"><ele>982.0</ele><time>2026-04-12T07:50:29Z</time></trkpt><trkpt lat="46.289940823636925" lon="11.45765536501591"><ele>982.0</ele><time>2026-04-12T07:50:30Z</time></trkpt><trkpt lat="46.28995198896013" lon="11.45775326674879"><ele>981.9999999999999</ele><time>2026-04-12T07:50:31Z</time></trkpt><trkpt lat="46.28995905528553" lon="11.457872896530048"><ele>982.0</ele><time>2026-04-12T07:50:33Z</time></trkpt><trkpt lat="46.28999730791983" lon="11.457952599915146"><ele>981.5</ele><time>2026-04-12T07:50:36Z</time></trkpt><trkpt lat="46.28978379721466" lon="11.45796976551096"><ele>981.0</ele><time>2026-04-12T07:50:38Z</time></trkpt><trkpt lat="46.2897013836304" lon="11.45794996015679"><ele>980.5</ele><time>2026-04-12T07:50:39Z</time></trkpt><trkpt lat="46.28962568822264" lon="11.457935242775"><ele>980.0</ele><time>2026-04-12T07:50:40Z</time></trkpt><trkpt lat="46.28956719377868" lon="11.457820344947912"><ele>978.0000000000001</ele><time>2026-04-12T07:50:41Z</time></trkpt><trkpt lat="46.28943479045881" lon="11.457787406390983"><ele>976.0</ele><time>2026-04-12T07:50:43Z</time></trkpt><trkpt lat="46.28936051342623" lon="11.457771726649097"><ele>974.0</ele><time>2026-04-12T07:50:44Z</time></trkpt><trkpt lat="46.28929542465268" lon="11.457759122755334"><ele>972.0</ele><time>2026-04-12T07:50:45Z</time></trkpt><trkpt lat="46.2892264326116" lon="11.457746971172016"><ele>970.0000000000001</ele><time>2026-04-12T07:50:46Z</time></trkpt><trkpt lat="46.28916278528563" lon="11.457738356043375"><ele>968.0</ele><time>2026-04-12T07:50:47Z</time></trkpt><trkpt lat="46.28908354579287" lon="11.457728864304459"><ele>968.0000000000001</ele><time>2026-04-12T07:50:48Z</time></trkpt><trkpt lat="46.28901646287816" lon="11.45771814137238"><ele>968.0</ele><time>2026-04-12T07:50:49Z</time></trkpt><trkpt lat="46.28895221157456" lon="11.457697508950643"><ele>968.0</ele><time>2026-04-12T07:50:50Z</time></trkpt><trkpt lat="46.28887796920709" lon="11.457657153878982"><ele>968.0</ele><time>2026-04-12T07:50:51Z</time></trkpt><trkpt lat="46.288788617271" lon="11.457603088542715"><ele>968.0000000000001</ele><time>2026-04-12T07:50:52Z</time></trkpt><trkpt lat="46.288708761483264" lon="11.457548574467056"><ele>968.0</ele><time>2026-04-12T07:50:53Z</time></trkpt><trkpt lat="46.28863095279803" lon="11.45749445810891"><ele>966.4</ele><time>2026-04-12T07:50:54Z</time></trkpt><trkpt lat="46.28854497861915" lon="11.457434383640338"><ele>964.8</ele><time>2026-04-12T07:50:55Z</time></trkpt><trkpt lat="46.28845816236141" lon="11.457373720798962"><ele>963.2</ele><time>2026-04-12T07:50:56Z</time></trkpt><trkpt lat="46.288370783761884" lon="11.457324080746474"><ele>961.6</ele><time>2026-04-12T07:50:57Z</time></trkpt><trkpt lat="46.28827722547293" lon="11.457302694408336"><ele>960.0</ele><time>2026-04-12T07:50:58Z</time></trkpt><trkpt lat="46.28819450099621" lon="11.457250539574156"><ele>958.5</ele><time>2026-04-12T07:50:59Z</time></trkpt><trkpt lat="46.28809182145542" lon="11.457221721390876"><ele>957.0</ele><time>2026-04-12T07:51:00Z</time></trkpt><trkpt lat="46.28797978390358" lon="11.457188195587142"><ele>955.5</ele><time>2026-04-12T07:51:01Z</time></trkpt><trkpt lat="46.28785814056969" lon="11.457142665681035"><ele>954.0</ele><time>2026-04-12T07:51:02Z</time></trkpt><trkpt lat="46.28774532322674" lon="11.45709764240583"><ele>954.0</ele><time>2026-04-12T07:51:03Z</time></trkpt><trkpt lat="46.287645047697616" lon="11.457072387818299"><ele>954.0000000000001</ele><time>2026-04-12T07:51:04Z</time></trkpt><trkpt lat="46.28753738610391" lon="11.457115556101686"><ele>954.0000000000001</ele><time>2026-04-12T07:51:05Z</time></trkpt><trkpt lat="46.28741908478848" lon="11.457171086417288"><ele>954.0</ele><time>2026-04-12T07:51:06Z</time></trkpt><trkpt lat="46.28732350973228" lon="11.457207404730395"><ele>954.0</ele><time>2026-04-12T07:51:07Z</time></trkpt><trkpt lat="46.287236481377995" lon="11.457206702108596"><ele>952.3333333333334</ele><time>2026-04-12T07:51:08Z</time></trkpt><trkpt lat="46.28715911318026" lon="11.45717041876464"><ele>950.6666666666667</ele><time>2026-04-12T07:51:09Z</time></trkpt><trkpt lat="46.28706404848411" lon="11.45712794572209"><ele>949.0</ele><time>2026-04-12T07:51:10Z</time></trkpt><trkpt lat="46.28697257358806" lon="11.457089606105082"><ele>947.3333333333334</ele><time>2026-04-12T07:51:11Z</time></trkpt><trkpt lat="46.28689744562964" lon="11.457039451816824"><ele>945.6666666666667</ele><time>2026-04-12T07:51:12Z</time></trkpt><trkpt lat="46.28683512603719" lon="11.45708219167174"><ele>944.0</ele><time>2026-04-12T07:51:14Z</time></trkpt><trkpt lat="46.28676411222665" lon="11.457094652341762"><ele>942.6</ele><time>2026-04-12T07:51:17Z</time></trkpt><trkpt lat="46.2867363707453" lon="11.457192246691454"><ele>941.2</ele><time>2026-04-12T07:51:19Z</time></trkpt><trkpt lat="46.28679410383667" lon="11.457316460873233"><ele>939.8000000000001</ele><time>2026-04-12T07:51:21Z</time></trkpt><trkpt lat="46.28686924517427" lon="11.457436770407195"><ele>938.4000000000001</ele><time>2026-04-12T07:51:23Z</time></trkpt><trkpt lat="46.286953814439116" lon="11.457541740015422"><ele>937.0</ele><time>2026-04-12T07:51:25Z</time></trkpt><trkpt lat="46.28703608873569" lon="11.457652776855046"><ele>937.0</ele><time>2026-04-12T07:51:27Z</time></trkpt><trkpt lat="46.28707756686353" lon="11.457725264106429"><ele>937.0</ele><time>2026-04-12T07:51:28Z</time></trkpt><trkpt lat="46.28706643787926" lon="11.457866136882014"><ele>937.0</ele><time>2026-04-12T07:51:30Z</time></trkpt><trkpt lat="46.28706081847285" lon="11.457973477750244"><ele>937.0</ele><time>2026-04-12T07:51:32Z</time></trkpt><trkpt lat="46.28711073959904" lon="11.458049147037842"><ele>937.0</ele><time>2026-04-12T07:51:34Z</time></trkpt><trkpt lat="46.28704663138288" lon="11.458026260173638"><ele>937.0</ele><time>2026-04-12T07:51:37Z</time></trkpt><trkpt lat="46.28697503920679" lon="11.458013831358992"><ele>937.0</ele><time>2026-04-12T07:51:48Z</time></trkpt><trkpt lat="46.2869033629337" lon="11.458058404475052"><ele>937.9999999999999</ele><time>2026-04-12T07:51:51Z</time></trkpt><trkpt lat="46.28679986959069" lon="11.458070399527186"><ele>939.0</ele><time>2026-04-12T07:51:54Z</time></trkpt><trkpt lat="46.286708901513585" lon="11.458059012869153"><ele>940.0</ele><time>2026-04-12T07:51:55Z</time></trkpt><trkpt lat="46.28662719621058" lon="11.45805820246311"><ele>941.0</ele><time>2026-04-12T07:51:56Z</time></trkpt><trkpt lat="46.28654864271902" lon="11.45805290740993"><ele>941.9999999999999</ele><time>2026-04-12T07:51:57Z</time></trkpt><trkpt lat="46.286479763083975" lon="11.458053797918817"><ele>943.0</ele><time>2026-04-12T07:51:58Z</time></trkpt><trkpt lat="46.286357562776054" lon="11.458058157636778"><ele>942.9999999999999</ele><time>2026-04-12T07:52:00Z</time></trkpt><trkpt lat="46.28629263359604" lon="11.458056211374538"><ele>943.0</ele><time>2026-04-12T07:52:01Z</time></trkpt><trkpt lat="46.286216394778045" lon="11.458039666705718"><ele>943.0</ele><time>2026-04-12T07:52:02Z</time></trkpt><trkpt lat="46.28614744718065" lon="11.45802729431469"><ele>943.0</ele><time>2026-04-12T07:52:03Z</time></trkpt><trkpt lat="46.28601267341117" lon="11.458003377146142"><ele>942.9999999999999</ele><time>2026-04-12T07:52:05Z</time></trkpt><trkpt lat="46.285940979845925" lon="11.457998844690099"><ele>943.0</ele><time>2026-04-12T07:52:06Z</time></trkpt><trkpt lat="46.28581184864858" lon="11.458007142111503"><ele>942.9999999999999</ele><time>2026-04-12T07:52:08Z</time></trkpt><trkpt lat="46.28573703454706" lon="11.457987801207812"><ele>943.0</ele><time>2026-04-12T07:52:09Z</time></trkpt><trkpt lat="46.285660186580124" lon="11.45799589923179"><ele>943.0</ele><time>2026-04-12T07:52:10Z</time></trkpt><trkpt lat="46.28559568143137" lon="11.458006144204084"><ele>943.0</ele><time>2026-04-12T07:52:11Z</time></trkpt><trkpt lat="46.28547823988407" lon="11.458014693565909"><ele>942.9999999999999</ele><time>2026-04-12T07:52:13Z</time></trkpt><trkpt lat="46.28539908009971" lon="11.458030971552354"><ele>943.0</ele><time>2026-04-12T07:52:14Z</time></trkpt><trkpt lat="46.28532799511289" lon="11.458004501184226"><ele>940.5</ele><time>2026-04-12T07:52:16Z</time></trkpt><trkpt lat="46.28516466384465" lon="11.458534549744822"><ele>938.0</ele><time>2026-04-12T07:52:18Z</time></trkpt><trkpt lat="46.28509548358876" lon="11.458547709694868"><ele>938.0</ele><time>2026-04-12T07:52:19Z</time></trkpt><trkpt lat="46.28497221925311" lon="11.45857079636465"><ele>938.0</ele><time>2026-04-12T07:52:21Z</time></trkpt><trkpt lat="46.284902946783994" lon="11.458599299287323"><ele>938.0</ele><time>2026-04-12T07:52:22Z</time></trkpt><trkpt lat="46.284832478748434" lon="11.458630198373974"><ele>938.0</ele><time>2026-04-12T07:52:23Z</time></trkpt><trkpt lat="46.284723079446714" lon="11.458688045787733"><ele>938.0</ele><time>2026-04-12T07:52:25Z</time></trkpt><trkpt lat="46.2845960828507" lon="11.458747335081993"><ele>935.1666666666667</ele><time>2026-04-12T07:52:27Z</time></trkpt><trkpt lat="46.284524343042214" lon="11.458785165615012"><ele>932.3333333333334</ele><time>2026-04-12T07:52:28Z</time></trkpt><trkpt lat="46.28446470275841" lon="11.458823604045888"><ele>929.5</ele><time>2026-04-12T07:52:29Z</time></trkpt><trkpt lat="46.28439770850901" lon="11.458870561852265"><ele>926.6666666666667</ele><time>2026-04-12T07:52:30Z</time></trkpt><trkpt lat="46.284327638229364" lon="11.458920914254906"><ele>923.8333333333334</ele><time>2026-04-12T07:52:31Z</time></trkpt><trkpt lat="46.28425684211574" lon="11.458967029314607"><ele>921.0</ele><time>2026-04-12T07:52:32Z</time></trkpt><trkpt lat="46.284183660056634" lon="11.459006511376865"><ele>921.0</ele><time>2026-04-12T07:52:33Z</time></trkpt><trkpt lat="46.284102265957834" lon="11.45903384647524"><ele>921.0</ele><time>2026-04-12T07:52:34Z</time></trkpt><trkpt lat="46.284024584617946" lon="11.459040451943201"><ele>921.0</ele><time>2026-04-12T07:52:35Z</time></trkpt><trkpt lat="46.28395309073764" lon="11.459033080690363"><ele>921.0</ele><time>2026-04-12T07:52:36Z</time></trkpt><trkpt lat="46.28387726044854" lon="11.45903863113215"><ele>921.0</ele><time>2026-04-12T07:52:37Z</time></trkpt><trkpt lat="46.283788333018116" lon="11.45907701056499"><ele>921.0</ele><time>2026-04-12T07:52:38Z</time></trkpt><trkpt lat="46.283693585952555" lon="11.45911838881286"><ele>919.0</ele><time>2026-04-12T07:52:39Z</time></trkpt><trkpt lat="46.283601733436775" lon="11.459144047191716"><ele>917.0</ele><time>2026-04-12T07:52:40Z</time></trkpt><trkpt lat="46.28353253505497" lon="11.459164803981404"><ele>915.0</ele><time>2026-04-12T07:52:41Z</time></trkpt><trkpt lat="46.28342138696982" lon="11.459067003859419"><ele>913.0</ele><time>2026-04-12T07:52:43Z</time></trkpt><trkpt lat="46.28336990069239" lon="11.459000462978498"><ele>911.0</ele><time>2026-04-12T07:52:44Z</time></trkpt><trkpt lat="46.28332979612771" lon="11.458918161767738"><ele>909.0</ele><time>2026-04-12T07:52:45Z</time></trkpt><trkpt lat="46.28328884082987" lon="11.458829944539852"><ele>907.4000000000001</ele><time>2026-04-12T07:52:46Z</time></trkpt><trkpt lat="46.283236576127926" lon="11.458738899956156"><ele>905.8000000000001</ele><time>2026-04-12T07:52:47Z</time></trkpt><trkpt lat="46.28316891736032" lon="11.458658579454902"><ele>904.1999999999999</ele><time>2026-04-12T07:52:48Z</time></trkpt><trkpt lat="46.283078158498206" lon="11.458590441231843"><ele>902.5999999999999</ele><time>2026-04-12T07:52:49Z</time></trkpt><trkpt lat="46.282956559938704" lon="11.458556934961193"><ele>901.0</ele><time>2026-04-12T07:52:50Z</time></trkpt><trkpt lat="46.282821905103624" lon="11.458557036590062"><ele>901.0</ele><time>2026-04-12T07:52:51Z</time></trkpt><trkpt lat="46.28268244188216" lon="11.458545573265997"><ele>901.0</ele><time>2026-04-12T07:52:52Z</time></trkpt><trkpt lat="46.282556772581145" lon="11.458534425230308"><ele>901.0</ele><time>2026-04-12T07:52:53Z</time></trkpt><trkpt lat="46.282449894922124" lon="11.458538115263028"><ele>901.0</ele><time>2026-04-12T07:52:54Z</time></trkpt><trkpt lat="46.282342568307136" lon="11.458548903512362"><ele>899.0</ele><time>2026-04-12T07:52:55Z</time></trkpt><trkpt lat="46.28220362156387" lon="11.458550326481511"><ele>896.9999999999999</ele><time>2026-04-12T07:52:56Z</time></trkpt><trkpt lat="46.28210906465856" lon="11.458545952626658"><ele>894.9999999999999</ele><time>2026-04-12T07:52:57Z</time></trkpt><trkpt lat="46.28203321787299" lon="11.458537065311551"><ele>893.0</ele><time>2026-04-12T07:52:58Z</time></trkpt><trkpt lat="46.28196048235352" lon="11.458533046144604"><ele>891.0</ele><time>2026-04-12T07:52:59Z</time></trkpt><trkpt lat="46.281881671274235" lon="11.458525466638326"><ele>891.0</ele><time>2026-04-12T07:53:00Z</time></trkpt><trkpt lat="46.28180858301667" lon="11.458506854586442"><ele>890.9999999999999</ele><time>2026-04-12T07:53:01Z</time></trkpt><trkpt lat="46.28171437812673" lon="11.458513040768247"><ele>890.9999999999999</ele><time>2026-04-12T07:53:03Z</time></trkpt><trkpt lat="46.28165817812084" lon="11.458640783166773"><ele>891.0</ele><time>2026-04-12T07:53:05Z</time></trkpt><trkpt lat="46.28163725133681" lon="11.458774535859275"><ele>891.0</ele><time>2026-04-12T07:53:07Z</time></trkpt><trkpt lat="46.28162605432551" lon="11.458934640890046"><ele>890.1999999999999</ele><time>2026-04-12T07:53:09Z</time></trkpt><trkpt lat="46.28161129956072" lon="11.459066100059912"><ele>889.3999999999999</ele><time>2026-04-12T07:53:11Z</time></trkpt><trkpt lat="46.28156308432846" lon="11.459212240531684"><ele>888.6</ele><time>2026-04-12T07:53:13Z</time></trkpt><trkpt lat="46.28153058057026" lon="11.459305089202845"><ele>887.8</ele><time>2026-04-12T07:53:14Z</time></trkpt><trkpt lat="46.28148086107712" lon="11.459388886214056"><ele>887.0</ele><time>2026-04-12T07:53:15Z</time></trkpt><trkpt lat="46.28139458670358" lon="11.459459413769236"><ele>883.1666666666667</ele><time>2026-04-12T07:53:16Z</time></trkpt><trkpt lat="46.28129956242456" lon="11.459529313907268"><ele>879.3333333333334</ele><time>2026-04-12T07:53:17Z</time></trkpt><trkpt lat="46.28121826271834" lon="11.459600138561427"><ele>875.5</ele><time>2026-04-12T07:53:18Z</time></trkpt><trkpt lat="46.281173462898295" lon="11.459672138578277"><ele>871.6666666666667</ele><time>2026-04-12T07:53:19Z</time></trkpt><trkpt lat="46.28109411936975" lon="11.459671916536404"><ele>867.8333333333334</ele><time>2026-04-12T07:53:21Z</time></trkpt><trkpt lat="46.281045244860884" lon="11.45961158243586"><ele>864.0</ele><time>2026-04-12T07:53:22Z</time></trkpt><trkpt lat="46.281007180394475" lon="11.459511720582277"><ele>864.0</ele><time>2026-04-12T07:53:23Z</time></trkpt><trkpt lat="46.28099362782715" lon="11.459393731286948"><ele>864.0</ele><time>2026-04-12T07:53:24Z</time></trkpt><trkpt lat="46.28100743596483" lon="11.459284548972589"><ele>864.0</ele><time>2026-04-12T07:53:25Z</time></trkpt><trkpt lat="46.281037976302336" lon="11.459194517684518"><ele>864.0</ele><time>2026-04-12T07:53:26Z</time></trkpt><trkpt lat="46.28108719156984" lon="11.459133505153401"><ele>864.0</ele><time>2026-04-12T07:53:27Z</time></trkpt><trkpt lat="46.281155080523135" lon="11.45907575175629"><ele>864.0</ele><time>2026-04-12T07:53:28Z</time></trkpt><trkpt lat="46.28125076981036" lon="11.458967034872796"><ele>864.0</ele><time>2026-04-12T07:53:29Z</time></trkpt><trkpt lat="46.28130693187446" lon="11.458873577107406"><ele>864.0</ele><time>2026-04-12T07:53:30Z</time></trkpt><trkpt lat="46.28131930546307" lon="11.458759991438633"><ele>864.0</ele><time>2026-04-12T07:53:32Z</time></trkpt><trkpt lat="46.281261203212395" lon="11.458700476590867"><ele>864.0</ele><time>2026-04-12T07:53:34Z</time></trkpt><trkpt lat="46.28120563759119" lon="11.458644029774959"><ele>864.0</ele><time>2026-04-12T07:53:35Z</time></trkpt><trkpt lat="46.281133110457944" lon="11.458573566526425"><ele>864.0</ele><time>2026-04-12T07:53:36Z</time></trkpt><trkpt lat="46.28105439589134" lon="11.45849956454788"><ele>865.2</ele><time>2026-04-12T07:53:37Z</time></trkpt><trkpt lat="46.280969170978125" lon="11.45844588095848"><ele>866.4000000000001</ele><time>2026-04-12T07:53:38Z</time></trkpt><trkpt lat="46.28087571192589" lon="11.458429004166911"><ele>867.6</ele><time>2026-04-12T07:53:40Z</time></trkpt><trkpt lat="46.28079181705872" lon="11.45832646176767"><ele>868.8</ele><time>2026-04-12T07:53:42Z</time></trkpt><trkpt lat="46.28071895166589" lon="11.458246527401394"><ele>870.0</ele><time>2026-04-12T07:53:43Z</time></trkpt><trkpt lat="46.280661273096484" lon="11.45816217586226"><ele>870.0</ele><time>2026-04-12T07:53:44Z</time></trkpt><trkpt lat="46.28061097324068" lon="11.458066800227243"><ele>870.0</ele><time>2026-04-12T07:53:45Z</time></trkpt><trkpt lat="46.2805758969927" lon="11.457900278453154"><ele>870.0</ele><time>2026-04-12T07:53:47Z</time></trkpt><trkpt lat="46.28055771335638" lon="11.457785019560568"><ele>870.0</ele><time>2026-04-12T07:53:49Z</time></trkpt><trkpt lat="46.2806484771495" lon="11.457718856096838"><ele>870.0</ele><time>2026-04-12T07:53:52Z</time></trkpt><trkpt lat="46.280706632096184" lon="11.457680002399973"><ele>869.75</ele><time>2026-04-12T07:53:53Z</time></trkpt><trkpt lat="46.28080617936087" lon="11.457629832558665"><ele>869.5</ele><time>2026-04-12T07:53:55Z</time></trkpt><trkpt lat="46.2808845806493" lon="11.457486117073083"><ele>869.25</ele><time>2026-04-12T07:53:58Z</time></trkpt><trkpt lat="46.28099210991175" lon="11.457329286885924"><ele>869.0</ele><time>2026-04-12T07:53:59Z</time></trkpt><trkpt lat="46.28104558002582" lon="11.457218663784262"><ele>867.0000000000001</ele><time>2026-04-12T07:54:00Z</time></trkpt><trkpt lat="46.28109248005024" lon="11.457086636272399"><ele>865.0</ele><time>2026-04-12T07:54:01Z</time></trkpt><trkpt lat="46.281131159470405" lon="11.456998655832312"><ele>863.0</ele><time>2026-04-12T07:54:02Z</time></trkpt><trkpt lat="46.28120694269208" lon="11.45687617262503"><ele>861.0</ele><time>2026-04-12T07:54:04Z</time></trkpt><trkpt lat="46.281254407616785" lon="11.456801336354323"><ele>859.0000000000001</ele><time>2026-04-12T07:54:05Z</time></trkpt><trkpt lat="46.281301686908314" lon="11.456727515487293"><ele>857.0</ele><time>2026-04-12T07:54:06Z</time></trkpt><trkpt lat="46.28136079000434" lon="11.456633936415097"><ele>857.0000000000001</ele><time>2026-04-12T07:54:09Z</time></trkpt><trkpt lat="46.28141017351505" lon="11.456570486176684"><ele>857.0</ele><time>2026-04-12T07:54:11Z</time></trkpt><trkpt lat="46.281389730661935" lon="11.456456546395463"><ele>857.0</ele><time>2026-04-12T07:54:14Z</time></trkpt><trkpt lat="46.281313107801985" lon="11.456329439637075"><ele>857.0</ele><time>2026-04-12T07:54:16Z</time></trkpt><trkpt lat="46.28121531416226" lon="11.456301697772062"><ele>857.0000000000001</ele><time>2026-04-12T07:54:18Z</time></trkpt><trkpt lat="46.281154406483935" lon="11.456216522589164"><ele>857.0</ele><time>2026-04-12T07:54:21Z</time></trkpt><trkpt lat="46.281235765694404" lon="11.45611146788493"><ele>858.5000000000001</ele><time>2026-04-12T07:54:25Z</time></trkpt><trkpt lat="46.28130524959287" lon="11.456074839753317"><ele>860.0</ele><time>2026-04-12T07:54:26Z</time></trkpt><trkpt lat="46.2813908733396" lon="11.456061910672789"><ele>861.5</ele><time>2026-04-12T07:54:28Z</time></trkpt><trkpt lat="46.281452907199416" lon="11.456045712353472"><ele>863.0</ele><time>2026-04-12T07:54:29Z</time></trkpt><trkpt lat="46.28149661719116" lon="11.455943596720413"><ele>864.5000000000001</ele><time>2026-04-12T07:54:31Z</time></trkpt><trkpt lat="46.28153097235392" lon="11.455787492974155"><ele>866.0</ele><time>2026-04-12T07:54:33Z</time></trkpt><trkpt lat="46.28155865908552" lon="11.45569262964531"><ele>866.0000000000001</ele><time>2026-04-12T07:54:34Z</time></trkpt><trkpt lat="46.2815656752661" lon="11.455571258137637"><ele>866.0</ele><time>2026-04-12T07:54:35Z</time></trkpt><trkpt lat="46.28153198573478" lon="11.455444684730224"><ele>866.0</ele><time>2026-04-12T07:54:37Z</time></trkpt><trkpt lat="46.281458202262556" lon="11.45535813021313"><ele>866.0</ele><time>2026-04-12T07:54:39Z</time></trkpt><trkpt lat="46.28137915627155" lon="11.455307221671161"><ele>866.0000000000001</ele><time>2026-04-12T07:54:40Z</time></trkpt><trkpt lat="46.28131122238926" lon="11.455260558627618"><ele>866.0</ele><time>2026-04-12T07:54:41Z</time></trkpt><trkpt lat="46.28124277688813" lon="11.455205342276331"><ele>860.75</ele><time>2026-04-12T07:54:42Z</time></trkpt><trkpt lat="46.28114914815778" lon="11.45510685046681"><ele>855.5</ele><time>2026-04-12T07:54:43Z</time></trkpt><trkpt lat="46.281069813111294" lon="11.454975440031356"><ele>850.25</ele><time>2026-04-12T07:54:44Z</time></trkpt><trkpt lat="46.281014307475104" lon="11.454805065536034"><ele>845.0</ele><time>2026-04-12T07:54:45Z</time></trkpt><trkpt lat="46.28097786864224" lon="11.45462257345495"><ele>845.25</ele><time>2026-04-12T07:54:46Z</time></trkpt><trkpt lat="46.280956812292985" lon="11.454442968027198"><ele>845.5</ele><time>2026-04-12T07:54:47Z</time></trkpt><trkpt lat="46.280963042286295" lon="11.454261848884668"><ele>845.75</ele><time>2026-04-12T07:54:48Z</time></trkpt><trkpt lat="46.28099543770434" lon="11.454078107269499"><ele>846.0</ele><time>2026-04-12T07:54:49Z</time></trkpt><trkpt lat="46.281028694871395" lon="11.45388460542973"><ele>846.5999999999999</ele><time>2026-04-12T07:54:50Z</time></trkpt><trkpt lat="46.28104487580013" lon="11.453675950764683"><ele>847.2</ele><time>2026-04-12T07:54:51Z</time></trkpt><trkpt lat="46.28104121969353" lon="11.4534940125277"><ele>847.8</ele><time>2026-04-12T07:54:52Z</time></trkpt><trkpt lat="46.28102582509454" lon="11.453352784583128"><ele>848.4000000000001</ele><time>2026-04-12T07:54:53Z</time></trkpt><trkpt lat="46.28099007796587" lon="11.453251857326718"><ele>849.0</ele><time>2026-04-12T07:54:54Z</time></trkpt><trkpt lat="46.280891083333856" lon="11.45320485082745"><ele>849.0</ele><time>2026-04-12T07:54:56Z</time></trkpt><trkpt lat="46.28082526893769" lon="11.453206296148357"><ele>849.0</ele><time>2026-04-12T07:54:57Z</time></trkpt><trkpt lat="46.28075673750032" lon="11.4531609916626"><ele>849.0</ele><time>2026-04-12T07:54:59Z</time></trkpt><trkpt lat="46.28068212622382" lon="11.453135269166676"><ele>849.0</ele><time>2026-04-12T07:55:02Z</time></trkpt><trkpt lat="46.28060658294363" lon="11.453145495275166"><ele>849.0</ele><time>2026-04-12T07:55:05Z</time></trkpt><trkpt lat="46.280590578378344" lon="11.452989885089709"><ele>849.0</ele><time>2026-04-12T07:55:07Z</time></trkpt><trkpt lat="46.280584263488386" lon="11.452884114992518"><ele>851.2</ele><time>2026-04-12T07:55:08Z</time></trkpt><trkpt lat="46.280571204921536" lon="11.45275478327347"><ele>853.4000000000001</ele><time>2026-04-12T07:55:09Z</time></trkpt><trkpt lat="46.28064449519916" lon="11.452596554466762"><ele>855.6</ele><time>2026-04-12T07:55:10Z</time></trkpt><trkpt lat="46.28062228067844" lon="11.452460343316385"><ele>857.8</ele><time>2026-04-12T07:55:11Z</time></trkpt><trkpt lat="46.28060173706142" lon="11.452354354534632"><ele>860.0</ele><time>2026-04-12T07:55:12Z</time></trkpt><trkpt lat="46.280580430074835" lon="11.45225477931346"><ele>855.6666666666667</ele><time>2026-04-12T07:55:14Z</time></trkpt><trkpt lat="46.28046413384529" lon="11.452294529830384"><ele>851.3333333333334</ele><time>2026-04-12T07:55:15Z</time></trkpt><trkpt lat="46.2804317657398" lon="11.45221352769917"><ele>847.0</ele><time>2026-04-12T07:55:18Z</time></trkpt><trkpt lat="46.28034779968026" lon="11.452217173883032"><ele>842.6666666666667</ele><time>2026-04-12T07:55:20Z</time></trkpt><trkpt lat="46.280273920579" lon="11.452225725916943"><ele>838.3333333333334</ele><time>2026-04-12T07:55:21Z</time></trkpt><trkpt lat="46.280191543768936" lon="11.452226963692477"><ele>834.0</ele><time>2026-04-12T07:55:22Z</time></trkpt><trkpt lat="46.28009075365964" lon="11.452186671353374"><ele>834.0</ele><time>2026-04-12T07:55:23Z</time></trkpt><trkpt lat="46.279982970021486" lon="11.452190299981224"><ele>834.0</ele><time>2026-04-12T07:55:24Z</time></trkpt><trkpt lat="46.27986119753539" lon="11.452224738621357"><ele>834.0</ele><time>2026-04-12T07:55:25Z</time></trkpt><trkpt lat="46.279722473625974" lon="11.452230411920528"><ele>834.0</ele><time>2026-04-12T07:55:26Z</time></trkpt><trkpt lat="46.27957167213016" lon="11.452234058600746"><ele>834.6666666666667</ele><time>2026-04-12T07:55:27Z</time></trkpt><trkpt lat="46.2794139841343" lon="11.452224631636858"><ele>835.3333333333334</ele><time>2026-04-12T07:55:28Z</time></trkpt><trkpt lat="46.279262359381725" lon="11.452189855366958"><ele>836.0</ele><time>2026-04-12T07:55:29Z</time></trkpt><trkpt lat="46.279111946738375" lon="11.452134558824664"><ele>836.0</ele><time>2026-04-12T07:55:30Z</time></trkpt><trkpt lat="46.278960057422076" lon="11.452084785895526"><ele>836.0</ele><time>2026-04-12T07:55:31Z</time></trkpt><trkpt lat="46.27882599583956" lon="11.45201100155262"><ele>836.0</ele><time>2026-04-12T07:55:32Z</time></trkpt><trkpt lat="46.278700664515014" lon="11.451986650798931"><ele>836.0</ele><time>2026-04-12T07:55:33Z</time></trkpt><trkpt lat="46.278579418779465" lon="11.451942799034327"><ele>838.4</ele><time>2026-04-12T07:55:34Z</time></trkpt><trkpt lat="46.27846273357239" lon="11.451931028833677"><ele>840.8</ele><time>2026-04-12T07:55:35Z</time></trkpt><trkpt lat="46.278358545725936" lon="11.451899057920127"><ele>843.1999999999999</ele><time>2026-04-12T07:55:36Z</time></trkpt><trkpt lat="46.27828161708198" lon="11.451859469990154"><ele>845.5999999999999</ele><time>2026-04-12T07:55:37Z</time></trkpt><trkpt lat="46.278203173242446" lon="11.45183986706808"><ele>848.0</ele><time>2026-04-12T07:55:38Z</time></trkpt><trkpt lat="46.278116507117474" lon="11.45184009062706"><ele>856.0000000000001</ele><time>2026-04-12T07:55:39Z</time></trkpt><trkpt lat="46.278021501064984" lon="11.451849269027326"><ele>864.0</ele><time>2026-04-12T07:55:41Z</time></trkpt><trkpt lat="46.2779407927558" lon="11.451880638573277"><ele>872.0</ele><time>2026-04-12T07:55:43Z</time></trkpt><trkpt lat="46.27786466613657" lon="11.451840003211796"><ele>880.0</ele><time>2026-04-12T07:55:45Z</time></trkpt><trkpt lat="46.27779058897548" lon="11.451801652751186"><ele>888.0000000000001</ele><time>2026-04-12T07:55:48Z</time></trkpt><trkpt lat="46.277803139045915" lon="11.451711297528107"><ele>896.0</ele><time>2026-04-12T07:55:51Z</time></trkpt><trkpt lat="46.27788519549179" lon="11.451580420728899"><ele>896.0000000000001</ele><time>2026-04-12T07:55:53Z</time></trkpt><trkpt lat="46.27793579324098" lon="11.451490768840385"><ele>896.0</ele><time>2026-04-12T07:55:54Z</time></trkpt><trkpt lat="46.27799341594136" lon="11.451401808369823"><ele>896.0</ele><time>2026-04-12T07:55:55Z</time></trkpt><trkpt lat="46.278043016742615" lon="11.451305932495847"><ele>896.0</ele><time>2026-04-12T07:55:56Z</time></trkpt><trkpt lat="46.278073464565466" lon="11.451195876712315"><ele>896.0000000000001</ele><time>2026-04-12T07:55:58Z</time></trkpt><trkpt lat="46.27802304471494" lon="11.451073086513553"><ele>896.0</ele><time>2026-04-12T07:56:01Z</time></trkpt><trkpt lat="46.27801566863042" lon="11.450979334254956"><ele>896.5000000000001</ele><time>2026-04-12T07:56:02Z</time></trkpt><trkpt lat="46.277995656196055" lon="11.450877312131395"><ele>897.0</ele><time>2026-04-12T07:56:03Z</time></trkpt><trkpt lat="46.27795608565281" lon="11.450765286908453"><ele>897.5</ele><time>2026-04-12T07:56:04Z</time></trkpt><trkpt lat="46.27790762659616" lon="11.45067155371957"><ele>898.0</ele><time>2026-04-12T07:56:05Z</time></trkpt><trkpt lat="46.277839967163885" lon="11.450633969534257"><ele>898.5000000000001</ele><time>2026-04-12T07:56:07Z</time></trkpt><trkpt lat="46.27779482634945" lon="11.450716225687895"><ele>899.0</ele><time>2026-04-12T07:56:09Z</time></trkpt><trkpt lat="46.27778742304307" lon="11.450815926170979"><ele>898.9999999999999</ele><time>2026-04-12T07:56:10Z</time></trkpt><trkpt lat="46.27778737291234" lon="11.450935478795758"><ele>899.0</ele><time>2026-04-12T07:56:11Z</time></trkpt><trkpt lat="46.27777349291503" lon="11.451035831301773"><ele>898.9999999999999</ele><time>2026-04-12T07:56:12Z</time></trkpt><trkpt lat="46.27773103404048" lon="11.451139320271219"><ele>898.9999999999999</ele><time>2026-04-12T07:56:14Z</time></trkpt><trkpt lat="46.277670898629964" lon="11.45108906999467"><ele>899.0</ele><time>2026-04-12T07:56:18Z</time></trkpt><trkpt lat="46.27764811778953" lon="11.450997553842484"><ele>898.9999999999999</ele><time>2026-04-12T07:56:19Z</time></trkpt><trkpt lat="46.27761181281861" lon="11.450911112017158"><ele>898.9999999999999</ele><time>2026-04-12T07:56:21Z</time></trkpt><trkpt lat="46.27754809952213" lon="11.450905996493415"><ele>899.0000000000001</ele><time>2026-04-12T07:56:42Z</time></trkpt><trkpt lat="46.27750536267153" lon="11.451010583923091"><ele>899.0</ele><time>2026-04-12T07:56:45Z</time></trkpt><trkpt lat="46.27746045541674" lon="11.451162957434459"><ele>899.0</ele><time>2026-04-12T07:56:47Z</time></trkpt><trkpt lat="46.27743829558882" lon="11.451290013147572"><ele>899.0</ele><time>2026-04-12T07:56:49Z</time></trkpt><trkpt lat="46.27740450153938" lon="11.451372561691644"><ele>899.0000000000001</ele><time>2026-04-12T07:57:55Z</time></trkpt><trkpt lat="46.27735628618429" lon="11.451488647217005"><ele>899.0</ele><time>2026-04-12T07:59:49Z</time></trkpt><trkpt lat="46.27732060305078" lon="11.451566927538046"><ele>902.6</ele><time>2026-04-12T07:59:51Z</time></trkpt><trkpt lat="46.27725955153781" lon="11.451644145703533"><ele>906.2</ele><time>2026-04-12T07:59:54Z</time></trkpt><trkpt lat="46.27718926469799" lon="11.451768836746245"><ele>909.8000000000001</ele><time>2026-04-12T07:59:57Z</time></trkpt><trkpt lat="46.27714649489719" lon="11.451886001705637"><ele>913.4000000000001</ele><time>2026-04-12T07:59:59Z</time></trkpt><trkpt lat="46.277126789891426" lon="11.45200029537472"><ele>917.0</ele><time>2026-04-12T08:00:01Z</time></trkpt><trkpt lat="46.277121420254474" lon="11.452155018080655"><ele>917.0</ele><time>2026-04-12T08:00:03Z</time></trkpt><trkpt lat="46.27714281683256" lon="11.452255128577347"><ele>917.0</ele><time>2026-04-12T08:00:05Z</time></trkpt><trkpt lat="46.27715406161685" lon="11.452352583734164"><ele>917.0</ele><time>2026-04-12T08:00:10Z</time></trkpt><trkpt lat="46.277178235481806" lon="11.452438725024026"><ele>917.0</ele><time>2026-04-12T08:00:17Z</time></trkpt><trkpt lat="46.2772175160972" lon="11.452539298923858"><ele>917.0</ele><time>2026-04-12T08:01:23Z</time></trkpt><trkpt lat="46.277233956404345" lon="11.452639510497812"><ele>917.0</ele><time>2026-04-12T08:01:26Z</time></trkpt><trkpt lat="46.277272439138535" lon="11.452722756333552"><ele>917.0</ele><time>2026-04-12T08:01:28Z</time></trkpt><trkpt lat="46.277320546512556" lon="11.452800046630347"><ele>917.0000000000001</ele><time>2026-04-12T08:01:30Z</time></trkpt><trkpt lat="46.27733424200297" lon="11.452893088834578"><ele>917.0</ele><time>2026-04-12T08:01:35Z</time></trkpt><trkpt lat="46.277278549704214" lon="11.452971264151412"><ele>917.0</ele><time>2026-04-12T08:01:38Z</time></trkpt><trkpt lat="46.277180184680525" lon="11.453004659224693"><ele>917.0</ele><time>2026-04-12T08:01:42Z</time></trkpt><trkpt lat="46.27709293357349" lon="11.452995838451775"><ele>917.0000000000001</ele><time>2026-04-12T08:01:44Z</time></trkpt><trkpt lat="46.276989446602485" lon="11.452965443181013"><ele>917.0</ele><time>2026-04-12T08:01:46Z</time></trkpt><trkpt lat="46.276914711761776" lon="11.452935997629318"><ele>917.0000000000001</ele><time>2026-04-12T08:01:48Z</time></trkpt><trkpt lat="46.276851434604694" lon="11.452914451620352"><ele>917.0</ele><time>2026-04-12T08:01:50Z</time></trkpt><trkpt lat="46.27678046642324" lon="11.452915309200906"><ele>917.0</ele><time>2026-04-12T08:01:54Z</time></trkpt><trkpt lat="46.27669833689" lon="11.452897930678244"><ele>917.0</ele><time>2026-04-12T08:02:04Z</time></trkpt><trkpt lat="46.27655525920981" lon="11.452820552026319"><ele>917.0000000000001</ele><time>2026-04-12T08:02:06Z</time></trkpt><trkpt lat="46.27648756853963" lon="11.452782838527517"><ele>917.0</ele><time>2026-04-12T08:02:07Z</time></trkpt><trkpt lat="46.276409323084835" lon="11.452759050835224"><ele>917.8333333333334</ele><time>2026-04-12T08:02:08Z</time></trkpt><trkpt lat="46.2763245315666" lon="11.452735479310551"><ele>918.6666666666667</ele><time>2026-04-12T08:02:09Z</time></trkpt><trkpt lat="46.27626167042176" lon="11.452703287437556"><ele>919.5</ele><time>2026-04-12T08:02:10Z</time></trkpt><trkpt lat="46.276188863231155" lon="11.452692968164373"><ele>920.3333333333333</ele><time>2026-04-12T08:02:12Z</time></trkpt><trkpt lat="46.27609753888222" lon="11.452686236993916"><ele>921.1666666666666</ele><time>2026-04-12T08:02:16Z</time></trkpt><trkpt lat="46.27601143370052" lon="11.452697607260877"><ele>922.0</ele><time>2026-04-12T08:02:18Z</time></trkpt><trkpt lat="46.275892863557544" lon="11.45275825842092"><ele>921.9999999999999</ele><time>2026-04-12T08:02:20Z</time></trkpt><trkpt lat="46.27582870417467" lon="11.452850814403092"><ele>922.0</ele><time>2026-04-12T08:02:23Z</time></trkpt><trkpt lat="46.275807442072654" lon="11.452982936267519"><ele>922.0</ele><time>2026-04-12T08:02:25Z</time></trkpt><trkpt lat="46.27579914421807" lon="11.453080555460296"><ele>922.0</ele><time>2026-04-12T08:02:26Z</time></trkpt><trkpt lat="46.27579986286196" lon="11.453205376502412"><ele>921.9999999999999</ele><time>2026-04-12T08:02:27Z</time></trkpt><trkpt lat="46.27580303258744" lon="11.453296729288168"><ele>922.0</ele><time>2026-04-12T08:02:29Z</time></trkpt><trkpt lat="46.27577877547452" lon="11.453388766165952"><ele>925.1666666666666</ele><time>2026-04-12T08:02:35Z</time></trkpt><trkpt lat="46.27576252258397" lon="11.453495844830915"><ele>928.3333333333333</ele><time>2026-04-12T08:02:40Z</time></trkpt><trkpt lat="46.2756922132736" lon="11.453567821837444"><ele>931.5</ele><time>2026-04-12T08:02:42Z</time></trkpt><trkpt lat="46.275689630368824" lon="11.45366718641413"><ele>934.6666666666667</ele><time>2026-04-12T08:02:45Z</time></trkpt><trkpt lat="46.27570118176017" lon="11.453814599307627"><ele>937.8333333333334</ele><time>2026-04-12T08:02:59Z</time></trkpt><trkpt lat="46.27569263162623" lon="11.453909359869343"><ele>941.0</ele><time>2026-04-12T08:03:02Z</time></trkpt><trkpt lat="46.275588199355994" lon="11.45397635764008"><ele>946.1999999999999</ele><time>2026-04-12T08:03:04Z</time></trkpt><trkpt lat="46.275491290954584" lon="11.45403819259495"><ele>951.3999999999999</ele><time>2026-04-12T08:03:05Z</time></trkpt><trkpt lat="46.27539176230292" lon="11.45408217269911"><ele>956.6</ele><time>2026-04-12T08:03:06Z</time></trkpt><trkpt lat="46.275292187869866" lon="11.454140467888276"><ele>961.8</ele><time>2026-04-12T08:03:07Z</time></trkpt><trkpt lat="46.27518191592944" lon="11.454191579758524"><ele>967.0</ele><time>2026-04-12T08:03:08Z</time></trkpt><trkpt lat="46.275022709363924" lon="11.454266425856849"><ele>966.9999999999999</ele><time>2026-04-12T08:03:10Z</time></trkpt><trkpt lat="46.27497123857508" lon="11.454332553302885"><ele>967.0</ele><time>2026-04-12T08:03:29Z</time></trkpt><trkpt lat="46.274910663411724" lon="11.454362782418936"><ele>967.0</ele><time>2026-04-12T08:03:52Z</time></trkpt><trkpt lat="46.2748682776372" lon="11.454446805537877"><ele>967.0</ele><time>2026-04-12T08:03:54Z</time></trkpt><trkpt lat="46.27480489832006" lon="11.454516379301927"><ele>966.9999999999999</ele><time>2026-04-12T08:03:55Z</time></trkpt><trkpt lat="46.274725021622714" lon="11.45455555241245"><ele>967.0</ele><time>2026-04-12T08:03:56Z</time></trkpt><trkpt lat="46.27464308479136" lon="11.454614244942368"><ele>970.6</ele><time>2026-04-12T08:03:58Z</time></trkpt><trkpt lat="46.274595387454625" lon="11.454725630827127"><ele>974.2</ele><time>2026-04-12T08:04:00Z</time></trkpt><trkpt lat="46.27451322911413" lon="11.454802483345702"><ele>977.8</ele><time>2026-04-12T08:04:02Z</time></trkpt><trkpt lat="46.27444608285473" lon="11.45488765170296"><ele>981.4</ele><time>2026-04-12T08:04:05Z</time></trkpt><trkpt lat="46.27440844129787" lon="11.45498627325663"><ele>985.0</ele><time>2026-04-12T08:04:07Z</time></trkpt><trkpt lat="46.27436931649216" lon="11.455118746585704"><ele>984.9999999999999</ele><time>2026-04-12T08:04:09Z</time></trkpt><trkpt lat="46.2743173334128" lon="11.455229010851495"><ele>985.0</ele><time>2026-04-12T08:04:11Z</time></trkpt><trkpt lat="46.274307876983386" lon="11.455342912200397"><ele>985.0</ele><time>2026-04-12T08:04:15Z</time></trkpt><trkpt lat="46.27430723525393" lon="11.455435698437174"><ele>985.0</ele><time>2026-04-12T08:04:18Z</time></trkpt><trkpt lat="46.274256168914846" lon="11.45551827664442"><ele>984.9999999999999</ele><time>2026-04-12T08:04:22Z</time></trkpt><trkpt lat="46.2742417535161" lon="11.455622872302484"><ele>985.0</ele><time>2026-04-12T08:04:26Z</time></trkpt><trkpt lat="46.27409701000715" lon="11.455943771762103"><ele>988.2</ele><time>2026-04-12T08:04:27Z</time></trkpt><trkpt lat="46.27400596184052" lon="11.456020047646351"><ele>991.4</ele><time>2026-04-12T08:04:29Z</time></trkpt><trkpt lat="46.273894041474264" lon="11.456060227784933"><ele>994.5999999999999</ele><time>2026-04-12T08:04:31Z</time></trkpt><trkpt lat="46.27377874821832" lon="11.456097933055355"><ele>997.8</ele><time>2026-04-12T08:04:33Z</time></trkpt><trkpt lat="46.273705672556275" lon="11.456146335807995"><ele>1001.0</ele><time>2026-04-12T08:04:35Z</time></trkpt><trkpt lat="46.273643379883225" lon="11.456219747581065"><ele>1001.8</ele><time>2026-04-12T08:04:38Z</time></trkpt><trkpt lat="46.27356221437524" lon="11.456304728373718"><ele>1002.5999999999999</ele><time>2026-04-12T08:04:40Z</time></trkpt><trkpt lat="46.273484786989464" lon="11.456342100516137"><ele>1003.4</ele><time>2026-04-12T08:04:42Z</time></trkpt><trkpt lat="46.27341562437377" lon="11.456350133269195"><ele>1004.2</ele><time>2026-04-12T08:04:44Z</time></trkpt><trkpt lat="46.273358220410245" lon="11.456422903792252"><ele>1005.0</ele><time>2026-04-12T08:04:52Z</time></trkpt><trkpt lat="46.27314947986689" lon="11.456573265994388"><ele>1004.0</ele><time>2026-04-12T08:04:56Z</time></trkpt><trkpt lat="46.27305345212535" lon="11.456633409663349"><ele>1003.0</ele><time>2026-04-12T08:04:57Z</time></trkpt><trkpt lat="46.272996856740036" lon="11.456578750611744"><ele>1002.0</ele><time>2026-04-12T08:04:58Z</time></trkpt><trkpt lat="46.272939620753206" lon="11.456517093798384"><ele>1001.0</ele><time>2026-04-12T08:04:59Z</time></trkpt><trkpt lat="46.27288140544369" lon="11.456412176733302"><ele>1000.0</ele><time>2026-04-12T08:05:00Z</time></trkpt><trkpt lat="46.27280886413031" lon="11.456304468512522"><ele>999.0</ele><time>2026-04-12T08:05:01Z</time></trkpt><trkpt lat="46.27273991688158" lon="11.456200455328947"><ele>998.8000000000001</ele><time>2026-04-12T08:05:02Z</time></trkpt><trkpt lat="46.27267310016116" lon="11.456116913998693"><ele>998.6000000000001</ele><time>2026-04-12T08:05:03Z</time></trkpt><trkpt lat="46.27260558642225" lon="11.456047272428078"><ele>998.4</ele><time>2026-04-12T08:05:04Z</time></trkpt><trkpt lat="46.27251825547268" lon="11.455994255096213"><ele>998.2</ele><time>2026-04-12T08:05:05Z</time></trkpt><trkpt lat="46.27242222903181" lon="11.455937389830249"><ele>998.0</ele><time>2026-04-12T08:05:06Z</time></trkpt><trkpt lat="46.27232832563733" lon="11.455888204141388"><ele>999.5999999999999</ele><time>2026-04-12T08:05:07Z</time></trkpt><trkpt lat="46.27224196983573" lon="11.455870650618557"><ele>1001.1999999999999</ele><time>2026-04-12T08:05:08Z</time></trkpt><trkpt lat="46.27216999596129" lon="11.455911922091412"><ele>1002.8</ele><time>2026-04-12T08:05:09Z</time></trkpt><trkpt lat="46.272086550353876" lon="11.455954757093382"><ele>1004.4</ele><time>2026-04-12T08:05:10Z</time></trkpt><trkpt lat="46.271983228141806" lon="11.45595778048414"><ele>1006.0</ele><time>2026-04-12T08:05:11Z</time></trkpt><trkpt lat="46.27184652163676" lon="11.455966700085616"><ele>1005.9999999999999</ele><time>2026-04-12T08:05:12Z</time></trkpt><trkpt lat="46.27172716906054" lon="11.455990164036647"><ele>1006.0</ele><time>2026-04-12T08:05:13Z</time></trkpt><trkpt lat="46.27166582114868" lon="11.456033147046096"><ele>1006.0</ele><time>2026-04-12T08:05:14Z</time></trkpt><trkpt lat="46.27167643210134" lon="11.456164350061567"><ele>1006.0</ele><time>2026-04-12T08:05:16Z</time></trkpt><trkpt lat="46.27167523671168" lon="11.456255665268927"><ele>1005.9999999999999</ele><time>2026-04-12T08:05:17Z</time></trkpt><trkpt lat="46.27167923913298" lon="11.45635937679642"><ele>1006.0</ele><time>2026-04-12T08:05:18Z</time></trkpt><trkpt lat="46.27168510946135" lon="11.456474858164457"><ele>1006.1999999999999</ele><time>2026-04-12T08:05:19Z</time></trkpt><trkpt lat="46.27168859871617" lon="11.45658569748762"><ele>1006.3999999999999</ele><time>2026-04-12T08:05:20Z</time></trkpt><trkpt lat="46.271688152230546" lon="11.45670134516737"><ele>1006.6</ele><time>2026-04-12T08:05:21Z</time></trkpt><trkpt lat="46.27168515092802" lon="11.456828260599321"><ele>1006.8</ele><time>2026-04-12T08:05:22Z</time></trkpt><trkpt lat="46.27167917216243" lon="11.456980726092986"><ele>1007.0</ele><time>2026-04-12T08:05:23Z</time></trkpt><trkpt lat="46.271672760345986" lon="11.457149041014828"><ele>1007.25</ele><time>2026-04-12T08:05:24Z</time></trkpt><trkpt lat="46.27166660453141" lon="11.457337427846113"><ele>1007.5</ele><time>2026-04-12T08:05:25Z</time></trkpt><trkpt lat="46.27165861345434" lon="11.457536607084219"><ele>1007.75</ele><time>2026-04-12T08:05:26Z</time></trkpt><trkpt lat="46.27165121957897" lon="11.457751194921478"><ele>1008.0</ele><time>2026-04-12T08:05:27Z</time></trkpt><trkpt lat="46.271643017925115" lon="11.45796912334276"><ele>1008.3333333333333</ele><time>2026-04-12T08:05:28Z</time></trkpt><trkpt lat="46.27163585057918" lon="11.45819940360734"><ele>1008.6666666666666</ele><time>2026-04-12T08:05:29Z</time></trkpt><trkpt lat="46.27163124884678" lon="11.45843640828498"><ele>1009.0</ele><time>2026-04-12T08:05:30Z</time></trkpt><trkpt lat="46.27159170729419" lon="11.458654881074498"><ele>1010.3333333333333</ele><time>2026-04-12T08:05:31Z</time></trkpt><trkpt lat="46.27155958085183" lon="11.458869515414165"><ele>1011.6666666666667</ele><time>2026-04-12T08:05:32Z</time></trkpt><trkpt lat="46.27152292146778" lon="11.459072051422785"><ele>1013.0</ele><time>2026-04-12T08:05:33Z</time></trkpt><trkpt lat="46.27147579986491" lon="11.459296983582899"><ele>1018.6666666666667</ele><time>2026-04-12T08:05:34Z</time></trkpt><trkpt lat="46.27142250703065" lon="11.459519349035599"><ele>1024.3333333333333</ele><time>2026-04-12T08:05:35Z</time></trkpt><trkpt lat="46.27136652739363" lon="11.459736577980896"><ele>1030.0</ele><time>2026-04-12T08:05:36Z</time></trkpt><trkpt lat="46.27130760754266" lon="11.459960576350925"><ele>1030.0</ele><time>2026-04-12T08:05:37Z</time></trkpt><trkpt lat="46.27124257368057" lon="11.46018167065194"><ele>1030.0</ele><time>2026-04-12T08:05:38Z</time></trkpt><trkpt lat="46.27117340921317" lon="11.460392519765962"><ele>1030.0</ele><time>2026-04-12T08:05:39Z</time></trkpt><trkpt lat="46.27109889355279" lon="11.460591479210496"><ele>1032.5</ele><time>2026-04-12T08:05:40Z</time></trkpt><trkpt lat="46.27103573932717" lon="11.460787758548884"><ele>1035.0</ele><time>2026-04-12T08:05:41Z</time></trkpt><trkpt lat="46.270986402795685" lon="11.460959339288435"><ele>1037.5</ele><time>2026-04-12T08:05:42Z</time></trkpt><trkpt lat="46.27096490207009" lon="11.461106443937158"><ele>1040.0</ele><time>2026-04-12T08:05:43Z</time></trkpt><trkpt lat="46.27095313960501" lon="11.46121383692287"><ele>1041.8</ele><time>2026-04-12T08:05:44Z</time></trkpt><trkpt lat="46.27092888467923" lon="11.461312139377174"><ele>1043.6</ele><time>2026-04-12T08:05:45Z</time></trkpt><trkpt lat="46.27100971154716" lon="11.461523391492689"><ele>1045.4</ele><time>2026-04-12T08:05:47Z</time></trkpt><trkpt lat="46.271075734325855" lon="11.46163825084123"><ele>1047.2</ele><time>2026-04-12T08:05:48Z</time></trkpt><trkpt lat="46.27114417192611" lon="11.461730832853942"><ele>1049.0</ele><time>2026-04-12T08:05:49Z</time></trkpt><trkpt lat="46.27120196680913" lon="11.4618181206923"><ele>1049.0</ele><time>2026-04-12T08:05:50Z</time></trkpt><trkpt lat="46.27128550178883" lon="11.461844564624323"><ele>1049.0</ele><time>2026-04-12T08:05:51Z</time></trkpt><trkpt lat="46.27135434462068" lon="11.461902342886676"><ele>1049.0</ele><time>2026-04-12T08:05:52Z</time></trkpt><trkpt lat="46.27143684985368" lon="11.461938241688829"><ele>1049.0</ele><time>2026-04-12T08:05:53Z</time></trkpt><trkpt lat="46.27151629260627" lon="11.4619605521548"><ele>1049.0</ele><time>2026-04-12T08:05:54Z</time></trkpt><trkpt lat="46.2716317146962" lon="11.462046760392317"><ele>1048.8</ele><time>2026-04-12T08:05:56Z</time></trkpt><trkpt lat="46.27170315473733" lon="11.46214348377493"><ele>1048.6000000000001</ele><time>2026-04-12T08:05:57Z</time></trkpt><trkpt lat="46.27177861256379" lon="11.462261395836883"><ele>1048.4</ele><time>2026-04-12T08:05:58Z</time></trkpt><trkpt lat="46.27185060139719" lon="11.462390234932723"><ele>1048.2</ele><time>2026-04-12T08:05:59Z</time></trkpt><trkpt lat="46.27191596184399" lon="11.462518289646152"><ele>1048.0</ele><time>2026-04-12T08:06:00Z</time></trkpt><trkpt lat="46.271973764468086" lon="11.462640228694731"><ele>1048.0</ele><time>2026-04-12T08:06:01Z</time></trkpt><trkpt lat="46.27202308836517" lon="11.462750687632932"><ele>1048.0</ele><time>2026-04-12T08:06:02Z</time></trkpt><trkpt lat="46.272067887927896" lon="11.462856950649268"><ele>1048.0</ele><time>2026-04-12T08:06:03Z</time></trkpt><trkpt lat="46.272117771100056" lon="11.462965745921883"><ele>1048.0</ele><time>2026-04-12T08:06:04Z</time></trkpt><trkpt lat="46.27214126084835" lon="11.463058989850252"><ele>1048.0</ele><time>2026-04-12T08:06:05Z</time></trkpt><trkpt lat="46.27216104428064" lon="11.463212689046605"><ele>1048.0</ele><time>2026-04-12T08:06:07Z</time></trkpt><trkpt lat="46.27210193982387" lon="11.463386214043842"><ele>1047.5</ele><time>2026-04-12T08:06:09Z</time></trkpt><trkpt lat="46.271993174601285" lon="11.463509441877362"><ele>1047.0</ele><time>2026-04-12T08:06:11Z</time></trkpt><trkpt lat="46.27189899165612" lon="11.463589359727465"><ele>1046.5</ele><time>2026-04-12T08:06:12Z</time></trkpt><trkpt lat="46.271779235400764" lon="11.463648407241326"><ele>1046.0</ele><time>2026-04-12T08:06:13Z</time></trkpt><trkpt lat="46.271665860747135" lon="11.463773074697327"><ele>1046.3999999999999</ele><time>2026-04-12T08:06:14Z</time></trkpt><trkpt lat="46.27161906195335" lon="11.463905404083429"><ele>1046.8</ele><time>2026-04-12T08:06:15Z</time></trkpt><trkpt lat="46.271606181882966" lon="11.464025651287272"><ele>1047.1999999999998</ele><time>2026-04-12T08:06:16Z</time></trkpt><trkpt lat="46.27163903589871" lon="11.464190166127782"><ele>1047.6</ele><time>2026-04-12T08:06:17Z</time></trkpt><trkpt lat="46.27166060038551" lon="11.46438380363013"><ele>1048.0</ele><time>2026-04-12T08:06:18Z</time></trkpt><trkpt lat="46.271688767441916" lon="11.464594393015563"><ele>1048.25</ele><time>2026-04-12T08:06:19Z</time></trkpt><trkpt lat="46.27168719316121" lon="11.464807418316752"><ele>1048.5</ele><time>2026-04-12T08:06:20Z</time></trkpt><trkpt lat="46.27166421441827" lon="11.464982916017924"><ele>1048.75</ele><time>2026-04-12T08:06:21Z</time></trkpt><trkpt lat="46.27160244771094" lon="11.465128734124505"><ele>1049.0</ele><time>2026-04-12T08:06:22Z</time></trkpt><trkpt lat="46.27151225932611" lon="11.465301692708662"><ele>1056.0</ele><time>2026-04-12T08:06:23Z</time></trkpt><trkpt lat="46.2714227720288" lon="11.465513417025818"><ele>1063.0</ele><time>2026-04-12T08:06:24Z</time></trkpt><trkpt lat="46.271363321019976" lon="11.465768884329687"><ele>1070.0</ele><time>2026-04-12T08:06:25Z</time></trkpt><trkpt lat="46.27127113297003" lon="11.466000971403556"><ele>1070.0</ele><time>2026-04-12T08:06:26Z</time></trkpt><trkpt lat="46.271203353851284" lon="11.466219486777428"><ele>1070.0</ele><time>2026-04-12T08:06:27Z</time></trkpt><trkpt lat="46.27115511031847" lon="11.466434786333444"><ele>1070.0</ele><time>2026-04-12T08:06:28Z</time></trkpt><trkpt lat="46.27110992389137" lon="11.46665536604863"><ele>1072.0</ele><time>2026-04-12T08:06:29Z</time></trkpt><trkpt lat="46.27107708264389" lon="11.466878834752297"><ele>1074.0</ele><time>2026-04-12T08:06:30Z</time></trkpt><trkpt lat="46.271050930576735" lon="11.467098126391011"><ele>1076.0</ele><time>2026-04-12T08:06:31Z</time></trkpt><trkpt lat="46.27101520645959" lon="11.467305777037907"><ele>1076.0</ele><time>2026-04-12T08:06:32Z</time></trkpt><trkpt lat="46.27095793569691" lon="11.467475461063094"><ele>1076.0</ele><time>2026-04-12T08:06:33Z</time></trkpt><trkpt lat="46.27099463229806" lon="11.467651093427689"><ele>1076.0</ele><time>2026-04-12T08:06:34Z</time></trkpt><trkpt lat="46.2709976306802" lon="11.467848975794611"><ele>1076.0</ele><time>2026-04-12T08:06:35Z</time></trkpt><trkpt lat="46.27100031152079" lon="11.468055342024819"><ele>1078.3333333333335</ele><time>2026-04-12T08:06:36Z</time></trkpt><trkpt lat="46.27100802273873" lon="11.468264021958682"><ele>1080.6666666666667</ele><time>2026-04-12T08:06:37Z</time></trkpt><trkpt lat="46.27103086870793" lon="11.468482883105278"><ele>1083.0</ele><time>2026-04-12T08:06:38Z</time></trkpt><trkpt lat="46.271020631181" lon="11.468707692880141"><ele>1086.0</ele><time>2026-04-12T08:06:39Z</time></trkpt><trkpt lat="46.27103974751997" lon="11.468939876132167"><ele>1089.0</ele><time>2026-04-12T08:06:40Z</time></trkpt><trkpt lat="46.27107789297871" lon="11.469153318915327"><ele>1092.0</ele><time>2026-04-12T08:06:41Z</time></trkpt><trkpt lat="46.271080467344824" lon="11.469377758802164"><ele>1092.0</ele><time>2026-04-12T08:06:42Z</time></trkpt><trkpt lat="46.271085602372914" lon="11.469574259912635"><ele>1092.0</ele><time>2026-04-12T08:06:43Z</time></trkpt><trkpt lat="46.271089859899945" lon="11.469753983666358"><ele>1092.0</ele><time>2026-04-12T08:06:44Z</time></trkpt><trkpt lat="46.27109249573655" lon="11.469932650318759"><ele>1092.0</ele><time>2026-04-12T08:06:45Z</time></trkpt><trkpt lat="46.27109572974937" lon="11.470109800677147"><ele>1097.0</ele><time>2026-04-12T08:06:46Z</time></trkpt><trkpt lat="46.27109907620098" lon="11.470281759679699"><ele>1102.0</ele><time>2026-04-12T08:06:47Z</time></trkpt><trkpt lat="46.2711028206569" lon="11.47045446484804"><ele>1107.0</ele><time>2026-04-12T08:06:48Z</time></trkpt><trkpt lat="46.271108331832906" lon="11.470627668432469"><ele>1112.0</ele><time>2026-04-12T08:06:49Z</time></trkpt><trkpt lat="46.27111719839914" lon="11.470805338346906"><ele>1117.25</ele><time>2026-04-12T08:06:50Z</time></trkpt><trkpt lat="46.27112773644017" lon="11.470972322914035"><ele>1122.5</ele><time>2026-04-12T08:06:51Z</time></trkpt><trkpt lat="46.27113772040798" lon="11.471133894394072"><ele>1127.75</ele><time>2026-04-12T08:06:52Z</time></trkpt><trkpt lat="46.27116100238458" lon="11.471291997220852"><ele>1133.0</ele><time>2026-04-12T08:06:53Z</time></trkpt><trkpt lat="46.27116878226937" lon="11.471451591963827"><ele>1133.75</ele><time>2026-04-12T08:06:54Z</time></trkpt><trkpt lat="46.27115436437788" lon="11.471611830726374"><ele>1134.5</ele><time>2026-04-12T08:06:55Z</time></trkpt><trkpt lat="46.271147732642795" lon="11.471774813032868"><ele>1135.25</ele><time>2026-04-12T08:06:56Z</time></trkpt><trkpt lat="46.27113819143812" lon="11.471955324513972"><ele>1136.0</ele><time>2026-04-12T08:06:57Z</time></trkpt><trkpt lat="46.271134351590874" lon="11.472146143010782"><ele>1136.0</ele><time>2026-04-12T08:06:58Z</time></trkpt><trkpt lat="46.27113893260868" lon="11.47233480399237"><ele>1136.0</ele><time>2026-04-12T08:06:59Z</time></trkpt><trkpt lat="46.271147498189485" lon="11.472524582117332"><ele>1136.0</ele><time>2026-04-12T08:07:00Z</time></trkpt><trkpt lat="46.27116158542642" lon="11.472733792364927"><ele>1136.0</ele><time>2026-04-12T08:07:01Z</time></trkpt><trkpt lat="46.271184120421196" lon="11.472953224542906"><ele>1136.3333333333335</ele><time>2026-04-12T08:07:02Z</time></trkpt><trkpt lat="46.271219065491636" lon="11.473175514727114"><ele>1136.6666666666667</ele><time>2026-04-12T08:07:03Z</time></trkpt><trkpt lat="46.271234153532404" lon="11.47338696509066"><ele>1137.0</ele><time>2026-04-12T08:07:04Z</time></trkpt><trkpt lat="46.27129981860513" lon="11.473589965970348"><ele>1141.0</ele><time>2026-04-12T08:07:05Z</time></trkpt><trkpt lat="46.2713866139697" lon="11.473829665136126"><ele>1145.0</ele><time>2026-04-12T08:07:06Z</time></trkpt><trkpt lat="46.271432063194595" lon="11.474084917579127"><ele>1149.0</ele><time>2026-04-12T08:07:07Z</time></trkpt><trkpt lat="46.271508522329356" lon="11.474269116198002"><ele>1149.0</ele><time>2026-04-12T08:07:08Z</time></trkpt><trkpt lat="46.271571238182574" lon="11.47442551620206"><ele>1149.0</ele><time>2026-04-12T08:07:09Z</time></trkpt><trkpt lat="46.27155300409917" lon="11.474522099673731"><ele>1149.0</ele><time>2026-04-12T08:07:11Z</time></trkpt><trkpt lat="46.27146331228107" lon="11.474451484270105"><ele>1149.0</ele><time>2026-04-12T08:07:13Z</time></trkpt><trkpt lat="46.271428964620185" lon="11.474363077172793"><ele>1149.0</ele><time>2026-04-12T08:07:14Z</time></trkpt><trkpt lat="46.27138701116499" lon="11.47424637950968"><ele>1149.0</ele><time>2026-04-12T08:07:15Z</time></trkpt><trkpt lat="46.271330537531895" lon="11.474105118514725"><ele>1149.0</ele><time>2026-04-12T08:07:16Z</time></trkpt><trkpt lat="46.27124624990606" lon="11.473930554128842"><ele>1149.0</ele><time>2026-04-12T08:07:17Z</time></trkpt><trkpt lat="46.27111970233994" lon="11.473838076434758"><ele>1149.0</ele><time>2026-04-12T08:07:18Z</time></trkpt><trkpt lat="46.27102157570825" lon="11.47376832665363"><ele>1146.0</ele><time>2026-04-12T08:07:19Z</time></trkpt><trkpt lat="46.27089243913128" lon="11.473726772785458"><ele>1143.0</ele><time>2026-04-12T08:07:20Z</time></trkpt><trkpt lat="46.27072874516957" lon="11.47368896223222"><ele>1140.0</ele><time>2026-04-12T08:07:21Z</time></trkpt><trkpt lat="46.270584764917864" lon="11.473706382110029"><ele>1137.0</ele><time>2026-04-12T08:07:22Z</time></trkpt><trkpt lat="46.270416364248035" lon="11.473712868610761"><ele>1143.3333333333333</ele><time>2026-04-12T08:07:23Z</time></trkpt><trkpt lat="46.270241533352454" lon="11.473769225260694"><ele>1149.6666666666665</ele><time>2026-04-12T08:07:24Z</time></trkpt><trkpt lat="46.270097097760946" lon="11.473836242900754"><ele>1156.0</ele><time>2026-04-12T08:07:25Z</time></trkpt><trkpt lat="46.269953885789405" lon="11.47388920879172"><ele>1156.0</ele><time>2026-04-12T08:07:26Z</time></trkpt><trkpt lat="46.26984491797793" lon="11.473990426875625"><ele>1156.0</ele><time>2026-04-12T08:07:27Z</time></trkpt><trkpt lat="46.26976659103657" lon="11.474029735229363"><ele>1156.0</ele><time>2026-04-12T08:07:28Z</time></trkpt><trkpt lat="46.26970356698397" lon="11.474042730701608"><ele>1156.0</ele><time>2026-04-12T08:07:29Z</time></trkpt><trkpt lat="46.26963871184417" lon="11.47402475349221"><ele>1156.0</ele><time>2026-04-12T08:07:31Z</time></trkpt><trkpt lat="46.2696280249488" lon="11.473933909992795"><ele>1156.0</ele><time>2026-04-12T08:07:33Z</time></trkpt><trkpt lat="46.26965721139464" lon="11.47381116884979"><ele>1157.1666666666665</ele><time>2026-04-12T08:07:35Z</time></trkpt><trkpt lat="46.26968388881789" lon="11.473714195870865"><ele>1158.3333333333333</ele><time>2026-04-12T08:07:36Z</time></trkpt><trkpt lat="46.269711235834095" lon="11.473596752731398"><ele>1159.5</ele><time>2026-04-12T08:07:37Z</time></trkpt><trkpt lat="46.269747308093955" lon="11.473467950250498"><ele>1160.6666666666667</ele><time>2026-04-12T08:07:38Z</time></trkpt><trkpt lat="46.26978427466462" lon="11.473313591100672"><ele>1161.8333333333335</ele><time>2026-04-12T08:07:39Z</time></trkpt><trkpt lat="46.26980678256217" lon="11.473204541063414"><ele>1163.0</ele><time>2026-04-12T08:07:40Z</time></trkpt><trkpt lat="46.26973526355037" lon="11.47319092650942"><ele>1167.2</ele><time>2026-04-12T08:07:42Z</time></trkpt><trkpt lat="46.26966655911813" lon="11.47324498668326"><ele>1171.4</ele><time>2026-04-12T08:07:43Z</time></trkpt><trkpt lat="46.269571993837154" lon="11.473414228900387"><ele>1175.6000000000001</ele><time>2026-04-12T08:07:46Z</time></trkpt><trkpt lat="46.26948142208421" lon="11.473484583289773"><ele>1179.8</ele><time>2026-04-12T08:07:47Z</time></trkpt><trkpt lat="46.269368798568564" lon="11.473524345703302"><ele>1184.0</ele><time>2026-04-12T08:07:48Z</time></trkpt><trkpt lat="46.26919583953805" lon="11.473576602218715"><ele>1184.0</ele><time>2026-04-12T08:07:49Z</time></trkpt><trkpt lat="46.26899119989149" lon="11.47361164293722"><ele>1184.0</ele><time>2026-04-12T08:07:50Z</time></trkpt><trkpt lat="46.268783669134734" lon="11.47362936007035"><ele>1184.0</ele><time>2026-04-12T08:07:51Z</time></trkpt><trkpt lat="46.268629484514555" lon="11.47362288331727"><ele>1185.25</ele><time>2026-04-12T08:07:52Z</time></trkpt><trkpt lat="46.268500495981485" lon="11.473594953655592"><ele>1186.5</ele><time>2026-04-12T08:07:53Z</time></trkpt><trkpt lat="46.26840609250912" lon="11.473532554863267"><ele>1187.75</ele><time>2026-04-12T08:07:54Z</time></trkpt><trkpt lat="46.26831013787454" lon="11.47342061190032"><ele>1189.0</ele><time>2026-04-12T08:07:55Z</time></trkpt><trkpt lat="46.26821072636647" lon="11.473255727557168"><ele>1189.0</ele><time>2026-04-12T08:07:56Z</time></trkpt><trkpt lat="46.268131947000604" lon="11.473128845635898"><ele>1189.0</ele><time>2026-04-12T08:07:57Z</time></trkpt><trkpt lat="46.26806725151014" lon="11.473015002830634"><ele>1189.0</ele><time>2026-04-12T08:07:58Z</time></trkpt><trkpt lat="46.26799053069604" lon="11.4730038096902"><ele>1189.0</ele><time>2026-04-12T08:08:00Z</time></trkpt><trkpt lat="46.267915844515166" lon="11.47309138994677"><ele>1189.0</ele><time>2026-04-12T08:08:02Z</time></trkpt><trkpt lat="46.26782452729855" lon="11.473132086064226"><ele>1190.6666666666665</ele><time>2026-04-12T08:08:03Z</time></trkpt><trkpt lat="46.267692099529214" lon="11.4732032866173"><ele>1192.3333333333333</ele><time>2026-04-12T08:08:04Z</time></trkpt><trkpt lat="46.26757788583284" lon="11.473302018250626"><ele>1194.0</ele><time>2026-04-12T08:08:05Z</time></trkpt><trkpt lat="46.26743298184746" lon="11.4737787007237"><ele>1194.0</ele><time>2026-04-12T08:08:06Z</time></trkpt><trkpt lat="46.26736421021802" lon="11.473982365620593"><ele>1194.0</ele><time>2026-04-12T08:08:07Z</time></trkpt><trkpt lat="46.26730705970893" lon="11.474109498556013"><ele>1194.0</ele><time>2026-04-12T08:08:08Z</time></trkpt><trkpt lat="46.26721072586022" lon="11.474121391234924"><ele>1194.0</ele><time>2026-04-12T08:08:09Z</time></trkpt><trkpt lat="46.267096248678676" lon="11.474165987643138"><ele>1199.25</ele><time>2026-04-12T08:08:10Z</time></trkpt><trkpt lat="46.26696283262194" lon="11.474227611873907"><ele>1204.5</ele><time>2026-04-12T08:08:11Z</time></trkpt><trkpt lat="46.266827140233765" lon="11.474243708161596"><ele>1209.75</ele><time>2026-04-12T08:08:12Z</time></trkpt><trkpt lat="46.26671724876034" lon="11.474220843013116"><ele>1215.0</ele><time>2026-04-12T08:08:14Z</time></trkpt><trkpt lat="46.26667216040903" lon="11.474147096420745"><ele>1215.0</ele><time>2026-04-12T08:08:17Z</time></trkpt><trkpt lat="46.26656931372859" lon="11.474174093790868"><ele>1215.0</ele><time>2026-04-12T08:08:59Z</time></trkpt><trkpt lat="46.26647763783529" lon="11.474149447208037"><ele>1215.0</ele><time>2026-04-12T08:09:00Z</time></trkpt><trkpt lat="46.266357148971004" lon="11.474141004295218"><ele>1215.0</ele><time>2026-04-12T08:09:01Z</time></trkpt><trkpt lat="46.26620377107604" lon="11.474151616890266"><ele>1220.25</ele><time>2026-04-12T08:09:02Z</time></trkpt><trkpt lat="46.26607399452015" lon="11.4742004030036"><ele>1225.5</ele><time>2026-04-12T08:09:03Z</time></trkpt><trkpt lat="46.26592173394685" lon="11.474186230283909"><ele>1230.75</ele><time>2026-04-12T08:09:04Z</time></trkpt><trkpt lat="46.26576646540375" lon="11.47423107104209"><ele>1236.0</ele><time>2026-04-12T08:09:05Z</time></trkpt><trkpt lat="46.265570173231936" lon="11.474281702777494"><ele>1241.25</ele><time>2026-04-12T08:09:06Z</time></trkpt><trkpt lat="46.26544004724354" lon="11.474308101820517"><ele>1246.5</ele><time>2026-04-12T08:09:07Z</time></trkpt><trkpt lat="46.26533380293036" lon="11.474302708553536"><ele>1251.75</ele><time>2026-04-12T08:09:08Z</time></trkpt><trkpt lat="46.26521107974763" lon="11.474317780793292"><ele>1257.0</ele><time>2026-04-12T08:09:09Z</time></trkpt><trkpt lat="46.26509896623037" lon="11.47431116862236"><ele>1257.0</ele><time>2026-04-12T08:09:10Z</time></trkpt><trkpt lat="46.264981055376765" lon="11.474314139648984"><ele>1257.0</ele><time>2026-04-12T08:09:11Z</time></trkpt><trkpt lat="46.264893323771815" lon="11.474389118614628"><ele>1257.0</ele><time>2026-04-12T08:09:12Z</time></trkpt><trkpt lat="46.26482643289745" lon="11.474429495359146"><ele>1257.0</ele><time>2026-04-12T08:09:13Z</time></trkpt><trkpt lat="46.26471301837621" lon="11.474413074150396"><ele>1257.0</ele><time>2026-04-12T08:09:15Z</time></trkpt><trkpt lat="46.26463485690841" lon="11.474358194109787"><ele>1257.2</ele><time>2026-04-12T08:09:16Z</time></trkpt><trkpt lat="46.26454038573403" lon="11.474306887322898"><ele>1257.4</ele><time>2026-04-12T08:09:17Z</time></trkpt><trkpt lat="46.26443157018782" lon="11.474309588499638"><ele>1257.6</ele><time>2026-04-12T08:09:18Z</time></trkpt><trkpt lat="46.264320828238354" lon="11.474283497818716"><ele>1257.8</ele><time>2026-04-12T08:09:19Z</time></trkpt><trkpt lat="46.264207953754514" lon="11.47424584802683"><ele>1258.0</ele><time>2026-04-12T08:09:20Z</time></trkpt><trkpt lat="46.26408889732073" lon="11.474197084338144"><ele>1258.0</ele><time>2026-04-12T08:09:21Z</time></trkpt><trkpt lat="46.26397471170558" lon="11.474131501786685"><ele>1258.0</ele><time>2026-04-12T08:09:22Z</time></trkpt><trkpt lat="46.26387358708676" lon="11.474088643323215"><ele>1258.0</ele><time>2026-04-12T08:09:23Z</time></trkpt><trkpt lat="46.263759559468156" lon="11.47410248620487"><ele>1258.0</ele><time>2026-04-12T08:09:24Z</time></trkpt><trkpt lat="46.26367564111043" lon="11.474130024003568"><ele>1258.0</ele><time>2026-04-12T08:09:25Z</time></trkpt><trkpt lat="46.26360931025321" lon="11.474165625041447"><ele>1260.4</ele><time>2026-04-12T08:09:26Z</time></trkpt><trkpt lat="46.263530294935784" lon="11.474229706870121"><ele>1262.8</ele><time>2026-04-12T08:09:27Z</time></trkpt><trkpt lat="46.2634273110414" lon="11.474268144680499"><ele>1265.2</ele><time>2026-04-12T08:09:28Z</time></trkpt><trkpt lat="46.26332835583519" lon="11.474306144529482"><ele>1267.6</ele><time>2026-04-12T08:09:29Z</time></trkpt><trkpt lat="46.26323979103959" lon="11.474344870564456"><ele>1270.0</ele><time>2026-04-12T08:09:30Z</time></trkpt><trkpt lat="46.26313507818073" lon="11.474337925832447"><ele>1274.8</ele><time>2026-04-12T08:09:31Z</time></trkpt><trkpt lat="46.26303587445294" lon="11.474305308040757"><ele>1279.6</ele><time>2026-04-12T08:09:32Z</time></trkpt><trkpt lat="46.262935065286" lon="11.474294760127009"><ele>1284.4</ele><time>2026-04-12T08:09:33Z</time></trkpt><trkpt lat="46.26283312748397" lon="11.474340738690486"><ele>1289.2</ele><time>2026-04-12T08:09:34Z</time></trkpt><trkpt lat="46.26273619310234" lon="11.474405739332965"><ele>1294.0</ele><time>2026-04-12T08:09:35Z</time></trkpt><trkpt lat="46.26265121872031" lon="11.474458576644986"><ele>1294.0</ele><time>2026-04-12T08:09:36Z</time></trkpt><trkpt lat="46.262571694405224" lon="11.474481329431852"><ele>1294.0</ele><time>2026-04-12T08:09:37Z</time></trkpt><trkpt lat="46.26249372724629" lon="11.474496389944301"><ele>1294.0</ele><time>2026-04-12T08:09:38Z</time></trkpt><trkpt lat="46.262425467603954" lon="11.474511346061512"><ele>1294.0</ele><time>2026-04-12T08:09:39Z</time></trkpt><trkpt lat="46.2623514314955" lon="11.474532725857804"><ele>1294.0</ele><time>2026-04-12T08:09:41Z</time></trkpt><trkpt lat="46.26227123128551" lon="11.474579328385666"><ele>1294.0</ele><time>2026-04-12T08:09:53Z</time></trkpt><trkpt lat="46.262201178303954" lon="11.474568786406351"><ele>1296.0</ele><time>2026-04-12T08:09:55Z</time></trkpt><trkpt lat="46.26213621907239" lon="11.47460271264229"><ele>1298.0</ele><time>2026-04-12T08:09:59Z</time></trkpt><trkpt lat="46.262055270922865" lon="11.47461176582671"><ele>1300.0</ele><time>2026-04-12T08:10:05Z</time></trkpt><trkpt lat="46.261993554856566" lon="11.474648497800455"><ele>1302.0</ele><time>2026-04-12T08:10:07Z</time></trkpt><trkpt lat="46.26189353059442" lon="11.474760354511076"><ele>1304.0</ele><time>2026-04-12T08:10:09Z</time></trkpt><trkpt lat="46.261783971035584" lon="11.474835974148421"><ele>1303.1666666666667</ele><time>2026-04-12T08:10:10Z</time></trkpt><trkpt lat="46.261668245425426" lon="11.474878286804792"><ele>1302.3333333333335</ele><time>2026-04-12T08:10:11Z</time></trkpt><trkpt lat="46.26159608239159" lon="11.474925655596374"><ele>1301.5</ele><time>2026-04-12T08:10:12Z</time></trkpt><trkpt lat="46.26154028040511" lon="11.474968388353021"><ele>1300.6666666666667</ele><time>2026-04-12T08:10:13Z</time></trkpt><trkpt lat="46.26146154672963" lon="11.474986222078122"><ele>1299.8333333333333</ele><time>2026-04-12T08:10:15Z</time></trkpt><trkpt lat="46.261387088911306" lon="11.47502004924747"><ele>1299.0</ele><time>2026-04-12T08:10:18Z</time></trkpt><trkpt lat="46.26140123886368" lon="11.474859351409258"><ele>1300.0</ele><time>2026-04-12T08:10:22Z</time></trkpt><trkpt lat="46.26147018276324" lon="11.474768319688133"><ele>1301.0</ele><time>2026-04-12T08:10:23Z</time></trkpt><trkpt lat="46.26154185810096" lon="11.474671401916757"><ele>1302.0</ele><time>2026-04-12T08:10:24Z</time></trkpt><trkpt lat="46.26163088349275" lon="11.474542069908333"><ele>1303.0</ele><time>2026-04-12T08:10:25Z</time></trkpt><trkpt lat="46.26172188539525" lon="11.474437892067876"><ele>1304.0</ele><time>2026-04-12T08:10:26Z</time></trkpt><trkpt lat="46.261786053314296" lon="11.474372814945708"><ele>1304.0</ele><time>2026-04-12T08:10:27Z</time></trkpt><trkpt lat="46.26174224120073" lon="11.474291601538685"><ele>1304.0</ele><time>2026-04-12T08:10:32Z</time></trkpt><trkpt lat="46.261658991813114" lon="11.474338323427999"><ele>1304.0</ele><time>2026-04-12T08:10:34Z</time></trkpt><trkpt lat="46.26159572616061" lon="11.474372562947295"><ele>1304.0</ele><time>2026-04-12T08:10:35Z</time></trkpt><trkpt lat="46.2615350117059" lon="11.474398729481186"><ele>1304.0</ele><time>2026-04-12T08:10:36Z</time></trkpt><trkpt lat="46.261465384759596" lon="11.47441122203533"><ele>1304.0</ele><time>2026-04-12T08:10:37Z</time></trkpt><trkpt lat="46.261392380085745" lon="11.474425533786379"><ele>1304.0</ele><time>2026-04-12T08:10:38Z</time></trkpt><trkpt lat="46.26132618937156" lon="11.474455180634948"><ele>1303.0</ele><time>2026-04-12T08:10:39Z</time></trkpt><trkpt lat="46.26122598785944" lon="11.474493907018172"><ele>1302.0</ele><time>2026-04-12T08:10:40Z</time></trkpt><trkpt lat="46.26112745841242" lon="11.474570990384136"><ele>1301.0</ele><time>2026-04-12T08:10:41Z</time></trkpt><trkpt lat="46.26103698201592" lon="11.474628699287173"><ele>1300.0</ele><time>2026-04-12T08:10:42Z</time></trkpt><trkpt lat="46.260959729372885" lon="11.474653951210266"><ele>1299.0</ele><time>2026-04-12T08:10:43Z</time></trkpt><trkpt lat="46.26087405255593" lon="11.47463957824406"><ele>1299.0</ele><time>2026-04-12T08:10:44Z</time></trkpt><trkpt lat="46.26076631324854" lon="11.474631805743941"><ele>1299.0</ele><time>2026-04-12T08:10:45Z</time></trkpt><trkpt lat="46.26064617191105" lon="11.474615261029685"><ele>1299.0</ele><time>2026-04-12T08:10:46Z</time></trkpt><trkpt lat="46.26053800136076" lon="11.474613319995703"><ele>1299.0</ele><time>2026-04-12T08:10:47Z</time></trkpt><trkpt lat="46.260422890792306" lon="11.474609846613053"><ele>1301.4</ele><time>2026-04-12T08:10:48Z</time></trkpt><trkpt lat="46.26032330424784" lon="11.474623766427872"><ele>1303.8000000000002</ele><time>2026-04-12T08:10:49Z</time></trkpt><trkpt lat="46.26025038138001" lon="11.474677406746014"><ele>1306.1999999999998</ele><time>2026-04-12T08:10:50Z</time></trkpt><trkpt lat="46.26016450348987" lon="11.474745358641993"><ele>1308.6</ele><time>2026-04-12T08:10:51Z</time></trkpt><trkpt lat="46.26007050340794" lon="11.474787982651192"><ele>1311.0</ele><time>2026-04-12T08:10:52Z</time></trkpt><trkpt lat="46.259979619158266" lon="11.474806260447"><ele>1311.0</ele><time>2026-04-12T08:10:53Z</time></trkpt><trkpt lat="46.25986359351682" lon="11.47484134443773"><ele>1311.0</ele><time>2026-04-12T08:10:54Z</time></trkpt><trkpt lat="46.2597432960747" lon="11.474867617020285"><ele>1311.0</ele><time>2026-04-12T08:10:55Z</time></trkpt><trkpt lat="46.259645649545256" lon="11.474896629427276"><ele>1311.0</ele><time>2026-04-12T08:10:56Z</time></trkpt><trkpt lat="46.259549614885835" lon="11.474921326700493"><ele>1311.0</ele><time>2026-04-12T08:10:57Z</time></trkpt><trkpt lat="46.259461115511876" lon="11.474934206307221"><ele>1314.5</ele><time>2026-04-12T08:10:58Z</time></trkpt><trkpt lat="46.25939855211602" lon="11.474956336060423"><ele>1318.0</ele><time>2026-04-12T08:10:59Z</time></trkpt><trkpt lat="46.25933268735357" lon="11.474964200406681"><ele>1321.5</ele><time>2026-04-12T08:11:00Z</time></trkpt><trkpt lat="46.25923460087887" lon="11.474983532590478"><ele>1325.0</ele><time>2026-04-12T08:11:02Z</time></trkpt><trkpt lat="46.25913598062401" lon="11.475032423026112"><ele>1328.5</ele><time>2026-04-12T08:11:04Z</time></trkpt><trkpt lat="46.259066059304985" lon="11.47510165265062"><ele>1332.0</ele><time>2026-04-12T08:11:07Z</time></trkpt><trkpt lat="46.25898389471613" lon="11.475105728524763"><ele>1332.0</ele><time>2026-04-12T08:11:11Z</time></trkpt><trkpt lat="46.259058727439786" lon="11.47509259055653"><ele>1332.0</ele><time>2026-04-12T08:12:52Z</time></trkpt><trkpt lat="46.25913447061873" lon="11.475043128865485"><ele>1332.0</ele><time>2026-04-12T08:12:55Z</time></trkpt><trkpt lat="46.259199410900536" lon="11.475019386496697"><ele>1332.0</ele><time>2026-04-12T08:12:57Z</time></trkpt><trkpt lat="46.2592906918696" lon="11.475020558027696"><ele>1332.0</ele><time>2026-04-12T08:12:59Z</time></trkpt><trkpt lat="46.25937633757808" lon="11.474984190824019"><ele>1332.0</ele><time>2026-04-12T08:13:01Z</time></trkpt><trkpt lat="46.25944335852587" lon="11.474974654742425"><ele>1332.0</ele><time>2026-04-12T08:13:03Z</time></trkpt><trkpt lat="46.259503816065035" lon="11.474940448003471"><ele>1332.0</ele><time>2026-04-12T08:13:08Z</time></trkpt><trkpt lat="46.259419950662526" lon="11.474922278397282"><ele>1332.0</ele><time>2026-04-12T08:14:30Z</time></trkpt><trkpt lat="46.25935158552709" lon="11.474933471495207"><ele>1332.0</ele><time>2026-04-12T08:14:31Z</time></trkpt><trkpt lat="46.25924218170296" lon="11.474968724882864"><ele>1332.0</ele><time>2026-04-12T08:14:32Z</time></trkpt><trkpt lat="46.2591397647614" lon="11.475026160348094"><ele>1332.0</ele><time>2026-04-12T08:14:33Z</time></trkpt><trkpt lat="46.25906451115249" lon="11.475077144703302"><ele>1332.0</ele><time>2026-04-12T08:14:34Z</time></trkpt><trkpt lat="46.25897305613031" lon="11.475117826744137"><ele>1332.0</ele><time>2026-04-12T08:14:36Z</time></trkpt><trkpt lat="46.25890061227131" lon="11.475111999935393"><ele>1332.0</ele><time>2026-04-12T08:15:33Z</time></trkpt><trkpt lat="46.25892955643474" lon="11.475023386721304"><ele>1332.0</ele><time>2026-04-12T08:16:14Z</time></trkpt><trkpt lat="46.258865737875816" lon="11.47507827885223"><ele>1332.0</ele><time>2026-04-12T08:16:54Z</time></trkpt><trkpt lat="46.258927703634434" lon="11.475117808351655"><ele>1332.0</ele><time>2026-04-12T08:17:01Z</time></trkpt><trkpt lat="46.25890775246484" lon="11.475020316030847"><ele>1332.0</ele><time>2026-04-12T08:17:28Z</time></trkpt><trkpt lat="46.258966918746296" lon="11.474985051438871"><ele>1332.0</ele><time>2026-04-12T08:17:45Z</time></trkpt><trkpt lat="46.25903155470708" lon="11.474929782472504"><ele>1332.0</ele><time>2026-04-12T08:17:48Z</time></trkpt><trkpt lat="46.25910820197841" lon="11.474891730215472"><ele>1332.0</ele><time>2026-04-12T08:17:52Z</time></trkpt><trkpt lat="46.25918118205498" lon="11.474831338091084"><ele>1332.0</ele><time>2026-04-12T08:17:56Z</time></trkpt><trkpt lat="46.25920874020471" lon="11.47471150464171"><ele>1332.0</ele><time>2026-04-12T08:18:21Z</time></trkpt><trkpt lat="46.259263353114676" lon="11.47464696657507"><ele>1332.0</ele><time>2026-04-12T08:18:23Z</time></trkpt><trkpt lat="46.2593651797872" lon="11.474577134552602"><ele>1335.8333333333333</ele><time>2026-04-12T08:18:25Z</time></trkpt><trkpt lat="46.25941747185803" lon="11.47452443425971"><ele>1339.6666666666667</ele><time>2026-04-12T08:18:26Z</time></trkpt><trkpt lat="46.25947225149163" lon="11.474443470189357"><ele>1343.5</ele><time>2026-04-12T08:18:27Z</time></trkpt><trkpt lat="46.259525248034436" lon="11.4743701115189"><ele>1347.3333333333335</ele><time>2026-04-12T08:18:28Z</time></trkpt><trkpt lat="46.25959738578315" lon="11.474332475316658"><ele>1351.1666666666667</ele><time>2026-04-12T08:18:30Z</time></trkpt><trkpt lat="46.25967731102445" lon="11.47428123629879"><ele>1355.0</ele><time>2026-04-12T08:18:32Z</time></trkpt><trkpt lat="46.25971547412452" lon="11.474183165626728"><ele>1355.0</ele><time>2026-04-12T08:18:33Z</time></trkpt><trkpt lat="46.25977944962801" lon="11.474072701316175"><ele>1355.0</ele><time>2026-04-12T08:18:34Z</time></trkpt><trkpt lat="46.259845664379746" lon="11.474038958436982"><ele>1355.0</ele><time>2026-04-12T08:18:35Z</time></trkpt><trkpt lat="46.25993943094668" lon="11.473938990916077"><ele>1355.0</ele><time>2026-04-12T08:18:37Z</time></trkpt><trkpt lat="46.26000892948786" lon="11.473856019998914"><ele>1355.0</ele><time>2026-04-12T08:18:38Z</time></trkpt><trkpt lat="46.26006949990682" lon="11.473781803324215"><ele>1355.8333333333335</ele><time>2026-04-12T08:18:39Z</time></trkpt><trkpt lat="46.260179684648186" lon="11.47371728579382"><ele>1356.6666666666667</ele><time>2026-04-12T08:18:41Z</time></trkpt><trkpt lat="46.2602309252838" lon="11.473656340004583"><ele>1357.5</ele><time>2026-04-12T08:18:43Z</time></trkpt><trkpt lat="46.26030596672884" lon="11.473595439464573"><ele>1358.3333333333333</ele><time>2026-04-12T08:18:45Z</time></trkpt><trkpt lat="46.260393636666" lon="11.473557236045488"><ele>1359.1666666666665</ele><time>2026-04-12T08:18:47Z</time></trkpt><trkpt lat="46.26046494494348" lon="11.473527565490661"><ele>1360.0</ele><time>2026-04-12T08:18:48Z</time></trkpt><trkpt lat="46.26056088288327" lon="11.473514969979325"><ele>1358.8333333333333</ele><time>2026-04-12T08:18:49Z</time></trkpt><trkpt lat="46.260653754884345" lon="11.473485692589074"><ele>1357.6666666666665</ele><time>2026-04-12T08:18:50Z</time></trkpt><trkpt lat="46.26073557718603" lon="11.47344916511249"><ele>1356.5</ele><time>2026-04-12T08:18:51Z</time></trkpt><trkpt lat="46.260799540669254" lon="11.47347224387006"><ele>1355.3333333333333</ele><time>2026-04-12T08:18:52Z</time></trkpt><trkpt lat="46.260861854233305" lon="11.473440079402272"><ele>1354.1666666666667</ele><time>2026-04-12T08:18:54Z</time></trkpt><trkpt lat="46.26093578059157" lon="11.473371052781308"><ele>1353.0</ele><time>2026-04-12T08:19:54Z</time></trkpt><trkpt lat="46.261009258450855" lon="11.473350426043224"><ele>1353.0</ele><time>2026-04-12T08:19:59Z</time></trkpt><trkpt lat="46.26107061315502" lon="11.473308799810619"><ele>1353.0</ele><time>2026-04-12T08:20:04Z</time></trkpt><trkpt lat="46.26113541685413" lon="11.473281221567198"><ele>1353.0</ele><time>2026-04-12T08:20:12Z</time></trkpt><trkpt lat="46.2611996435234" lon="11.473266713298077"><ele>1353.0</ele><time>2026-04-12T08:20:19Z</time></trkpt><trkpt lat="46.26126797649431" lon="11.473290022396561"><ele>1353.0</ele><time>2026-04-12T08:20:25Z</time></trkpt><trkpt lat="46.26133699771583" lon="11.47329592576195"><ele>1353.0</ele><time>2026-04-12T08:21:52Z</time></trkpt><trkpt lat="46.261267272715" lon="11.473302300229763"><ele>1353.0</ele><time>2026-04-12T08:22:26Z</time></trkpt><trkpt lat="46.261136667383056" lon="11.473292841179285"><ele>1353.0</ele><time>2026-04-12T08:22:56Z</time></trkpt><trkpt lat="46.26105922389162" lon="11.473352491974566"><ele>1353.0</ele><time>2026-04-12T08:23:52Z</time></trkpt><trkpt lat="46.2609948519214" lon="11.473377718950566"><ele>1353.0</ele><time>2026-04-12T08:24:38Z</time></trkpt><trkpt lat="46.26091353609456" lon="11.47335788438875"><ele>1353.0</ele><time>2026-04-12T08:26:35Z</time></trkpt><trkpt lat="46.26084469467299" lon="11.47338914246881"><ele>1353.0</ele><time>2026-04-12T08:26:39Z</time></trkpt><trkpt lat="46.2607714853516" lon="11.47340809636677"><ele>1353.0</ele><time>2026-04-12T08:26:41Z</time></trkpt><trkpt lat="46.26065897303021" lon="11.473431558734648"><ele>1354.1666666666667</ele><time>2026-04-12T08:26:43Z</time></trkpt><trkpt lat="46.260593868326936" lon="11.473444630333455"><ele>1355.3333333333333</ele><time>2026-04-12T08:26:44Z</time></trkpt><trkpt lat="46.2605117657428" lon="11.473459531906183"><ele>1356.5</ele><time>2026-04-12T08:26:45Z</time></trkpt><trkpt lat="46.26041396704682" lon="11.473492415539447"><ele>1357.6666666666665</ele><time>2026-04-12T08:26:47Z</time></trkpt><trkpt lat="46.26033118974972" lon="11.473555704923514"><ele>1358.8333333333333</ele><time>2026-04-12T08:26:49Z</time></trkpt><trkpt lat="46.26025527021128" lon="11.47362358188822"><ele>1360.0</ele><time>2026-04-12T08:26:51Z</time></trkpt><trkpt lat="46.26016630751023" lon="11.473706200898764"><ele>1359.1666666666665</ele><time>2026-04-12T08:26:53Z</time></trkpt><trkpt lat="46.26006056310505" lon="11.473804070105318"><ele>1358.3333333333333</ele><time>2026-04-12T08:26:55Z</time></trkpt><trkpt lat="46.25999408901216" lon="11.473860817020672"><ele>1357.5</ele><time>2026-04-12T08:26:56Z</time></trkpt><trkpt lat="46.25993318360497" lon="11.473915987615074"><ele>1356.6666666666667</ele><time>2026-04-12T08:26:57Z</time></trkpt><trkpt lat="46.25988100299145" lon="11.473994231320667"><ele>1355.8333333333335</ele><time>2026-04-12T08:26:58Z</time></trkpt><trkpt lat="46.25982912839338" lon="11.474059964217455"><ele>1355.0</ele><time>2026-04-12T08:26:59Z</time></trkpt><trkpt lat="46.25974561970538" lon="11.47417620307109"><ele>1355.0</ele><time>2026-04-12T08:27:01Z</time></trkpt><trkpt lat="46.25969643259114" lon="11.47424110896045"><ele>1355.0</ele><time>2026-04-12T08:27:03Z</time></trkpt><trkpt lat="46.259615316162915" lon="11.474289022630618"><ele>1355.0</ele><time>2026-04-12T08:27:05Z</time></trkpt><trkpt lat="46.25954178063926" lon="11.474415992984051"><ele>1355.0</ele><time>2026-04-12T08:27:07Z</time></trkpt><trkpt lat="46.25948648810397" lon="11.474468462654261"><ele>1355.0</ele><time>2026-04-12T08:27:08Z</time></trkpt><trkpt lat="46.25940274944355" lon="11.474555686163047"><ele>1355.0</ele><time>2026-04-12T08:27:10Z</time></trkpt><trkpt lat="46.25931306710031" lon="11.474605312101536"><ele>1354.2</ele><time>2026-04-12T08:27:12Z</time></trkpt><trkpt lat="46.259246014469824" lon="11.47469567026034"><ele>1353.4</ele><time>2026-04-12T08:27:14Z</time></trkpt><trkpt lat="46.25918006952951" lon="11.474784867330557"><ele>1352.6</ele><time>2026-04-12T08:27:17Z</time></trkpt><trkpt lat="46.25911167320692" lon="11.474855957062529"><ele>1351.8</ele><time>2026-04-12T08:27:19Z</time></trkpt><trkpt lat="46.25903618380668" lon="11.47488219644044"><ele>1351.0</ele><time>2026-04-12T08:27:21Z</time></trkpt><trkpt lat="46.25893329661573" lon="11.474940673576329"><ele>1351.0</ele><time>2026-04-12T08:27:23Z</time></trkpt><trkpt lat="46.258846006092924" lon="11.474982764701847"><ele>1351.0</ele><time>2026-04-12T08:27:25Z</time></trkpt><trkpt lat="46.258770999632496" lon="11.474983939908698"><ele>1351.0</ele><time>2026-04-12T08:27:27Z</time></trkpt><trkpt lat="46.25870955442302" lon="11.475014152791696"><ele>1351.0</ele><time>2026-04-12T08:27:30Z</time></trkpt><trkpt lat="46.25864226033958" lon="11.47503273781741"><ele>1351.0</ele><time>2026-04-12T08:27:33Z</time></trkpt><trkpt lat="46.258524604590136" lon="11.475063126117103"><ele>1351.0</ele><time>2026-04-12T08:27:35Z</time></trkpt><trkpt lat="46.25846257886644" lon="11.47510410401839"><ele>1351.0</ele><time>2026-04-12T08:27:36Z</time></trkpt><trkpt lat="46.25839775921217" lon="11.475105773599685"><ele>1351.0</ele><time>2026-04-12T08:27:39Z</time></trkpt><trkpt lat="46.258334136703844" lon="11.475127218788426"><ele>1351.0</ele><time>2026-04-12T08:27:44Z</time></trkpt><trkpt lat="46.25825917490775" lon="11.475155731473684"><ele>1351.0</ele><time>2026-04-12T08:27:59Z</time></trkpt><trkpt lat="46.258196373888886" lon="11.475173672882333"><ele>1351.0</ele><time>2026-04-12T08:28:08Z</time></trkpt><trkpt lat="46.25810648719217" lon="11.475180669436773"><ele>1351.0</ele><time>2026-04-12T08:28:24Z</time></trkpt><trkpt lat="46.25799534967125" lon="11.475203674609645"><ele>1356.6</ele><time>2026-04-12T08:28:26Z</time></trkpt><trkpt lat="46.257896884276114" lon="11.47525849856964"><ele>1362.1999999999998</ele><time>2026-04-12T08:28:28Z</time></trkpt><trkpt lat="46.25782012370522" lon="11.475291791994328"><ele>1367.8000000000002</ele><time>2026-04-12T08:28:30Z</time></trkpt><trkpt lat="46.25771124497303" lon="11.475318751403304"><ele>1373.4</ele><time>2026-04-12T08:28:32Z</time></trkpt><trkpt lat="46.25762389663514" lon="11.475325635580202"><ele>1379.0</ele><time>2026-04-12T08:28:33Z</time></trkpt><trkpt lat="46.25754085528117" lon="11.475360290892107"><ele>1379.0</ele><time>2026-04-12T08:28:35Z</time></trkpt><trkpt lat="46.25745362569441" lon="11.475407147186415"><ele>1379.0</ele><time>2026-04-12T08:28:37Z</time></trkpt><trkpt lat="46.25733771194178" lon="11.475452402353053"><ele>1379.0</ele><time>2026-04-12T08:28:39Z</time></trkpt><trkpt lat="46.2572711489915" lon="11.475473340337441"><ele>1379.0</ele><time>2026-04-12T08:28:40Z</time></trkpt><trkpt lat="46.25716530421434" lon="11.475547829034406"><ele>1379.0</ele><time>2026-04-12T08:28:42Z</time></trkpt><trkpt lat="46.25706137797625" lon="11.475632899855542"><ele>1380.2857142857142</ele><time>2026-04-12T08:28:44Z</time></trkpt><trkpt lat="46.25699824747675" lon="11.475669277211134"><ele>1381.5714285714284</ele><time>2026-04-12T08:28:45Z</time></trkpt><trkpt lat="46.25692820241884" lon="11.475736247563287"><ele>1382.857142857143</ele><time>2026-04-12T08:28:46Z</time></trkpt><trkpt lat="46.25687749503835" lon="11.475790589978274"><ele>1384.142857142857</ele><time>2026-04-12T08:28:47Z</time></trkpt><trkpt lat="46.25680874283561" lon="11.475850804502754"><ele>1385.4285714285713</ele><time>2026-04-12T08:28:49Z</time></trkpt><trkpt lat="46.25674628872423" lon="11.475892086011795"><ele>1386.7142857142858</ele><time>2026-04-12T08:28:55Z</time></trkpt><trkpt lat="46.25668092199915" lon="11.475969665011792"><ele>1388.0</ele><time>2026-04-12T08:28:57Z</time></trkpt><trkpt lat="46.25658984462927" lon="11.4760771731655"><ele>1388.0</ele><time>2026-04-12T08:28:59Z</time></trkpt><trkpt lat="46.25652468985577" lon="11.476101938149881"><ele>1388.0</ele><time>2026-04-12T08:29:06Z</time></trkpt><trkpt lat="46.256478848797364" lon="11.476202637484214"><ele>1388.0</ele><time>2026-04-12T08:29:38Z</time></trkpt><trkpt lat="46.25642880847356" lon="11.476273981573842"><ele>1388.0</ele><time>2026-04-12T08:29:42Z</time></trkpt><trkpt lat="46.25635458230847" lon="11.47634248494725"><ele>1388.0</ele><time>2026-04-12T08:29:44Z</time></trkpt><trkpt lat="46.2562857015209" lon="11.476434055796593"><ele>1388.0</ele><time>2026-04-12T08:29:46Z</time></trkpt><trkpt lat="46.256234173815685" lon="11.476505981263355"><ele>1393.6666666666667</ele><time>2026-04-12T08:29:48Z</time></trkpt><trkpt lat="46.25617780970451" lon="11.476649364776446"><ele>1399.3333333333335</ele><time>2026-04-12T08:29:50Z</time></trkpt><trkpt lat="46.25612377875753" lon="11.47671068577972"><ele>1405.0</ele><time>2026-04-12T08:29:56Z</time></trkpt><trkpt lat="46.25610178359785" lon="11.476804597866948"><ele>1410.6666666666667</ele><time>2026-04-12T08:30:01Z</time></trkpt><trkpt lat="46.256077167841426" lon="11.476892451293166"><ele>1416.3333333333333</ele><time>2026-04-12T08:31:00Z</time></trkpt><trkpt lat="46.25597357953039" lon="11.476966534476386"><ele>1422.0</ele><time>2026-04-12T08:31:04Z</time></trkpt><trkpt lat="46.255965279083966" lon="11.477062372509469"><ele>1421.7142857142858</ele><time>2026-04-12T08:33:36Z</time></trkpt><trkpt lat="46.255907959283405" lon="11.477102891937056"><ele>1421.4285714285713</ele><time>2026-04-12T08:33:41Z</time></trkpt><trkpt lat="46.25585121325925" lon="11.477169312768298"><ele>1421.142857142857</ele><time>2026-04-12T08:33:46Z</time></trkpt><trkpt lat="46.2558389841878" lon="11.477283207823074"><ele>1420.857142857143</ele><time>2026-04-12T08:34:56Z</time></trkpt><trkpt lat="46.25581829735628" lon="11.477387028407781"><ele>1420.5714285714287</ele><time>2026-04-12T08:35:23Z</time></trkpt><trkpt lat="46.255788568465555" lon="11.477468741096565"><ele>1420.2857142857142</ele><time>2026-04-12T08:35:55Z</time></trkpt><trkpt lat="46.255744826430906" lon="11.47757225895245"><ele>1420.0</ele><time>2026-04-12T08:36:16Z</time></trkpt><trkpt lat="46.255716985406416" lon="11.477672610124655"><ele>1420.0</ele><time>2026-04-12T08:38:40Z</time></trkpt><trkpt lat="46.25574578903931" lon="11.477532438100928"><ele>1420.0</ele><time>2026-04-12T08:39:55Z</time></trkpt><trkpt lat="46.25577153460197" lon="11.477442677460186"><ele>1420.0</ele><time>2026-04-12T08:40:09Z</time></trkpt><trkpt lat="46.2558146906031" lon="11.47733168028503"><ele>1420.0</ele><time>2026-04-12T08:40:23Z</time></trkpt><trkpt lat="46.255803941201854" lon="11.477421858966201"><ele>1420.0</ele><time>2026-04-12T08:40:56Z</time></trkpt><trkpt lat="46.255780470039774" lon="11.47750771690071"><ele>1420.0</ele><time>2026-04-12T08:42:18Z</time></trkpt><trkpt lat="46.255744992856265" lon="11.47760431756261"><ele>1420.0</ele><time>2026-04-12T08:42:36Z</time></trkpt><trkpt lat="46.2556762038629" lon="11.477659186011323"><ele>1420.0</ele><time>2026-04-12T08:43:57Z</time></trkpt><trkpt lat="46.255660907603456" lon="11.477539318163368"><ele>1420.0</ele><time>2026-04-12T08:44:50Z</time></trkpt><trkpt lat="46.255597181823" lon="11.47750448868624"><ele>1420.0</ele><time>2026-04-12T08:45:43Z</time></trkpt><trkpt lat="46.25554269388839" lon="11.477415038408557"><ele>1420.0</ele><time>2026-04-12T08:48:10Z</time></trkpt><trkpt lat="46.255502050041855" lon="11.47734129830111"><ele>1420.0</ele><time>2026-04-12T08:48:12Z</time></trkpt><trkpt lat="46.255473696055844" lon="11.477225867537328"><ele>1424.8333333333333</ele><time>2026-04-12T08:48:15Z</time></trkpt><trkpt lat="46.255442076591414" lon="11.477117197310555"><ele>1429.6666666666665</ele><time>2026-04-12T08:48:18Z</time></trkpt><trkpt lat="46.25539296992692" lon="11.477057234873474"><ele>1434.5</ele><time>2026-04-12T08:48:20Z</time></trkpt><trkpt lat="46.25534184290546" lon="11.476997064183635"><ele>1439.3333333333333</ele><time>2026-04-12T08:48:23Z</time></trkpt><trkpt lat="46.25528143346128" lon="11.476899290023484"><ele>1444.1666666666667</ele><time>2026-04-12T08:48:26Z</time></trkpt><trkpt lat="46.255209276299794" lon="11.476804132698716"><ele>1449.0</ele><time>2026-04-12T08:48:29Z</time></trkpt><trkpt lat="46.255144289156746" lon="11.476735988542115"><ele>1450.0</ele><time>2026-04-12T08:48:32Z</time></trkpt><trkpt lat="46.25509426928707" lon="11.476648113000909"><ele>1451.0</ele><time>2026-04-12T08:48:35Z</time></trkpt><trkpt lat="46.255027992319214" lon="11.476579385397901"><ele>1452.0</ele><time>2026-04-12T08:48:40Z</time></trkpt><trkpt lat="46.25492934182436" lon="11.4765105660917"><ele>1453.0</ele><time>2026-04-12T08:48:53Z</time></trkpt><trkpt lat="46.25487428366853" lon="11.476555780810859"><ele>1454.0</ele><time>2026-04-12T08:48:59Z</time></trkpt><trkpt lat="46.25488585637047" lon="11.476645597197958"><ele>1455.0</ele><time>2026-04-12T08:49:02Z</time></trkpt><trkpt lat="46.25492604322148" lon="11.476754157295868"><ele>1455.0</ele><time>2026-04-12T08:49:05Z</time></trkpt><trkpt lat="46.25495488038599" lon="11.476882255215585"><ele>1455.0</ele><time>2026-04-12T08:49:07Z</time></trkpt><trkpt lat="46.25497586362068" lon="11.47696810780799"><ele>1455.0</ele><time>2026-04-12T08:49:08Z</time></trkpt><trkpt lat="46.2549973347528" lon="11.47707323750282"><ele>1455.0</ele><time>2026-04-12T08:49:09Z</time></trkpt><trkpt lat="46.25501017425673" lon="11.477164367145745"><ele>1455.0</ele><time>2026-04-12T08:49:10Z</time></trkpt><trkpt lat="46.25499304756403" lon="11.477294173742818"><ele>1455.0</ele><time>2026-04-12T08:49:12Z</time></trkpt><trkpt lat="46.254966791361156" lon="11.477397326981107"><ele>1455.0</ele><time>2026-04-12T08:52:17Z</time></trkpt><trkpt lat="46.25497066001012" lon="11.477305340178303"><ele>1455.0</ele><time>2026-04-12T08:53:53Z</time></trkpt><trkpt lat="46.25501287315272" lon="11.47720170851404"><ele>1455.0</ele><time>2026-04-12T08:54:13Z</time></trkpt><trkpt lat="46.25499295787883" lon="11.477046924066897"><ele>1455.0</ele><time>2026-04-12T08:54:15Z</time></trkpt><trkpt lat="46.25496330292607" lon="11.476846044803342"><ele>1455.0</ele><time>2026-04-12T08:54:16Z</time></trkpt><trkpt lat="46.254928538994456" lon="11.476709878159038"><ele>1455.0</ele><time>2026-04-12T08:54:18Z</time></trkpt><trkpt lat="46.25487402042408" lon="11.476639708813634"><ele>1455.0</ele><time>2026-04-12T08:54:21Z</time></trkpt><trkpt lat="46.25486298045875" lon="11.476544486757188"><ele>1455.0</ele><time>2026-04-12T08:54:26Z</time></trkpt><trkpt lat="46.254930223541" lon="11.476540221066948"><ele>1455.0</ele><time>2026-04-12T08:54:30Z</time></trkpt><trkpt lat="46.25496243947189" lon="11.476636593978562"><ele>1455.0</ele><time>2026-04-12T08:54:37Z</time></trkpt><trkpt lat="46.255019908102135" lon="11.476676476356511"><ele>1455.0</ele><time>2026-04-12T08:54:40Z</time></trkpt><trkpt lat="46.25507943443215" lon="11.476736166934025"><ele>1455.0</ele><time>2026-04-12T08:54:43Z</time></trkpt><trkpt lat="46.25513909417445" lon="11.476802242723998"><ele>1455.0</ele><time>2026-04-12T08:54:46Z</time></trkpt><trkpt lat="46.255220670202455" lon="11.476841075697502"><ele>1455.0</ele><time>2026-04-12T08:54:49Z</time></trkpt><trkpt lat="46.255283264630066" lon="11.476888745610896"><ele>1455.0</ele><time>2026-04-12T08:54:51Z</time></trkpt><trkpt lat="46.255311050564764" lon="11.47702118354324"><ele>1455.0</ele><time>2026-04-12T08:54:54Z</time></trkpt><trkpt lat="46.25548915212232" lon="11.477366773103402"><ele>1454.0</ele><time>2026-04-12T08:54:57Z</time></trkpt><trkpt lat="46.25552629900487" lon="11.477457224349179"><ele>1453.0</ele><time>2026-04-12T08:55:00Z</time></trkpt><trkpt lat="46.25558141415902" lon="11.477377951528013"><ele>1452.0</ele><time>2026-04-12T08:55:18Z</time></trkpt><trkpt lat="46.255656051050465" lon="11.477240385329715"><ele>1451.0</ele><time>2026-04-12T08:55:20Z</time></trkpt><trkpt lat="46.25572372063898" lon="11.47718018887272"><ele>1450.0</ele><time>2026-04-12T08:55:22Z</time></trkpt><trkpt lat="46.25578751572825" lon="11.477118054495831"><ele>1449.0</ele><time>2026-04-12T08:55:25Z</time></trkpt><trkpt lat="46.25581345089816" lon="11.477020302858653"><ele>1445.142857142857</ele><time>2026-04-12T08:55:29Z</time></trkpt><trkpt lat="46.25583792898474" lon="11.476909781551708"><ele>1441.2857142857142</ele><time>2026-04-12T08:55:31Z</time></trkpt><trkpt lat="46.255877392690216" lon="11.476834552809345"><ele>1437.4285714285716</ele><time>2026-04-12T08:55:43Z</time></trkpt><trkpt lat="46.255923822763094" lon="11.476745460088681"><ele>1433.5714285714284</ele><time>2026-04-12T08:55:53Z</time></trkpt><trkpt lat="46.25597923512574" lon="11.476694433599523"><ele>1429.7142857142858</ele><time>2026-04-12T08:56:12Z</time></trkpt><trkpt lat="46.256043239820556" lon="11.476700002058928"><ele>1425.857142857143</ele><time>2026-04-12T08:56:19Z</time></trkpt><trkpt lat="46.25610081366987" lon="11.476740102257446"><ele>1422.0</ele><time>2026-04-12T08:56:34Z</time></trkpt><trkpt lat="46.25615566470334" lon="11.476671468923096"><ele>1422.0</ele><time>2026-04-12T08:57:17Z</time></trkpt><trkpt lat="46.256203671336394" lon="11.476581933359139"><ele>1422.0</ele><time>2026-04-12T08:57:20Z</time></trkpt><trkpt lat="46.256269611542564" lon="11.476490736564068"><ele>1422.0</ele><time>2026-04-12T08:57:23Z</time></trkpt><trkpt lat="46.25633519406545" lon="11.476399849019764"><ele>1422.0</ele><time>2026-04-12T08:57:25Z</time></trkpt><trkpt lat="46.256419634832916" lon="11.476285661194321"><ele>1422.0</ele><time>2026-04-12T08:57:27Z</time></trkpt><trkpt lat="46.25649864134919" lon="11.476170283447422"><ele>1416.3333333333333</ele><time>2026-04-12T08:57:29Z</time></trkpt><trkpt lat="46.25658347944927" lon="11.476088875087502"><ele>1410.6666666666667</ele><time>2026-04-12T08:57:31Z</time></trkpt><trkpt lat="46.25664420942595" lon="11.476034259608518"><ele>1405.0</ele><time>2026-04-12T08:57:33Z</time></trkpt><trkpt lat="46.25669060255558" lon="11.475969785281118"><ele>1399.3333333333335</ele><time>2026-04-12T08:57:35Z</time></trkpt><trkpt lat="46.25676018048283" lon="11.475888123199667"><ele>1393.6666666666667</ele><time>2026-04-12T08:57:38Z</time></trkpt><trkpt lat="46.2568204650903" lon="11.4758298322777"><ele>1388.0</ele><time>2026-04-12T08:57:40Z</time></trkpt><trkpt lat="46.256881883276534" lon="11.47576165709509"><ele>1388.0</ele><time>2026-04-12T08:57:44Z</time></trkpt><trkpt lat="46.256952366607464" lon="11.475669851694402"><ele>1388.0</ele><time>2026-04-12T08:57:47Z</time></trkpt><trkpt lat="46.25701998942699" lon="11.475612218974312"><ele>1388.0</ele><time>2026-04-12T08:57:49Z</time></trkpt><trkpt lat="46.2570878270464" lon="11.475565522244048"><ele>1388.0</ele><time>2026-04-12T08:57:52Z</time></trkpt><trkpt lat="46.257178228648584" lon="11.475531675381466"><ele>1388.0</ele><time>2026-04-12T08:57:55Z</time></trkpt><trkpt lat="46.25727172714411" lon="11.475477393233886"><ele>1388.0</ele><time>2026-04-12T08:57:58Z</time></trkpt><trkpt lat="46.25749225031386" lon="11.475362634516324"><ele>1386.2</ele><time>2026-04-12T08:57:59Z</time></trkpt><trkpt lat="46.257556002240676" lon="11.475351940276008"><ele>1384.4</ele><time>2026-04-12T08:58:00Z</time></trkpt><trkpt lat="46.257684311939286" lon="11.475339193757888"><ele>1382.6000000000001</ele><time>2026-04-12T08:58:02Z</time></trkpt><trkpt lat="46.25779873073079" lon="11.47530875127183"><ele>1380.8000000000002</ele><time>2026-04-12T08:58:04Z</time></trkpt><trkpt lat="46.257905065852334" lon="11.475282513685837"><ele>1379.0</ele><time>2026-04-12T08:58:06Z</time></trkpt><trkpt lat="46.25799060755601" lon="11.475236411881898"><ele>1379.0</ele><time>2026-04-12T08:58:08Z</time></trkpt><trkpt lat="46.25806120352355" lon="11.47520835519854"><ele>1379.0</ele><time>2026-04-12T08:58:10Z</time></trkpt><trkpt lat="46.25813430159897" lon="11.475179531041222"><ele>1379.0</ele><time>2026-04-12T08:58:12Z</time></trkpt><trkpt lat="46.258211226855884" lon="11.475159257166567"><ele>1379.0</ele><time>2026-04-12T08:58:14Z</time></trkpt><trkpt lat="46.25827440091681" lon="11.475142466786496"><ele>1379.0</ele><time>2026-04-12T08:58:17Z</time></trkpt><trkpt lat="46.25819039942167" lon="11.475155205009766"><ele>1379.0</ele><time>2026-04-12T08:58:22Z</time></trkpt><trkpt lat="46.25824932483591" lon="11.475116432652568"><ele>1379.0</ele><time>2026-04-12T08:58:25Z</time></trkpt><trkpt lat="46.25831597792267" lon="11.475115277740635"><ele>1374.3333333333335</ele><time>2026-04-12T08:58:35Z</time></trkpt><trkpt lat="46.25838842032752" lon="11.47512547275947"><ele>1369.6666666666667</ele><time>2026-04-12T08:58:50Z</time></trkpt><trkpt lat="46.25846892729895" lon="11.475124740593072"><ele>1365.0</ele><time>2026-04-12T08:59:02Z</time></trkpt><trkpt lat="46.25853760104464" lon="11.475082160528892"><ele>1360.3333333333333</ele><time>2026-04-12T08:59:05Z</time></trkpt><trkpt lat="46.258627222377925" lon="11.475056500926943"><ele>1355.6666666666665</ele><time>2026-04-12T08:59:07Z</time></trkpt><trkpt lat="46.2586860239649" lon="11.475007992232312"><ele>1351.0</ele><time>2026-04-12T08:59:09Z</time></trkpt><trkpt lat="46.25874876238325" lon="11.475016098342923"><ele>1351.0</ele><time>2026-04-12T08:59:11Z</time></trkpt><trkpt lat="46.25884478712062" lon="11.475014195981332"><ele>1351.0</ele><time>2026-04-12T08:59:14Z</time></trkpt><trkpt lat="46.25891465780557" lon="11.475078511758063"><ele>1351.0</ele><time>2026-04-12T08:59:17Z</time></trkpt><trkpt lat="46.25896794545062" lon="11.475133021227274"><ele>1351.0</ele><time>2026-04-12T08:59:20Z</time></trkpt><trkpt lat="46.2590423541044" lon="11.475105913608475"><ele>1351.0</ele><time>2026-04-12T08:59:23Z</time></trkpt><trkpt lat="46.25909340516802" lon="11.47505140341055"><ele>1351.0</ele><time>2026-04-12T08:59:26Z</time></trkpt><trkpt lat="46.25916201204685" lon="11.474942061886894"><ele>1347.8333333333333</ele><time>2026-04-12T09:00:01.999Z</time></trkpt><trkpt lat="46.25914699691725" lon="11.475047553326995"><ele>1344.6666666666665</ele><time>2026-04-12T09:00:52Z</time></trkpt><trkpt lat="46.259222473873024" lon="11.47498711903086"><ele>1341.5</ele><time>2026-04-12T09:01:42Z</time></trkpt><trkpt lat="46.25933033563603" lon="11.474945285476224"><ele>1338.3333333333333</ele><time>2026-04-12T09:01:44Z</time></trkpt><trkpt lat="46.259393264283496" lon="11.474922097350047"><ele>1335.1666666666667</ele><time>2026-04-12T09:01:45Z</time></trkpt><trkpt lat="46.259495315448085" lon="11.474902178972485"><ele>1332.0</ele><time>2026-04-12T09:01:48Z</time></trkpt><trkpt lat="46.25963824915694" lon="11.474887846716548"><ele>1332.0</ele><time>2026-04-12T09:01:50Z</time></trkpt><trkpt lat="46.25973037135187" lon="11.474861647839537"><ele>1332.0</ele><time>2026-04-12T09:01:51Z</time></trkpt><trkpt lat="46.25982310266415" lon="11.474840699576987"><ele>1332.0</ele><time>2026-04-12T09:01:52Z</time></trkpt><trkpt lat="46.2599145098618" lon="11.4748045109194"><ele>1332.0</ele><time>2026-04-12T09:01:53Z</time></trkpt><trkpt lat="46.25998076548198" lon="11.474792175391864"><ele>1332.0</ele><time>2026-04-12T09:01:54Z</time></trkpt><trkpt lat="46.260046538027574" lon="11.474774194605248"><ele>1332.0</ele><time>2026-04-12T09:01:55Z</time></trkpt><trkpt lat="46.26012905697624" lon="11.474758847498007"><ele>1332.1666666666667</ele><time>2026-04-12T09:01:56Z</time></trkpt><trkpt lat="46.26020436447625" lon="11.474731747596625"><ele>1332.3333333333333</ele><time>2026-04-12T09:01:57Z</time></trkpt><trkpt lat="46.26027363105956" lon="11.474692091312185"><ele>1332.5</ele><time>2026-04-12T09:01:58Z</time></trkpt><trkpt lat="46.260338694965526" lon="11.47464853494301"><ele>1332.6666666666665</ele><time>2026-04-12T09:01:59Z</time></trkpt><trkpt lat="46.26040358969132" lon="11.47461424548613"><ele>1332.8333333333333</ele><time>2026-04-12T09:02:00Z</time></trkpt><trkpt lat="46.2604726221458" lon="11.474599175047885"><ele>1333.0</ele><time>2026-04-12T09:02:01Z</time></trkpt><trkpt lat="46.26059717989194" lon="11.4746251269499"><ele>1331.0</ele><time>2026-04-12T09:02:03Z</time></trkpt><trkpt lat="46.26066624711536" lon="11.47463506885896"><ele>1329.0</ele><time>2026-04-12T09:02:04Z</time></trkpt><trkpt lat="46.26075967601011" lon="11.474644672080624"><ele>1327.0</ele><time>2026-04-12T09:02:05Z</time></trkpt><trkpt lat="46.26086683450042" lon="11.474659886664746"><ele>1325.0</ele><time>2026-04-12T09:02:06Z</time></trkpt><trkpt lat="46.260964565206585" lon="11.474659736319758"><ele>1323.0</ele><time>2026-04-12T09:02:07Z</time></trkpt><trkpt lat="46.26104130781512" lon="11.474657228722846"><ele>1321.0</ele><time>2026-04-12T09:02:08Z</time></trkpt><trkpt lat="46.261153461903554" lon="11.474579092312059"><ele>1321.0</ele><time>2026-04-12T09:02:10Z</time></trkpt><trkpt lat="46.261210151867544" lon="11.474523457094755"><ele>1321.0</ele><time>2026-04-12T09:02:11Z</time></trkpt><trkpt lat="46.261318143952835" lon="11.474475337316758"><ele>1321.0</ele><time>2026-04-12T09:02:13Z</time></trkpt><trkpt lat="46.26140043356128" lon="11.474445213661044"><ele>1321.0</ele><time>2026-04-12T09:02:14Z</time></trkpt><trkpt lat="46.26149231106171" lon="11.474380701259584"><ele>1321.0</ele><time>2026-04-12T09:02:15Z</time></trkpt><trkpt lat="46.261579503905985" lon="11.47434186815135"><ele>1317.6</ele><time>2026-04-12T09:02:16Z</time></trkpt><trkpt lat="46.261654856875595" lon="11.474311704337147"><ele>1314.1999999999998</ele><time>2026-04-12T09:02:17Z</time></trkpt><trkpt lat="46.261732685727786" lon="11.474260502213319"><ele>1310.8000000000002</ele><time>2026-04-12T09:02:18Z</time></trkpt><trkpt lat="46.261739882794444" lon="11.474367270769692"><ele>1307.4</ele><time>2026-04-12T09:02:22Z</time></trkpt><trkpt lat="46.26164838465214" lon="11.474486573963635"><ele>1304.0</ele><time>2026-04-12T09:02:23Z</time></trkpt><trkpt lat="46.26152651105129" lon="11.474607161462815"><ele>1303.1666666666667</ele><time>2026-04-12T09:02:24Z</time></trkpt><trkpt lat="46.261429783402576" lon="11.474734972731326"><ele>1302.3333333333335</ele><time>2026-04-12T09:02:25Z</time></trkpt><trkpt lat="46.26139805721683" lon="11.474822552236107"><ele>1301.5</ele><time>2026-04-12T09:02:26Z</time></trkpt><trkpt lat="46.26133418094362" lon="11.474919446084233"><ele>1300.6666666666667</ele><time>2026-04-12T09:02:28Z</time></trkpt><trkpt lat="46.2613594011425" lon="11.475003979568935"><ele>1299.8333333333333</ele><time>2026-04-12T09:02:31Z</time></trkpt><trkpt lat="46.261451654523945" lon="11.475024319707032"><ele>1299.0</ele><time>2026-04-12T09:02:34Z</time></trkpt><trkpt lat="46.26154479461533" lon="11.474991822977715"><ele>1293.8</ele><time>2026-04-12T09:02:36Z</time></trkpt><trkpt lat="46.26164545162873" lon="11.4750103284365"><ele>1288.6000000000001</ele><time>2026-04-12T09:02:38Z</time></trkpt><trkpt lat="46.26175025240742" lon="11.474896662107957"><ele>1283.4</ele><time>2026-04-12T09:02:40Z</time></trkpt><trkpt lat="46.26182788004584" lon="11.47483390555068"><ele>1278.2</ele><time>2026-04-12T09:02:42Z</time></trkpt><trkpt lat="46.26191717837817" lon="11.47482017549822"><ele>1273.0</ele><time>2026-04-12T09:02:44Z</time></trkpt><trkpt lat="46.261985715118065" lon="11.474770529864992"><ele>1273.0</ele><time>2026-04-12T09:02:48Z</time></trkpt><trkpt lat="46.26205081919477" lon="11.474731410549042"><ele>1273.0</ele><time>2026-04-12T09:02:52Z</time></trkpt><trkpt lat="46.2621142292841" lon="11.474752719466856"><ele>1273.0</ele><time>2026-04-12T09:02:54Z</time></trkpt><trkpt lat="46.26203978621501" lon="11.47480934964647"><ele>1273.0</ele><time>2026-04-12T09:03:17Z</time></trkpt><trkpt lat="46.26198057772257" lon="11.474856988447721"><ele>1273.0</ele><time>2026-04-12T09:03:19Z</time></trkpt><trkpt lat="46.261939571339376" lon="11.47501606189588"><ele>1273.0</ele><time>2026-04-12T09:03:21Z</time></trkpt><trkpt lat="46.26194601509304" lon="11.475124285849446"><ele>1273.0</ele><time>2026-04-12T09:03:22Z</time></trkpt><trkpt lat="46.26194903323225" lon="11.47523119578399"><ele>1273.0</ele><time>2026-04-12T09:03:23Z</time></trkpt><trkpt lat="46.261969565819584" lon="11.475329803187043"><ele>1273.0</ele><time>2026-04-12T09:03:24Z</time></trkpt><trkpt lat="46.26201671620712" lon="11.475422313761804"><ele>1273.0</ele><time>2026-04-12T09:03:25Z</time></trkpt><trkpt lat="46.2620805560797" lon="11.475476216772654"><ele>1273.0</ele><time>2026-04-12T09:03:26Z</time></trkpt><trkpt lat="46.262150842575785" lon="11.475568342004168"><ele>1273.0</ele><time>2026-04-12T09:03:27Z</time></trkpt><trkpt lat="46.2622454212793" lon="11.475588411360244"><ele>1272.2</ele><time>2026-04-12T09:03:28Z</time></trkpt><trkpt lat="46.26233715904971" lon="11.475609224158589"><ele>1271.4</ele><time>2026-04-12T09:03:29Z</time></trkpt><trkpt lat="46.26242924809774" lon="11.475643071243574"><ele>1270.6000000000001</ele><time>2026-04-12T09:03:30Z</time></trkpt><trkpt lat="46.262523544634945" lon="11.47567819081629"><ele>1269.8</ele><time>2026-04-12T09:03:31Z</time></trkpt><trkpt lat="46.2626282506183" lon="11.475725395019188"><ele>1269.0</ele><time>2026-04-12T09:03:32Z</time></trkpt><trkpt lat="46.26271830779819" lon="11.475773413560617"><ele>1269.0</ele><time>2026-04-12T09:03:33Z</time></trkpt><trkpt lat="46.26277460674511" lon="11.475852334650973"><ele>1269.0</ele><time>2026-04-12T09:03:34Z</time></trkpt><trkpt lat="46.262875286806015" lon="11.475971827056036"><ele>1269.0</ele><time>2026-04-12T09:03:35Z</time></trkpt><trkpt lat="46.26300768775342" lon="11.476080886586043"><ele>1269.0</ele><time>2026-04-12T09:03:36Z</time></trkpt><trkpt lat="46.26314761249964" lon="11.476159391948427"><ele>1269.6000000000001</ele><time>2026-04-12T09:03:37Z</time></trkpt><trkpt lat="46.263257333285225" lon="11.476242417918442"><ele>1270.2</ele><time>2026-04-12T09:03:38Z</time></trkpt><trkpt lat="46.263326688772906" lon="11.476351097037183"><ele>1270.8000000000002</ele><time>2026-04-12T09:03:39Z</time></trkpt><trkpt lat="46.26338827158784" lon="11.476452716354212"><ele>1271.4</ele><time>2026-04-12T09:03:40Z</time></trkpt><trkpt lat="46.26341603094054" lon="11.476552724557889"><ele>1272.0</ele><time>2026-04-12T09:03:41Z</time></trkpt><trkpt lat="46.26347603938042" lon="11.476622449569437"><ele>1272.0</ele><time>2026-04-12T09:03:44Z</time></trkpt><trkpt lat="46.26349889618655" lon="11.476712040363568"><ele>1272.0</ele><time>2026-04-12T09:03:49Z</time></trkpt><trkpt lat="46.26355158876339" lon="11.476813285221873"><ele>1272.0</ele><time>2026-04-12T09:03:51Z</time></trkpt><trkpt lat="46.26360996908493" lon="11.476998626584953"><ele>1272.0</ele><time>2026-04-12T09:03:53Z</time></trkpt><trkpt lat="46.263642239572754" lon="11.477104401875122"><ele>1272.0</ele><time>2026-04-12T09:03:54Z</time></trkpt><trkpt lat="46.26366787654163" lon="11.477193330024434"><ele>1272.0</ele><time>2026-04-12T09:03:55Z</time></trkpt><trkpt lat="46.26369224892984" lon="11.477331980241692"><ele>1273.5</ele><time>2026-04-12T09:03:57Z</time></trkpt><trkpt lat="46.26370053541856" lon="11.477432537585665"><ele>1275.0</ele><time>2026-04-12T09:04:00Z</time></trkpt><trkpt lat="46.26369505179598" lon="11.477524271229875"><ele>1276.5</ele><time>2026-04-12T09:04:06Z</time></trkpt><trkpt lat="46.26370900758348" lon="11.477617670404"><ele>1278.0</ele><time>2026-04-12T09:04:41Z</time></trkpt><trkpt lat="46.2637490998589" lon="11.477688429239388"><ele>1279.5</ele><time>2026-04-12T09:07:19Z</time></trkpt><trkpt lat="46.26365996175896" lon="11.477815890943027"><ele>1281.0</ele><time>2026-04-12T09:08:27.999Z</time></trkpt><trkpt lat="46.263623220018395" lon="11.477892133127641"><ele>1281.8333333333333</ele><time>2026-04-12T09:08:28.999Z</time></trkpt><trkpt lat="46.26359526587534" lon="11.477988749871809"><ele>1282.6666666666667</ele><time>2026-04-12T09:08:29.999Z</time></trkpt><trkpt lat="46.26357502961039" lon="11.478102663907295"><ele>1283.5</ele><time>2026-04-12T09:08:30.999Z</time></trkpt><trkpt lat="46.26351480270507" lon="11.478211561781805"><ele>1284.3333333333335</ele><time>2026-04-12T09:08:32Z</time></trkpt><trkpt lat="46.263519920542024" lon="11.478346184841511"><ele>1285.1666666666667</ele><time>2026-04-12T09:08:33Z</time></trkpt><trkpt lat="46.26354330708038" lon="11.47848478782481"><ele>1286.0</ele><time>2026-04-12T09:08:34Z</time></trkpt><trkpt lat="46.263576518316384" lon="11.478622481361532"><ele>1286.0</ele><time>2026-04-12T09:08:35Z</time></trkpt><trkpt lat="46.26361852611382" lon="11.47874964414298"><ele>1286.0</ele><time>2026-04-12T09:08:36Z</time></trkpt><trkpt lat="46.263661320057494" lon="11.478869712969065"><ele>1286.0</ele><time>2026-04-12T09:08:37Z</time></trkpt><trkpt lat="46.263704103158105" lon="11.478987697444179"><ele>1286.0</ele><time>2026-04-12T09:08:38Z</time></trkpt><trkpt lat="46.26371433587606" lon="11.479110377492145"><ele>1286.0</ele><time>2026-04-12T09:08:39Z</time></trkpt><trkpt lat="46.26372998909012" lon="11.47921496100417"><ele>1286.0</ele><time>2026-04-12T09:08:40Z</time></trkpt><trkpt lat="46.263750055400266" lon="11.479306979129293"><ele>1285.6666666666667</ele><time>2026-04-12T09:08:41Z</time></trkpt><trkpt lat="46.26379379550814" lon="11.479437953120339"><ele>1285.3333333333335</ele><time>2026-04-12T09:08:43Z</time></trkpt><trkpt lat="46.263846094604915" lon="11.479564323694763"><ele>1285.0</ele><time>2026-04-12T09:08:45Z</time></trkpt><trkpt lat="46.26389131796049" lon="11.479664058228545"><ele>1284.6666666666667</ele><time>2026-04-12T09:08:47Z</time></trkpt><trkpt lat="46.263934532455025" lon="11.479754525948712"><ele>1284.3333333333333</ele><time>2026-04-12T09:08:49Z</time></trkpt><trkpt lat="46.263984961792104" lon="11.479853455563262"><ele>1284.0</ele><time>2026-04-12T09:08:51Z</time></trkpt><trkpt lat="46.26404701843816" lon="11.479945817281491"><ele>1284.0</ele><time>2026-04-12T09:08:53Z</time></trkpt><trkpt lat="46.264134746266414" lon="11.480003891237367"><ele>1284.0</ele><time>2026-04-12T09:08:55Z</time></trkpt><trkpt lat="46.264212454439175" lon="11.480019444235763"><ele>1284.0</ele><time>2026-04-12T09:08:57Z</time></trkpt><trkpt lat="46.26426448151535" lon="11.480117023531061"><ele>1284.0</ele><time>2026-04-12T09:09:02Z</time></trkpt><trkpt lat="46.264312903046985" lon="11.48020759325187"><ele>1284.0</ele><time>2026-04-12T09:09:05Z</time></trkpt><trkpt lat="46.26436301434133" lon="11.480269815737195"><ele>1284.0</ele><time>2026-04-12T09:09:42Z</time></trkpt><trkpt lat="46.26441227409118" lon="11.480343923791844"><ele>1284.0</ele><time>2026-04-12T09:09:50Z</time></trkpt><trkpt lat="46.26445668962909" lon="11.48041821775628"><ele>1284.0</ele><time>2026-04-12T09:09:56Z</time></trkpt><trkpt lat="46.26450463134496" lon="11.480480948614723"><ele>1284.0</ele><time>2026-04-12T09:10:03Z</time></trkpt><trkpt lat="46.26455389402026" lon="11.480538219328677"><ele>1284.0</ele><time>2026-04-12T09:10:10Z</time></trkpt><trkpt lat="46.26463061710324" lon="11.480525877094125"><ele>1284.0</ele><time>2026-04-12T09:10:21Z</time></trkpt><trkpt lat="46.26470794144773" lon="11.480543717749415"><ele>1284.0</ele><time>2026-04-12T09:10:27.999Z</time></trkpt><trkpt lat="46.264809549393824" lon="11.480573877252418"><ele>1284.6666666666667</ele><time>2026-04-12T09:10:30.999Z</time></trkpt><trkpt lat="46.26470198998242" lon="11.480595469353778"><ele>1285.3333333333335</ele><time>2026-04-12T09:10:34.999Z</time></trkpt><trkpt lat="46.264624860491246" lon="11.480746650378668"><ele>1286.0</ele><time>2026-04-12T09:10:48.883Z</time></trkpt><trkpt lat="46.26486870248432" lon="11.480706797371296"><ele>1286.0</ele><time>2026-04-12T09:12:57.014Z</time></trkpt><trkpt lat="46.26480742454424" lon="11.480663534766455"><ele>1286.0</ele><time>2026-04-12T09:12:59.017Z</time></trkpt><trkpt lat="46.264780864317785" lon="11.480763763246914"><ele>1286.0</ele><time>2026-04-12T09:13:44Z</time></trkpt><trkpt lat="46.26467572965164" lon="11.480787240550589"><ele>1286.0</ele><time>2026-04-12T09:13:49Z</time></trkpt><trkpt lat="46.264705126868215" lon="11.48098949727899"><ele>1286.0</ele><time>2026-04-12T09:14:13Z</time></trkpt><trkpt lat="46.264735793071424" lon="11.481082086858915"><ele>1286.0</ele><time>2026-04-12T09:14:18Z</time></trkpt><trkpt lat="46.26476205674498" lon="11.480987641190868"><ele>1286.0</ele><time>2026-04-12T09:14:24Z</time></trkpt><trkpt lat="46.26480710964738" lon="11.481057632256642"><ele>1286.0</ele><time>2026-04-12T09:14:34Z</time></trkpt><trkpt lat="46.26459967367264" lon="11.480752428922449"><ele>1286.0</ele><time>2026-04-12T09:15:10.095Z</time></trkpt><trkpt lat="46.26464300689268" lon="11.480559044633514"><ele>1286.0</ele><time>2026-04-12T09:20:43.013Z</time></trkpt><trkpt lat="46.26456179175944" lon="11.480471122722124"><ele>1286.0</ele><time>2026-04-12T09:24:08Z</time></trkpt><trkpt lat="46.26449609451505" lon="11.48043460471415"><ele>1286.0</ele><time>2026-04-12T09:24:12Z</time></trkpt><trkpt lat="46.26443770585387" lon="11.480361244168417"><ele>1286.0</ele><time>2026-04-12T09:24:17Z</time></trkpt><trkpt lat="46.26438728851704" lon="11.480303242228286"><ele>1286.0</ele><time>2026-04-12T09:24:20Z</time></trkpt><trkpt lat="46.264338825549544" lon="11.480233132311122"><ele>1286.0</ele><time>2026-04-12T09:24:27.999Z</time></trkpt><trkpt lat="46.264281083038505" lon="11.480290032108472"><ele>1285.6</ele><time>2026-04-12T09:25:10Z</time></trkpt><trkpt lat="46.26428043075387" lon="11.48016891148167"><ele>1285.1999999999998</ele><time>2026-04-12T09:25:13Z</time></trkpt><trkpt lat="46.26424806173989" lon="11.480081990745704"><ele>1284.8000000000002</ele><time>2026-04-12T09:25:16Z</time></trkpt><trkpt lat="46.26435413293811" lon="11.480065222358744"><ele>1284.4</ele><time>2026-04-12T09:25:19Z</time></trkpt><trkpt lat="46.264472830671515" lon="11.480083365858723"><ele>1284.0</ele><time>2026-04-12T09:25:21Z</time></trkpt><trkpt lat="46.264562934849934" lon="11.4800721399909"><ele>1284.0</ele><time>2026-04-12T09:25:22Z</time></trkpt><trkpt lat="46.26466406306404" lon="11.480066274955128"><ele>1284.0</ele><time>2026-04-12T09:25:23Z</time></trkpt><trkpt lat="46.26475905434845" lon="11.48008519342674"><ele>1284.0</ele><time>2026-04-12T09:25:24Z</time></trkpt><trkpt lat="46.26481898146659" lon="11.48013086305181"><ele>1284.0</ele><time>2026-04-12T09:25:25Z</time></trkpt><trkpt lat="46.26487300216199" lon="11.480198961468465"><ele>1284.0</ele><time>2026-04-12T09:25:27Z</time></trkpt><trkpt lat="46.26495008500624" lon="11.480245483659994"><ele>1284.0</ele><time>2026-04-12T09:25:30Z</time></trkpt><trkpt lat="46.26500663418773" lon="11.480300383173072"><ele>1282.5714285714284</ele><time>2026-04-12T09:25:35Z</time></trkpt><trkpt lat="46.265065038767624" lon="11.480345631191604"><ele>1281.142857142857</ele><time>2026-04-12T09:25:44Z</time></trkpt><trkpt lat="46.26512233990513" lon="11.480425955528778"><ele>1279.7142857142858</ele><time>2026-04-12T09:25:48Z</time></trkpt><trkpt lat="46.26517108763021" lon="11.4804922940765"><ele>1278.2857142857142</ele><time>2026-04-12T09:25:52Z</time></trkpt><trkpt lat="46.2652720959977" lon="11.480456257156362"><ele>1276.857142857143</ele><time>2026-04-12T09:25:56Z</time></trkpt><trkpt lat="46.26532471073914" lon="11.48039282737702"><ele>1275.4285714285713</ele><time>2026-04-12T09:25:59Z</time></trkpt><trkpt lat="46.26536574812813" lon="11.480322110238616"><ele>1274.0</ele><time>2026-04-12T09:26:01Z</time></trkpt><trkpt lat="46.26545615931696" lon="11.480259338031484"><ele>1271.8</ele><time>2026-04-12T09:26:39.999Z</time></trkpt><trkpt lat="46.26554305347217" lon="11.480200503277905"><ele>1269.6000000000001</ele><time>2026-04-12T09:26:41.999Z</time></trkpt><trkpt lat="46.26561322214892" lon="11.48017705027473"><ele>1267.4</ele><time>2026-04-12T09:26:43.999Z</time></trkpt><trkpt lat="46.26573701309035" lon="11.480143191598648"><ele>1265.2</ele><time>2026-04-12T09:26:45.999Z</time></trkpt><trkpt lat="46.26584127763838" lon="11.480069575806171"><ele>1263.0</ele><time>2026-04-12T09:26:47.999Z</time></trkpt><trkpt lat="46.26593341427491" lon="11.480008824677308"><ele>1260.2</ele><time>2026-04-12T09:26:49.999Z</time></trkpt><trkpt lat="46.26604321777142" lon="11.479925371044795"><ele>1257.4</ele><time>2026-04-12T09:26:51.999Z</time></trkpt><trkpt lat="46.26611016826943" lon="11.479903525991304"><ele>1254.6000000000001</ele><time>2026-04-12T09:26:52.999Z</time></trkpt><trkpt lat="46.26617279439952" lon="11.479879957048434"><ele>1251.8</ele><time>2026-04-12T09:26:53.999Z</time></trkpt><trkpt lat="46.26626268304272" lon="11.479792434470143"><ele>1249.0</ele><time>2026-04-12T09:26:55.999Z</time></trkpt><trkpt lat="46.26635814426841" lon="11.479772411267632"><ele>1245.0</ele><time>2026-04-12T09:26:57.999Z</time></trkpt><trkpt lat="46.26645315596815" lon="11.479715883589016"><ele>1241.0</ele><time>2026-04-12T09:26:59.999Z</time></trkpt><trkpt lat="46.26656188537157" lon="11.479664535906615"><ele>1237.0</ele><time>2026-04-12T09:27:01.999Z</time></trkpt><trkpt lat="46.26663238925415" lon="11.479660948585373"><ele>1233.0</ele><time>2026-04-12T09:27:02.999Z</time></trkpt><trkpt lat="46.26670260393488" lon="11.479640652736242"><ele>1229.0</ele><time>2026-04-12T09:27:03.999Z</time></trkpt><trkpt lat="46.266827178851905" lon="11.479579642569387"><ele>1226.5</ele><time>2026-04-12T09:27:06Z</time></trkpt><trkpt lat="46.266909524129076" lon="11.479547957393583"><ele>1224.0</ele><time>2026-04-12T09:27:07Z</time></trkpt><trkpt lat="46.26699582824179" lon="11.479522566437034"><ele>1221.5</ele><time>2026-04-12T09:27:08Z</time></trkpt><trkpt lat="46.267090707836324" lon="11.479494543374333"><ele>1219.0</ele><time>2026-04-12T09:27:09Z</time></trkpt><trkpt lat="46.267169688676454" lon="11.47946139850953"><ele>1216.5</ele><time>2026-04-12T09:27:10Z</time></trkpt><trkpt lat="46.267230168455434" lon="11.47943452985256"><ele>1214.0</ele><time>2026-04-12T09:27:11Z</time></trkpt><trkpt lat="46.267326608979026" lon="11.479366265306995"><ele>1210.8</ele><time>2026-04-12T09:27:13Z</time></trkpt><trkpt lat="46.267411477597875" lon="11.479319562352526"><ele>1207.6000000000001</ele><time>2026-04-12T09:27:15Z</time></trkpt><trkpt lat="46.26748547671896" lon="11.479284053230597"><ele>1204.4</ele><time>2026-04-12T09:27:18Z</time></trkpt><trkpt lat="46.26754400550761" lon="11.479248653115528"><ele>1201.2</ele><time>2026-04-12T09:27:25Z</time></trkpt><trkpt lat="46.267690842218606" lon="11.47913104324373"><ele>1198.0</ele><time>2026-04-12T09:27:34Z</time></trkpt><trkpt lat="46.26776424750712" lon="11.479089518444514"><ele>1198.0</ele><time>2026-04-12T09:27:35Z</time></trkpt><trkpt lat="46.26785542301005" lon="11.479019934559911"><ele>1198.0</ele><time>2026-04-12T09:27:37Z</time></trkpt><trkpt lat="46.26797220366646" lon="11.478964237833837"><ele>1198.0</ele><time>2026-04-12T09:27:39Z</time></trkpt><trkpt lat="46.26805917676663" lon="11.478962318375482"><ele>1198.0</ele><time>2026-04-12T09:27:40Z</time></trkpt><trkpt lat="46.26812891395967" lon="11.478947816199703"><ele>1198.0</ele><time>2026-04-12T09:27:41Z</time></trkpt><trkpt lat="46.26820369455565" lon="11.478917550834764"><ele>1197.1666666666665</ele><time>2026-04-12T09:27:42Z</time></trkpt><trkpt lat="46.26827945605958" lon="11.478875567641955"><ele>1196.3333333333333</ele><time>2026-04-12T09:27:43Z</time></trkpt><trkpt lat="46.26835066932636" lon="11.478833227705039"><ele>1195.5</ele><time>2026-04-12T09:27:44Z</time></trkpt><trkpt lat="46.268422191538626" lon="11.478789784143233"><ele>1194.6666666666667</ele><time>2026-04-12T09:27:45Z</time></trkpt><trkpt lat="46.26848972476443" lon="11.478756064477436"><ele>1193.8333333333335</ele><time>2026-04-12T09:27:46Z</time></trkpt><trkpt lat="46.26859375540187" lon="11.478699115453862"><ele>1193.0</ele><time>2026-04-12T09:27:48Z</time></trkpt><trkpt lat="46.26869277438369" lon="11.478638200487522"><ele>1188.6666666666667</ele><time>2026-04-12T09:27:50Z</time></trkpt><trkpt lat="46.26878930429562" lon="11.478598701953292"><ele>1184.3333333333335</ele><time>2026-04-12T09:27:52Z</time></trkpt><trkpt lat="46.26886754725372" lon="11.478613042063307"><ele>1180.0</ele><time>2026-04-12T09:27:56Z</time></trkpt><trkpt lat="46.268928593873476" lon="11.478581050307424"><ele>1175.6666666666667</ele><time>2026-04-12T09:28:00Z</time></trkpt><trkpt lat="46.26901162520755" lon="11.47857215114724"><ele>1171.3333333333333</ele><time>2026-04-12T09:28:03Z</time></trkpt><trkpt lat="46.26907077529876" lon="11.478624898361018"><ele>1167.0</ele><time>2026-04-12T09:28:11Z</time></trkpt><trkpt lat="46.26909243526583" lon="11.47873528255225"><ele>1168.4</ele><time>2026-04-12T09:28:14Z</time></trkpt><trkpt lat="46.26909584672466" lon="11.478845639496466"><ele>1169.8000000000002</ele><time>2026-04-12T09:28:16Z</time></trkpt><trkpt lat="46.26918477225137" lon="11.478987325572513"><ele>1171.2</ele><time>2026-04-12T09:28:18Z</time></trkpt><trkpt lat="46.269246012950646" lon="11.479066514264684"><ele>1172.6000000000001</ele><time>2026-04-12T09:28:19Z</time></trkpt><trkpt lat="46.26930929112484" lon="11.479138420479119"><ele>1174.0</ele><time>2026-04-12T09:28:20Z</time></trkpt><trkpt lat="46.26938045336814" lon="11.479222278229624"><ele>1174.0</ele><time>2026-04-12T09:28:21Z</time></trkpt><trkpt lat="46.269448116440905" lon="11.479316119049033"><ele>1174.0</ele><time>2026-04-12T09:28:22Z</time></trkpt><trkpt lat="46.26952140459831" lon="11.479412186726801"><ele>1174.0</ele><time>2026-04-12T09:28:23Z</time></trkpt><trkpt lat="46.269594143793825" lon="11.479502305209815"><ele>1174.0</ele><time>2026-04-12T09:28:24Z</time></trkpt><trkpt lat="46.26965881462158" lon="11.479567237584694"><ele>1174.0</ele><time>2026-04-12T09:28:25Z</time></trkpt><trkpt lat="46.26973931710036" lon="11.479655648457058"><ele>1175.2</ele><time>2026-04-12T09:28:26Z</time></trkpt><trkpt lat="46.26982352783177" lon="11.47974531419373"><ele>1176.4</ele><time>2026-04-12T09:28:27Z</time></trkpt><trkpt lat="46.26991079791492" lon="11.479828722779258"><ele>1177.6</ele><time>2026-04-12T09:28:28Z</time></trkpt><trkpt lat="46.26998621559469" lon="11.479920995598949"><ele>1178.8</ele><time>2026-04-12T09:28:29Z</time></trkpt><trkpt lat="46.27004618787937" lon="11.480032349890028"><ele>1180.0</ele><time>2026-04-12T09:28:30Z</time></trkpt><trkpt lat="46.27009916555923" lon="11.480162939134129"><ele>1180.0</ele><time>2026-04-12T09:28:31Z</time></trkpt><trkpt lat="46.27013708302518" lon="11.480317804261057"><ele>1180.0</ele><time>2026-04-12T09:28:32Z</time></trkpt><trkpt lat="46.27015663260631" lon="11.480503641172144"><ele>1180.0</ele><time>2026-04-12T09:28:33Z</time></trkpt><trkpt lat="46.27016441662385" lon="11.480718825339947"><ele>1180.0</ele><time>2026-04-12T09:28:34Z</time></trkpt><trkpt lat="46.27016831271218" lon="11.48096448832342"><ele>1185.5</ele><time>2026-04-12T09:28:35Z</time></trkpt><trkpt lat="46.27018992830586" lon="11.481199233060979"><ele>1191.0</ele><time>2026-04-12T09:28:36Z</time></trkpt><trkpt lat="46.27021686517432" lon="11.481416877430041"><ele>1196.5</ele><time>2026-04-12T09:28:37Z</time></trkpt><trkpt lat="46.270230610816355" lon="11.481582990440701"><ele>1202.0</ele><time>2026-04-12T09:28:38Z</time></trkpt><trkpt lat="46.27023296283927" lon="11.48167909468049"><ele>1203.6666666666667</ele><time>2026-04-12T09:28:39Z</time></trkpt><trkpt lat="46.270235696688395" lon="11.481842617002373"><ele>1205.3333333333335</ele><time>2026-04-12T09:28:40.999Z</time></trkpt><trkpt lat="46.27023934001493" lon="11.481949484073462"><ele>1207.0</ele><time>2026-04-12T09:28:41.999Z</time></trkpt><trkpt lat="46.270259490836665" lon="11.48210755968319"><ele>1208.6666666666667</ele><time>2026-04-12T09:28:43.999Z</time></trkpt><trkpt lat="46.27029775584988" lon="11.482184523006111"><ele>1210.3333333333333</ele><time>2026-04-12T09:28:45.999Z</time></trkpt><trkpt lat="46.27032349047097" lon="11.482285535919061"><ele>1212.0</ele><time>2026-04-12T09:28:50.999Z</time></trkpt><trkpt lat="46.270286247086034" lon="11.482382987138111"><ele>1212.0</ele><time>2026-04-12T09:29:44Z</time></trkpt><trkpt lat="46.270243001265364" lon="11.482269956300474"><ele>1212.0</ele><time>2026-04-12T09:29:47Z</time></trkpt><trkpt lat="46.27028641389264" lon="11.482142881050352"><ele>1212.0</ele><time>2026-04-12T09:29:49Z</time></trkpt><trkpt lat="46.270277756497585" lon="11.481965681980618"><ele>1212.0</ele><time>2026-04-12T09:29:51Z</time></trkpt><trkpt lat="46.27026463727113" lon="11.481858383726767"><ele>1212.0</ele><time>2026-04-12T09:29:52Z</time></trkpt><trkpt lat="46.27026311906674" lon="11.48175620469583"><ele>1212.4</ele><time>2026-04-12T09:29:53Z</time></trkpt><trkpt lat="46.27026261892299" lon="11.48165194296251"><ele>1212.8000000000002</ele><time>2026-04-12T09:29:54Z</time></trkpt><trkpt lat="46.27026129604203" lon="11.481526791330829"><ele>1213.2</ele><time>2026-04-12T09:29:55Z</time></trkpt><trkpt lat="46.27025612324002" lon="11.481367105617176"><ele>1213.6000000000001</ele><time>2026-04-12T09:29:56Z</time></trkpt><trkpt lat="46.270249404659964" lon="11.481222456387806"><ele>1214.0</ele><time>2026-04-12T09:29:57Z</time></trkpt><trkpt lat="46.27025067299528" lon="11.481100327701204"><ele>1212.0</ele><time>2026-04-12T09:29:58Z</time></trkpt><trkpt lat="46.270244583810815" lon="11.480994745893856"><ele>1210.0</ele><time>2026-04-12T09:29:59Z</time></trkpt><trkpt lat="46.270237140931144" lon="11.4808746540744"><ele>1208.0</ele><time>2026-04-12T09:30:00Z</time></trkpt><trkpt lat="46.270216060169474" lon="11.480750850212997"><ele>1206.0</ele><time>2026-04-12T09:30:01Z</time></trkpt><trkpt lat="46.270196534828024" lon="11.480663666358627"><ele>1204.0</ele><time>2026-04-12T09:30:02Z</time></trkpt><trkpt lat="46.27015380037833" lon="11.480481353705434"><ele>1202.0</ele><time>2026-04-12T09:30:04Z</time></trkpt><trkpt lat="46.27013531855964" lon="11.480378132403235"><ele>1197.6</ele><time>2026-04-12T09:30:05Z</time></trkpt><trkpt lat="46.270118077914944" lon="11.48027784225718"><ele>1193.2</ele><time>2026-04-12T09:30:06Z</time></trkpt><trkpt lat="46.27010522948421" lon="11.480181642378259"><ele>1188.8</ele><time>2026-04-12T09:30:07Z</time></trkpt><trkpt lat="46.27007123725877" lon="11.480025723090932"><ele>1184.4</ele><time>2026-04-12T09:30:09Z</time></trkpt><trkpt lat="46.270013612692644" lon="11.479915768890912"><ele>1180.0</ele><time>2026-04-12T09:30:11Z</time></trkpt><trkpt lat="46.269903979532195" lon="11.479808185753564"><ele>1180.0</ele><time>2026-04-12T09:30:13Z</time></trkpt><trkpt lat="46.26982780957804" lon="11.479748689314693"><ele>1180.0</ele><time>2026-04-12T09:30:14Z</time></trkpt><trkpt lat="46.269753942733296" lon="11.479683807446143"><ele>1180.0</ele><time>2026-04-12T09:30:15Z</time></trkpt><trkpt lat="46.269676655693345" lon="11.479622685555976"><ele>1180.0</ele><time>2026-04-12T09:30:16Z</time></trkpt><trkpt lat="46.26960017937385" lon="11.479553011948251"><ele>1180.0</ele><time>2026-04-12T09:30:17Z</time></trkpt><trkpt lat="46.26954004085716" lon="11.47948662477021"><ele>1180.0</ele><time>2026-04-12T09:30:18Z</time></trkpt><trkpt lat="46.26948362269695" lon="11.479411332583373"><ele>1178.8</ele><time>2026-04-12T09:30:19Z</time></trkpt><trkpt lat="46.2694232285952" lon="11.479315067528061"><ele>1177.6</ele><time>2026-04-12T09:30:20Z</time></trkpt><trkpt lat="46.269356275957875" lon="11.479226846459435"><ele>1176.4</ele><time>2026-04-12T09:30:21Z</time></trkpt><trkpt lat="46.26928037772773" lon="11.47911587346663"><ele>1175.2</ele><time>2026-04-12T09:30:22Z</time></trkpt><trkpt lat="46.26919304709931" lon="11.478995078982662"><ele>1174.0</ele><time>2026-04-12T09:30:23Z</time></trkpt><trkpt lat="46.26912281363897" lon="11.478901042410515"><ele>1174.0</ele><time>2026-04-12T09:30:24Z</time></trkpt><trkpt lat="46.26906509166199" lon="11.478836045782934"><ele>1174.0</ele><time>2026-04-12T09:30:25Z</time></trkpt><trkpt lat="46.269019150377076" lon="11.478707720012206"><ele>1174.0</ele><time>2026-04-12T09:30:27Z</time></trkpt><trkpt lat="46.2690602910946" lon="11.478611190455137"><ele>1174.0</ele><time>2026-04-12T09:30:30Z</time></trkpt><trkpt lat="46.26914166732889" lon="11.478605168414644"><ele>1174.0</ele><time>2026-04-12T09:30:32Z</time></trkpt><trkpt lat="46.269214786366454" lon="11.478635408823957"><ele>1174.0</ele><time>2026-04-12T09:30:33Z</time></trkpt><trkpt lat="46.269305606772505" lon="11.478679856711027"><ele>1174.0</ele><time>2026-04-12T09:30:34Z</time></trkpt><trkpt lat="46.26942248964378" lon="11.478724667193646"><ele>1174.0</ele><time>2026-04-12T09:30:35Z</time></trkpt><trkpt lat="46.2695411190392" lon="11.478767226520956"><ele>1174.0</ele><time>2026-04-12T09:30:36Z</time></trkpt><trkpt lat="46.269672807278035" lon="11.478819081423701"><ele>1174.0</ele><time>2026-04-12T09:30:37Z</time></trkpt><trkpt lat="46.269813631934774" lon="11.478880557215835"><ele>1168.25</ele><time>2026-04-12T09:30:38Z</time></trkpt><trkpt lat="46.26995050167729" lon="11.47894615427719"><ele>1162.5</ele><time>2026-04-12T09:30:39Z</time></trkpt><trkpt lat="46.27007772027971" lon="11.479019330130908"><ele>1156.75</ele><time>2026-04-12T09:30:39.999Z</time></trkpt><trkpt lat="46.27020194601317" lon="11.479092361414349"><ele>1151.0</ele><time>2026-04-12T09:30:40.999Z</time></trkpt><trkpt lat="46.27032994305619" lon="11.479149685746934"><ele>1151.0</ele><time>2026-04-12T09:30:41.999Z</time></trkpt><trkpt lat="46.27046950141528" lon="11.47920870689351"><ele>1151.0</ele><time>2026-04-12T09:30:42.999Z</time></trkpt><trkpt lat="46.270609273103005" lon="11.479265949458766"><ele>1151.0</ele><time>2026-04-12T09:30:43.999Z</time></trkpt><trkpt lat="46.27074585928091" lon="11.479317305985537"><ele>1151.0</ele><time>2026-04-12T09:30:44.999Z</time></trkpt><trkpt lat="46.27086884156452" lon="11.479368502603599"><ele>1150.0</ele><time>2026-04-12T09:30:45.999Z</time></trkpt><trkpt lat="46.270972280334504" lon="11.47941576251212"><ele>1149.0</ele><time>2026-04-12T09:30:46.999Z</time></trkpt><trkpt lat="46.27105146663686" lon="11.479461811138947"><ele>1148.0</ele><time>2026-04-12T09:30:47.999Z</time></trkpt><trkpt lat="46.27111710989649" lon="11.47951466765493"><ele>1147.0</ele><time>2026-04-12T09:30:48.999Z</time></trkpt><trkpt lat="46.27120483388482" lon="11.479604495675682"><ele>1146.0</ele><time>2026-04-12T09:30:50.999Z</time></trkpt><trkpt lat="46.27126593590261" lon="11.479713232075358"><ele>1146.0</ele><time>2026-04-12T09:30:52.999Z</time></trkpt><trkpt lat="46.27132685666254" lon="11.479673372641345"><ele>1146.0</ele><time>2026-04-12T09:30:55.999Z</time></trkpt><trkpt lat="46.27130602518118" lon="11.479572784850014"><ele>1146.0</ele><time>2026-04-12T09:30:58.999Z</time></trkpt><trkpt lat="46.27121917391582" lon="11.479427965929645"><ele>1146.0</ele><time>2026-04-12T09:31:00.999Z</time></trkpt><trkpt lat="46.271173251273865" lon="11.479333557424505"><ele>1146.0</ele><time>2026-04-12T09:31:01.999Z</time></trkpt><trkpt lat="46.271116069865506" lon="11.47922754242224"><ele>1146.0</ele><time>2026-04-12T09:31:02.999Z</time></trkpt><trkpt lat="46.27104378113941" lon="11.47913039210393"><ele>1142.3999999999999</ele><time>2026-04-12T09:31:03.999Z</time></trkpt><trkpt lat="46.27096705375914" lon="11.479053130706088"><ele>1138.8</ele><time>2026-04-12T09:31:04.999Z</time></trkpt><trkpt lat="46.27088741272659" lon="11.478993501183291"><ele>1135.1999999999998</ele><time>2026-04-12T09:31:05.999Z</time></trkpt><trkpt lat="46.27079654977154" lon="11.478931891955346"><ele>1131.6</ele><time>2026-04-12T09:31:06.999Z</time></trkpt><trkpt lat="46.27069976978207" lon="11.478861591872139"><ele>1128.0</ele><time>2026-04-12T09:31:07.999Z</time></trkpt><trkpt lat="46.27061202063072" lon="11.478799232615554"><ele>1127.1666666666667</ele><time>2026-04-12T09:31:08.999Z</time></trkpt><trkpt lat="46.27053643503416" lon="11.478754016338627"><ele>1126.3333333333333</ele><time>2026-04-12T09:31:09.999Z</time></trkpt><trkpt lat="46.2704629180702" lon="11.47873133520283"><ele>1125.5</ele><time>2026-04-12T09:31:10.999Z</time></trkpt><trkpt lat="46.270376555134895" lon="11.478702817534314"><ele>1124.6666666666665</ele><time>2026-04-12T09:31:11.999Z</time></trkpt><trkpt lat="46.27030058145459" lon="11.478656838837829"><ele>1123.8333333333333</ele><time>2026-04-12T09:31:12.999Z</time></trkpt><trkpt lat="46.27022746607145" lon="11.478578609141676"><ele>1123.0</ele><time>2026-04-12T09:31:13.999Z</time></trkpt><trkpt lat="46.2701729558642" lon="11.47851321657866"><ele>1123.0</ele><time>2026-04-12T09:31:14.999Z</time></trkpt><trkpt lat="46.27013130135266" lon="11.478368677653073"><ele>1123.0</ele><time>2026-04-12T09:31:16.999Z</time></trkpt><trkpt lat="46.270052127877356" lon="11.47825210599971"><ele>1123.0</ele><time>2026-04-12T09:31:19Z</time></trkpt><trkpt lat="46.269969697082" lon="11.478184752772602"><ele>1123.0</ele><time>2026-04-12T09:31:20Z</time></trkpt><trkpt lat="46.26989591333597" lon="11.478128481375075"><ele>1123.0</ele><time>2026-04-12T09:31:21Z</time></trkpt><trkpt lat="46.2698239238219" lon="11.478049612349725"><ele>1123.0</ele><time>2026-04-12T09:31:23Z</time></trkpt><trkpt lat="46.26988746039874" lon="11.478006041551803"><ele>1123.0</ele><time>2026-04-12T09:31:26Z</time></trkpt><trkpt lat="46.269987186434626" lon="11.478050904379263"><ele>1123.0</ele><time>2026-04-12T09:31:28Z</time></trkpt><trkpt lat="46.27007118315138" lon="11.47800278694166"><ele>1123.0</ele><time>2026-04-12T09:31:30Z</time></trkpt><trkpt lat="46.270140255115685" lon="11.477968857657944"><ele>1123.0</ele><time>2026-04-12T09:31:31Z</time></trkpt><trkpt lat="46.27020988124204" lon="11.47796820563317"><ele>1123.0</ele><time>2026-04-12T09:31:32Z</time></trkpt><trkpt lat="46.270305406421635" lon="11.477949128275469"><ele>1120.3333333333333</ele><time>2026-04-12T09:31:34Z</time></trkpt><trkpt lat="46.27041569935475" lon="11.477889086658527"><ele>1117.6666666666665</ele><time>2026-04-12T09:31:36Z</time></trkpt><trkpt lat="46.27048015908859" lon="11.47785593453822"><ele>1115.0</ele><time>2026-04-12T09:31:37Z</time></trkpt><trkpt lat="46.27055777979403" lon="11.477837562945664"><ele>1112.3333333333333</ele><time>2026-04-12T09:31:38Z</time></trkpt><trkpt lat="46.27063595253087" lon="11.477809901983067"><ele>1109.6666666666667</ele><time>2026-04-12T09:31:39Z</time></trkpt><trkpt lat="46.27071304812774" lon="11.477772268567163"><ele>1107.0</ele><time>2026-04-12T09:31:40Z</time></trkpt><trkpt lat="46.27078546538908" lon="11.477731364883258"><ele>1102.4</ele><time>2026-04-12T09:31:41Z</time></trkpt><trkpt lat="46.2708439873246" lon="11.477696592010536"><ele>1097.8000000000002</ele><time>2026-04-12T09:31:42Z</time></trkpt><trkpt lat="46.27095658114746" lon="11.477624760439598"><ele>1093.2</ele><time>2026-04-12T09:31:44Z</time></trkpt><trkpt lat="46.27107232796528" lon="11.47753753119564"><ele>1088.6000000000001</ele><time>2026-04-12T09:31:46Z</time></trkpt><trkpt lat="46.27113247913038" lon="11.477505355013642"><ele>1084.0</ele><time>2026-04-12T09:31:47Z</time></trkpt><trkpt lat="46.27119847603937" lon="11.477474643424967"><ele>1084.0</ele><time>2026-04-12T09:31:49Z</time></trkpt><trkpt lat="46.27125288493992" lon="11.477382672935958"><ele>1084.0</ele><time>2026-04-12T09:31:51Z</time></trkpt><trkpt lat="46.271301001617324" lon="11.477321857756356"><ele>1084.0</ele><time>2026-04-12T09:31:52Z</time></trkpt><trkpt lat="46.271367081480044" lon="11.477283283160055"><ele>1084.0</ele><time>2026-04-12T09:31:53Z</time></trkpt><trkpt lat="46.27145284549443" lon="11.477265897956688"><ele>1084.0</ele><time>2026-04-12T09:31:54Z</time></trkpt><trkpt lat="46.2715625406136" lon="11.477238721807007"><ele>1084.0</ele><time>2026-04-12T09:31:55Z</time></trkpt><trkpt lat="46.27165542741163" lon="11.47719701857815"><ele>1082.3333333333333</ele><time>2026-04-12T09:31:56Z</time></trkpt><trkpt lat="46.27173657978026" lon="11.477133410363226"><ele>1080.6666666666665</ele><time>2026-04-12T09:31:57Z</time></trkpt><trkpt lat="46.27180408054048" lon="11.47708311922494"><ele>1079.0</ele><time>2026-04-12T09:31:58Z</time></trkpt><trkpt lat="46.271868315193885" lon="11.477049004186638"><ele>1077.3333333333333</ele><time>2026-04-12T09:31:59Z</time></trkpt><trkpt lat="46.271943930715416" lon="11.477027133700943"><ele>1075.6666666666667</ele><time>2026-04-12T09:32:00Z</time></trkpt><trkpt lat="46.27205522467204" lon="11.47700597955914"><ele>1074.0</ele><time>2026-04-12T09:32:01Z</time></trkpt><trkpt lat="46.27217835285138" lon="11.476999678902862"><ele>1067.25</ele><time>2026-04-12T09:32:02Z</time></trkpt><trkpt lat="46.2722975206472" lon="11.476985786732076"><ele>1060.5</ele><time>2026-04-12T09:32:03Z</time></trkpt><trkpt lat="46.27242762234382" lon="11.476960239816407"><ele>1053.75</ele><time>2026-04-12T09:32:04Z</time></trkpt><trkpt lat="46.27257241435306" lon="11.476923066428084"><ele>1047.0</ele><time>2026-04-12T09:32:05Z</time></trkpt><trkpt lat="46.27270891533949" lon="11.476899556175107"><ele>1047.0</ele><time>2026-04-12T09:32:06Z</time></trkpt><trkpt lat="46.27281574362739" lon="11.476862659953989"><ele>1047.0</ele><time>2026-04-12T09:32:07Z</time></trkpt><trkpt lat="46.27290288777752" lon="11.476830245412211"><ele>1047.0</ele><time>2026-04-12T09:32:08Z</time></trkpt><trkpt lat="46.2730027136253" lon="11.476795407671805"><ele>1047.0</ele><time>2026-04-12T09:32:10Z</time></trkpt><trkpt lat="46.27309485752942" lon="11.476730470290521"><ele>1047.0</ele><time>2026-04-12T09:32:12Z</time></trkpt><trkpt lat="46.273220392856686" lon="11.476632438468586"><ele>1045.8333333333333</ele><time>2026-04-12T09:32:14Z</time></trkpt><trkpt lat="46.27329104677175" lon="11.476561843380436"><ele>1044.6666666666667</ele><time>2026-04-12T09:32:15Z</time></trkpt><trkpt lat="46.273361811055274" lon="11.476474466320171"><ele>1043.5</ele><time>2026-04-12T09:32:16Z</time></trkpt><trkpt lat="46.273432970901176" lon="11.476375503490148"><ele>1042.3333333333335</ele><time>2026-04-12T09:32:17Z</time></trkpt><trkpt lat="46.27348991031289" lon="11.476282550422642"><ele>1041.1666666666667</ele><time>2026-04-12T09:32:18Z</time></trkpt><trkpt lat="46.27353488456221" lon="11.476200351758827"><ele>1040.0</ele><time>2026-04-12T09:32:19Z</time></trkpt><trkpt lat="46.27364125041808" lon="11.476137125711244"><ele>1040.0</ele><time>2026-04-12T09:32:21Z</time></trkpt><trkpt lat="46.27376122936938" lon="11.47618863769197"><ele>1040.0</ele><time>2026-04-12T09:32:23Z</time></trkpt><trkpt lat="46.27383310880826" lon="11.476240858467653"><ele>1040.0</ele><time>2026-04-12T09:32:24Z</time></trkpt><trkpt lat="46.27389448923554" lon="11.476288253097104"><ele>1040.0</ele><time>2026-04-12T09:32:25Z</time></trkpt><trkpt lat="46.27399837560899" lon="11.47634544770636"><ele>1040.0</ele><time>2026-04-12T09:32:27Z</time></trkpt><trkpt lat="46.274086072826194" lon="11.476396658512288"><ele>1036.6</ele><time>2026-04-12T09:32:29Z</time></trkpt><trkpt lat="46.274163233769485" lon="11.476440724003139"><ele>1033.2</ele><time>2026-04-12T09:32:32Z</time></trkpt><trkpt lat="46.27422138157838" lon="11.476480561497986"><ele>1029.8</ele><time>2026-04-12T09:32:33.999Z</time></trkpt><trkpt lat="46.27429872389738" lon="11.476547341692315"><ele>1026.4</ele><time>2026-04-12T09:32:35.999Z</time></trkpt><trkpt lat="46.274393699112736" lon="11.476632654015548"><ele>1023.0</ele><time>2026-04-12T09:32:37.999Z</time></trkpt><trkpt lat="46.274491447310766" lon="11.476717350227311"><ele>1023.0</ele><time>2026-04-12T09:32:39.999Z</time></trkpt><trkpt lat="46.274609120572165" lon="11.47677426952733"><ele>1023.0</ele><time>2026-04-12T09:32:41.999Z</time></trkpt><trkpt lat="46.27467429329588" lon="11.476818214189537"><ele>1023.0</ele><time>2026-04-12T09:32:42.999Z</time></trkpt><trkpt lat="46.27473938774326" lon="11.476859491666131"><ele>1023.0</ele><time>2026-04-12T09:32:43.999Z</time></trkpt><trkpt lat="46.27481603196208" lon="11.476892379796332"><ele>1023.0</ele><time>2026-04-12T09:32:44.999Z</time></trkpt><trkpt lat="46.27491374891548" lon="11.476904989740165"><ele>1023.0</ele><time>2026-04-12T09:32:45.999Z</time></trkpt><trkpt lat="46.275060754949784" lon="11.476880613806877"><ele>1019.3333333333333</ele><time>2026-04-12T09:32:46.999Z</time></trkpt><trkpt lat="46.27522547547142" lon="11.476804692612266"><ele>1015.6666666666666</ele><time>2026-04-12T09:32:47.999Z</time></trkpt><trkpt lat="46.275411703671075" lon="11.476679499908677"><ele>1012.0</ele><time>2026-04-12T09:32:48.999Z</time></trkpt><trkpt lat="46.275553957415326" lon="11.476583670438908"><ele>1006.5</ele><time>2026-04-12T09:32:49.999Z</time></trkpt><trkpt lat="46.27566013930831" lon="11.476488637085376"><ele>1001.0</ele><time>2026-04-12T09:32:50.999Z</time></trkpt><trkpt lat="46.27575880658053" lon="11.476405079471984"><ele>995.5</ele><time>2026-04-12T09:32:51.999Z</time></trkpt><trkpt lat="46.275873558826184" lon="11.476328172816848"><ele>990.0</ele><time>2026-04-12T09:32:52.999Z</time></trkpt><trkpt lat="46.27599439496421" lon="11.476258238408638"><ele>990.0</ele><time>2026-04-12T09:32:53.999Z</time></trkpt><trkpt lat="46.27610009694485" lon="11.476203354761608"><ele>990.0</ele><time>2026-04-12T09:32:54.999Z</time></trkpt><trkpt lat="46.27619216633014" lon="11.476155260519072"><ele>990.0</ele><time>2026-04-12T09:32:55.999Z</time></trkpt><trkpt lat="46.27628591405968" lon="11.476118199977055"><ele>990.0</ele><time>2026-04-12T09:32:56.999Z</time></trkpt><trkpt lat="46.27638686856053" lon="11.47608477328324"><ele>990.0</ele><time>2026-04-12T09:32:57.999Z</time></trkpt><trkpt lat="46.27648523967576" lon="11.476068104727787"><ele>986.8</ele><time>2026-04-12T09:32:58.999Z</time></trkpt><trkpt lat="46.27658587882797" lon="11.47607517462171"><ele>983.6</ele><time>2026-04-12T09:32:59.999Z</time></trkpt><trkpt lat="46.27669002684204" lon="11.476076885127567"><ele>980.4000000000001</ele><time>2026-04-12T09:33:00.999Z</time></trkpt><trkpt lat="46.276792890828084" lon="11.4760588513915"><ele>977.2</ele><time>2026-04-12T09:33:01.999Z</time></trkpt><trkpt lat="46.27689205002301" lon="11.476049595810176"><ele>974.0</ele><time>2026-04-12T09:33:02.999Z</time></trkpt><trkpt lat="46.27698338894133" lon="11.476051279207372"><ele>974.0000000000001</ele><time>2026-04-12T09:33:03.999Z</time></trkpt><trkpt lat="46.27706474585927" lon="11.476056869461585"><ele>974.0</ele><time>2026-04-12T09:33:04.999Z</time></trkpt><trkpt lat="46.277135974163116" lon="11.476058043070855"><ele>974.0</ele><time>2026-04-12T09:33:05.999Z</time></trkpt><trkpt lat="46.277244730124934" lon="11.476059345421254"><ele>974.0</ele><time>2026-04-12T09:33:07.999Z</time></trkpt><trkpt lat="46.27731398239439" lon="11.476053764419737"><ele>974.0000000000001</ele><time>2026-04-12T09:33:09.999Z</time></trkpt><trkpt lat="46.277365651475485" lon="11.475978669346949"><ele>974.0</ele><time>2026-04-12T09:33:12.999Z</time></trkpt><trkpt lat="46.27736522198775" lon="11.47588249486012"><ele>974.0000000000001</ele><time>2026-04-12T09:33:14.999Z</time></trkpt><trkpt lat="46.27730365975136" lon="11.475772236989918"><ele>974.0</ele><time>2026-04-12T09:33:16.999Z</time></trkpt><trkpt lat="46.277241299306176" lon="11.4756494997231"><ele>974.0</ele><time>2026-04-12T09:33:18.999Z</time></trkpt><trkpt lat="46.27720283810854" lon="11.475551017005492"><ele>974.0</ele><time>2026-04-12T09:33:24Z</time></trkpt><trkpt lat="46.277165540953916" lon="11.475456283990466"><ele>974.0000000000001</ele><time>2026-04-12T09:33:27Z</time></trkpt><trkpt lat="46.2771924579816" lon="11.47535646683243"><ele>974.0</ele><time>2026-04-12T09:33:31Z</time></trkpt><trkpt lat="46.27725399168643" lon="11.475439743482738"><ele>973.0000000000001</ele><time>2026-04-12T09:33:33Z</time></trkpt><trkpt lat="46.27733194095645" lon="11.475474665716419"><ele>972.0</ele><time>2026-04-12T09:33:36Z</time></trkpt><trkpt lat="46.27741915782944" lon="11.475435618097396"><ele>971.0</ele><time>2026-04-12T09:33:38Z</time></trkpt><trkpt lat="46.277493105802726" lon="11.475300061899164"><ele>970.0</ele><time>2026-04-12T09:33:40Z</time></trkpt><trkpt lat="46.277514399581385" lon="11.475196667924031"><ele>969.0000000000001</ele><time>2026-04-12T09:33:41Z</time></trkpt><trkpt lat="46.27754297805485" lon="11.475113401643233"><ele>968.0</ele><time>2026-04-12T09:33:42Z</time></trkpt><trkpt lat="46.2776509869429" lon="11.475047167637326"><ele>967.5000000000001</ele><time>2026-04-12T09:33:44Z</time></trkpt><trkpt lat="46.27772731414581" lon="11.475041140000528"><ele>967.0</ele><time>2026-04-12T09:33:45Z</time></trkpt><trkpt lat="46.277818425929176" lon="11.475037862676384"><ele>966.5</ele><time>2026-04-12T09:33:46Z</time></trkpt><trkpt lat="46.27788525440564" lon="11.475037046902633"><ele>966.0</ele><time>2026-04-12T09:33:47Z</time></trkpt><trkpt lat="46.27798191997741" lon="11.4749915331657"><ele>965.5000000000001</ele><time>2026-04-12T09:33:49Z</time></trkpt><trkpt lat="46.278032112351916" lon="11.474930754154954"><ele>965.0</ele><time>2026-04-12T09:33:50Z</time></trkpt><trkpt lat="46.278081329838386" lon="11.474846931467956"><ele>963.6</ele><time>2026-04-12T09:33:51Z</time></trkpt><trkpt lat="46.27811849311366" lon="11.474757263131274"><ele>962.2</ele><time>2026-04-12T09:33:52Z</time></trkpt><trkpt lat="46.278126480578436" lon="11.474586789889727"><ele>960.8</ele><time>2026-04-12T09:33:54Z</time></trkpt><trkpt lat="46.278228772823525" lon="11.474589082154894"><ele>959.4</ele><time>2026-04-12T09:33:56Z</time></trkpt><trkpt lat="46.278321808613434" lon="11.474592857222271"><ele>958.0</ele><time>2026-04-12T09:33:57Z</time></trkpt><trkpt lat="46.278388153550345" lon="11.474641594396063"><ele>957.9999999999999</ele><time>2026-04-12T09:33:58Z</time></trkpt><trkpt lat="46.278456363120696" lon="11.474673829062041"><ele>958.0</ele><time>2026-04-12T09:33:59Z</time></trkpt><trkpt lat="46.27857698990975" lon="11.47460766204589"><ele>958.0</ele><time>2026-04-12T09:34:01Z</time></trkpt><trkpt lat="46.27866145774311" lon="11.474579875578234"><ele>958.0</ele><time>2026-04-12T09:34:02Z</time></trkpt><trkpt lat="46.27873862549192" lon="11.474564636437082"><ele>957.9999999999999</ele><time>2026-04-12T09:34:03Z</time></trkpt><trkpt lat="46.27879783172711" lon="11.474526195424035"><ele>958.0</ele><time>2026-04-12T09:34:04Z</time></trkpt><trkpt lat="46.27891800853615" lon="11.474432736378068"><ele>955.4999999999999</ele><time>2026-04-12T09:34:06Z</time></trkpt><trkpt lat="46.278984135588814" lon="11.474376011052678"><ele>953.0</ele><time>2026-04-12T09:34:07Z</time></trkpt><trkpt lat="46.27908532752297" lon="11.474312329383237"><ele>950.5</ele><time>2026-04-12T09:34:09Z</time></trkpt><trkpt lat="46.279140370743356" lon="11.474264853036681"><ele>948.0</ele><time>2026-04-12T09:34:10Z</time></trkpt><trkpt lat="46.279197094065076" lon="11.474199382865207"><ele>945.4999999999999</ele><time>2026-04-12T09:34:11Z</time></trkpt><trkpt lat="46.27924969727564" lon="11.474131540199672"><ele>943.0</ele><time>2026-04-12T09:34:12Z</time></trkpt><trkpt lat="46.27929923323007" lon="11.474072187321319"><ele>942.9999999999999</ele><time>2026-04-12T09:34:13Z</time></trkpt><trkpt lat="46.279362942163075" lon="11.474009325678056"><ele>943.0</ele><time>2026-04-12T09:34:14Z</time></trkpt><trkpt lat="46.279427776408625" lon="11.473964911886192"><ele>943.0</ele><time>2026-04-12T09:34:15Z</time></trkpt><trkpt lat="46.279498071479395" lon="11.473934189193185"><ele>943.0</ele><time>2026-04-12T09:34:16Z</time></trkpt><trkpt lat="46.27960248184141" lon="11.473882643519557"><ele>942.9999999999999</ele><time>2026-04-12T09:34:18Z</time></trkpt><trkpt lat="46.279677275648176" lon="11.473839658967998"><ele>943.0</ele><time>2026-04-12T09:34:20Z</time></trkpt><trkpt lat="46.279769475330674" lon="11.47373337966801"><ele>940.4285714285714</ele><time>2026-04-12T09:34:22Z</time></trkpt><trkpt lat="46.279825792568545" lon="11.473674434835765"><ele>937.8571428571429</ele><time>2026-04-12T09:34:23Z</time></trkpt><trkpt lat="46.27988918418916" lon="11.473629822958928"><ele>935.2857142857143</ele><time>2026-04-12T09:34:24Z</time></trkpt><trkpt lat="46.279943883645146" lon="11.47358399538971"><ele>932.7142857142858</ele><time>2026-04-12T09:34:25Z</time></trkpt><trkpt lat="46.28000158940899" lon="11.473539732506625"><ele>930.1428571428571</ele><time>2026-04-12T09:34:26Z</time></trkpt><trkpt lat="46.28006487976406" lon="11.473496910949356"><ele>927.5714285714287</ele><time>2026-04-12T09:34:27Z</time></trkpt><trkpt lat="46.28013176854987" lon="11.473447407515796"><ele>925.0</ele><time>2026-04-12T09:34:28Z</time></trkpt><trkpt lat="46.28021511672214" lon="11.473400957348016"><ele>924.9999999999999</ele><time>2026-04-12T09:34:29Z</time></trkpt><trkpt lat="46.280289380351626" lon="11.473340696034093"><ele>925.0</ele><time>2026-04-12T09:34:30Z</time></trkpt><trkpt lat="46.28034530480702" lon="11.473289228399922"><ele>925.0</ele><time>2026-04-12T09:34:31Z</time></trkpt><trkpt lat="46.280403168260534" lon="11.473243482545469"><ele>925.0</ele><time>2026-04-12T09:34:32Z</time></trkpt><trkpt lat="46.28051343998252" lon="11.473186190508954"><ele>924.9999999999999</ele><time>2026-04-12T09:34:34Z</time></trkpt><trkpt lat="46.28058143568732" lon="11.473158590551233"><ele>925.0</ele><time>2026-04-12T09:34:35Z</time></trkpt><trkpt lat="46.280672670530855" lon="11.47313586033973"><ele>923.6666666666666</ele><time>2026-04-12T09:34:36Z</time></trkpt><trkpt lat="46.280757306700934" lon="11.473127347975097"><ele>922.3333333333333</ele><time>2026-04-12T09:34:37Z</time></trkpt><trkpt lat="46.28087453203648" lon="11.473102644421822"><ele>921.0</ele><time>2026-04-12T09:34:39Z</time></trkpt><trkpt lat="46.28093801780307" lon="11.47307732569496"><ele>919.6666666666667</ele><time>2026-04-12T09:34:39.999Z</time></trkpt><trkpt lat="46.281010694714645" lon="11.473039858987063"><ele>918.3333333333334</ele><time>2026-04-12T09:34:40.999Z</time></trkpt><trkpt lat="46.28107207194648" lon="11.472992835720655"><ele>917.0</ele><time>2026-04-12T09:34:41.999Z</time></trkpt><trkpt lat="46.28113826648125" lon="11.47294895005935"><ele>915.1666666666667</ele><time>2026-04-12T09:34:42.999Z</time></trkpt><trkpt lat="46.28120291121959" lon="11.47293242000817"><ele>913.3333333333334</ele><time>2026-04-12T09:34:43.999Z</time></trkpt><trkpt lat="46.281277281098525" lon="11.472862848172436"><ele>911.5</ele><time>2026-04-12T09:34:45.999Z</time></trkpt><trkpt lat="46.28127881209183" lon="11.47272976878685"><ele>909.6666666666667</ele><time>2026-04-12T09:34:48.999Z</time></trkpt><trkpt lat="46.28125986985184" lon="11.472640624807639"><ele>907.8333333333334</ele><time>2026-04-12T09:34:52.999Z</time></trkpt><trkpt lat="46.281233154346964" lon="11.47255500275796"><ele>906.0</ele><time>2026-04-12T09:34:57.999Z</time></trkpt><trkpt lat="46.281149240269244" lon="11.472456197840614"><ele>906.0</ele><time>2026-04-12T09:35:00.999Z</time></trkpt><trkpt lat="46.28121172025677" lon="11.47237874689277"><ele>906.0</ele><time>2026-04-12T09:35:03.999Z</time></trkpt><trkpt lat="46.28129851803288" lon="11.472386230684386"><ele>906.0</ele><time>2026-04-12T09:35:04.999Z</time></trkpt><trkpt lat="46.28141474392644" lon="11.472389953502166"><ele>906.0</ele><time>2026-04-12T09:35:05.999Z</time></trkpt><trkpt lat="46.28149785580083" lon="11.472375931247631"><ele>906.0</ele><time>2026-04-12T09:35:06.999Z</time></trkpt><trkpt lat="46.28157765510139" lon="11.47236313183563"><ele>906.0</ele><time>2026-04-12T09:35:07.999Z</time></trkpt><trkpt lat="46.281665098328" lon="11.472356355896542"><ele>903.1999999999999</ele><time>2026-04-12T09:35:08.999Z</time></trkpt><trkpt lat="46.28175654465745" lon="11.472345754027906"><ele>900.3999999999999</ele><time>2026-04-12T09:35:09.999Z</time></trkpt><trkpt lat="46.28185341950594" lon="11.47232497170973"><ele>897.6</ele><time>2026-04-12T09:35:10.999Z</time></trkpt><trkpt lat="46.281943211403465" lon="11.47228121027901"><ele>894.8</ele><time>2026-04-12T09:35:11.999Z</time></trkpt><trkpt lat="46.28202668135936" lon="11.47223189295344"><ele>892.0</ele><time>2026-04-12T09:35:12.999Z</time></trkpt><trkpt lat="46.28210000376324" lon="11.472184616796332"><ele>892.0</ele><time>2026-04-12T09:35:13.999Z</time></trkpt><trkpt lat="46.28218088821446" lon="11.472145601875582"><ele>892.0</ele><time>2026-04-12T09:35:14.999Z</time></trkpt><trkpt lat="46.28227233072537" lon="11.472144651068872"><ele>892.0</ele><time>2026-04-12T09:35:15.999Z</time></trkpt><trkpt lat="46.28237909443337" lon="11.472161739315089"><ele>892.0</ele><time>2026-04-12T09:35:16.999Z</time></trkpt><trkpt lat="46.28247840513804" lon="11.47217626889684"><ele>892.0</ele><time>2026-04-12T09:35:17.999Z</time></trkpt><trkpt lat="46.28254652282689" lon="11.47218937334088"><ele>889.9999999999999</ele><time>2026-04-12T09:35:18.999Z</time></trkpt><trkpt lat="46.28261926298127" lon="11.472211857372397"><ele>888.0</ele><time>2026-04-12T09:35:20.999Z</time></trkpt><trkpt lat="46.28269345102484" lon="11.472122388692602"><ele>886.0</ele><time>2026-04-12T09:35:22.999Z</time></trkpt><trkpt lat="46.282744526437746" lon="11.47205066214313"><ele>884.0</ele><time>2026-04-12T09:35:23.999Z</time></trkpt><trkpt lat="46.28281114965173" lon="11.471989921280084"><ele>881.9999999999999</ele><time>2026-04-12T09:35:24.999Z</time></trkpt><trkpt lat="46.2828847053992" lon="11.471946039501175"><ele>880.0</ele><time>2026-04-12T09:35:25.999Z</time></trkpt><trkpt lat="46.28296699025451" lon="11.471896178477683"><ele>879.0</ele><time>2026-04-12T09:35:26.999Z</time></trkpt><trkpt lat="46.283043676687974" lon="11.471860055733028"><ele>878.0</ele><time>2026-04-12T09:35:27.999Z</time></trkpt><trkpt lat="46.28314475948538" lon="11.471844669022225"><ele>877.0</ele><time>2026-04-12T09:35:30Z</time></trkpt><trkpt lat="46.28321373472508" lon="11.47196519396706"><ele>876.0</ele><time>2026-04-12T09:35:33Z</time></trkpt><trkpt lat="46.28321329079834" lon="11.47212989053485"><ele>875.0</ele><time>2026-04-12T09:35:35Z</time></trkpt><trkpt lat="46.28321179774706" lon="11.472226739440599"><ele>872.8</ele><time>2026-04-12T09:35:36Z</time></trkpt><trkpt lat="46.28320813302904" lon="11.472333261622907"><ele>870.6</ele><time>2026-04-12T09:35:37Z</time></trkpt><trkpt lat="46.2832006978995" lon="11.472462251680497"><ele>868.4000000000001</ele><time>2026-04-12T09:35:38Z</time></trkpt><trkpt lat="46.28319205181205" lon="11.472611629872228"><ele>866.2</ele><time>2026-04-12T09:35:39Z</time></trkpt><trkpt lat="46.28318501813884" lon="11.472766200611101"><ele>864.0</ele><time>2026-04-12T09:35:40Z</time></trkpt><trkpt lat="46.28320929622645" lon="11.472932133543074"><ele>864.25</ele><time>2026-04-12T09:35:41Z</time></trkpt><trkpt lat="46.28322271687065" lon="11.473118877749453"><ele>864.5</ele><time>2026-04-12T09:35:42Z</time></trkpt><trkpt lat="46.28323362066243" lon="11.473311696805817"><ele>864.75</ele><time>2026-04-12T09:35:43Z</time></trkpt><trkpt lat="46.28324415201369" lon="11.473506428093149"><ele>865.0</ele><time>2026-04-12T09:35:44Z</time></trkpt><trkpt lat="46.28326175011895" lon="11.473732595975719"><ele>864.6666666666666</ele><time>2026-04-12T09:35:45Z</time></trkpt><trkpt lat="46.283292218752266" lon="11.473964924333952"><ele>864.3333333333333</ele><time>2026-04-12T09:35:46Z</time></trkpt><trkpt lat="46.28332420563909" lon="11.47418440139518"><ele>864.0</ele><time>2026-04-12T09:35:47Z</time></trkpt><trkpt lat="46.28335881024871" lon="11.474419062572318"><ele>865.3333333333333</ele><time>2026-04-12T09:35:48Z</time></trkpt><trkpt lat="46.28337991379175" lon="11.474657676056012"><ele>866.6666666666666</ele><time>2026-04-12T09:35:49Z</time></trkpt><trkpt lat="46.28337536421779" lon="11.474887024129918"><ele>868.0</ele><time>2026-04-12T09:35:50Z</time></trkpt><trkpt lat="46.28336261506218" lon="11.47510790724558"><ele>868.0</ele><time>2026-04-12T09:35:51Z</time></trkpt><trkpt lat="46.28334726283731" lon="11.475328242990974"><ele>868.0</ele><time>2026-04-12T09:35:52Z</time></trkpt><trkpt lat="46.28333130046153" lon="11.475546007967482"><ele>868.0</ele><time>2026-04-12T09:35:53Z</time></trkpt><trkpt lat="46.28331134601416" lon="11.47576887212625"><ele>868.0</ele><time>2026-04-12T09:35:54Z</time></trkpt><trkpt lat="46.28328650778377" lon="11.475984188943793"><ele>868.0</ele><time>2026-04-12T09:35:55Z</time></trkpt><trkpt lat="46.28324817581395" lon="11.476196608385006"><ele>868.0</ele><time>2026-04-12T09:35:56Z</time></trkpt><trkpt lat="46.283209079445506" lon="11.476404499021566"><ele>867.25</ele><time>2026-04-12T09:35:57Z</time></trkpt><trkpt lat="46.28317329493439" lon="11.476609576532104"><ele>866.5</ele><time>2026-04-12T09:35:58Z</time></trkpt><trkpt lat="46.283156076538546" lon="11.476805809543777"><ele>865.75</ele><time>2026-04-12T09:35:59Z</time></trkpt><trkpt lat="46.283149535381256" lon="11.476989060618816"><ele>865.0</ele><time>2026-04-12T09:36:00Z</time></trkpt><trkpt lat="46.28314920815233" lon="11.477161766929356"><ele>863.8</ele><time>2026-04-12T09:36:01Z</time></trkpt><trkpt lat="46.28315531074989" lon="11.477322289057577"><ele>862.6</ele><time>2026-04-12T09:36:02Z</time></trkpt><trkpt lat="46.28313948237777" lon="11.47747801391938"><ele>861.4000000000001</ele><time>2026-04-12T09:36:03Z</time></trkpt><trkpt lat="46.283128524212" lon="11.477633340678059"><ele>860.2</ele><time>2026-04-12T09:36:04Z</time></trkpt><trkpt lat="46.283117858337015" lon="11.477784524153298"><ele>859.0</ele><time>2026-04-12T09:36:05Z</time></trkpt><trkpt lat="46.28310700919205" lon="11.4779383055019"><ele>865.75</ele><time>2026-04-12T09:36:06Z</time></trkpt><trkpt lat="46.28309077681743" lon="11.478115588341037"><ele>872.5</ele><time>2026-04-12T09:36:07Z</time></trkpt><trkpt lat="46.2830622780948" lon="11.478306305078457"><ele>879.25</ele><time>2026-04-12T09:36:08Z</time></trkpt><trkpt lat="46.28303530330791" lon="11.478526385503049"><ele>886.0</ele><time>2026-04-12T09:36:09Z</time></trkpt><trkpt lat="46.283031107448416" lon="11.478739859204252"><ele>884.1999999999999</ele><time>2026-04-12T09:36:10Z</time></trkpt><trkpt lat="46.283037728686004" lon="11.478930876283979"><ele>882.3999999999999</ele><time>2026-04-12T09:36:11Z</time></trkpt><trkpt lat="46.2830241231034" lon="11.479104144168547"><ele>880.6</ele><time>2026-04-12T09:36:12Z</time></trkpt><trkpt lat="46.283017722635634" lon="11.479256221825857"><ele>878.8</ele><time>2026-04-12T09:36:13Z</time></trkpt><trkpt lat="46.28302912565177" lon="11.479373792024159"><ele>877.0</ele><time>2026-04-12T09:36:14Z</time></trkpt><trkpt lat="46.283023386262094" lon="11.479467331226001"><ele>874.8</ele><time>2026-04-12T09:36:15Z</time></trkpt><trkpt lat="46.2830299932878" lon="11.479606441687341"><ele>872.6</ele><time>2026-04-12T09:36:17Z</time></trkpt><trkpt lat="46.283064322002176" lon="11.47974669396699"><ele>870.3999999999999</ele><time>2026-04-12T09:36:19Z</time></trkpt><trkpt lat="46.283111403306165" lon="11.479934400395917"><ele>868.1999999999999</ele><time>2026-04-12T09:36:21Z</time></trkpt><trkpt lat="46.28310562998122" lon="11.480054782872726"><ele>866.0</ele><time>2026-04-12T09:36:22Z</time></trkpt><trkpt lat="46.28310342963276" lon="11.480189305889839"><ele>866.0000000000001</ele><time>2026-04-12T09:36:23Z</time></trkpt><trkpt lat="46.28308652956704" lon="11.480322620264248"><ele>866.0</ele><time>2026-04-12T09:36:24Z</time></trkpt><trkpt lat="46.28308143343451" lon="11.480460244420392"><ele>866.0</ele><time>2026-04-12T09:36:25Z</time></trkpt><trkpt lat="46.283069903722605" lon="11.480583968431016"><ele>866.0</ele><time>2026-04-12T09:36:26Z</time></trkpt><trkpt lat="46.28306537095094" lon="11.480695891414513"><ele>866.0000000000001</ele><time>2026-04-12T09:36:27Z</time></trkpt><trkpt lat="46.28306284011773" lon="11.480790426414513"><ele>866.0</ele><time>2026-04-12T09:36:28Z</time></trkpt><trkpt lat="46.28306288898031" lon="11.480907239712113"><ele>865.8</ele><time>2026-04-12T09:36:43Z</time></trkpt><trkpt lat="46.283055963708755" lon="11.481013767701642"><ele>865.5999999999999</ele><time>2026-04-12T09:37:07.999Z</time></trkpt><trkpt lat="46.2831303394881" lon="11.480978357555248"><ele>865.4</ele><time>2026-04-12T09:37:09.999Z</time></trkpt><trkpt lat="46.283210976541156" lon="11.480878676573688"><ele>865.2</ele><time>2026-04-12T09:37:11.999Z</time></trkpt><trkpt lat="46.28333659340173" lon="11.480844031485239"><ele>865.0</ele><time>2026-04-12T09:37:13.999Z</time></trkpt><trkpt lat="46.28343087647525" lon="11.480823476106046"><ele>864.2</ele><time>2026-04-12T09:37:14.999Z</time></trkpt><trkpt lat="46.28352724531854" lon="11.48079847651432"><ele>863.4</ele><time>2026-04-12T09:37:15.999Z</time></trkpt><trkpt lat="46.28361651872491" lon="11.480775794026593"><ele>862.5999999999999</ele><time>2026-04-12T09:37:16.999Z</time></trkpt><trkpt lat="46.28370132748252" lon="11.48074288491254"><ele>861.8</ele><time>2026-04-12T09:37:17.999Z</time></trkpt><trkpt lat="46.28380252419058" lon="11.48070622704491"><ele>861.0</ele><time>2026-04-12T09:37:18.999Z</time></trkpt><trkpt lat="46.2839112406733" lon="11.480660729240554"><ele>860.75</ele><time>2026-04-12T09:37:19.999Z</time></trkpt><trkpt lat="46.284020885455604" lon="11.480596291098639"><ele>860.5</ele><time>2026-04-12T09:37:20.999Z</time></trkpt><trkpt lat="46.284120574836074" lon="11.480493742318243"><ele>860.25</ele><time>2026-04-12T09:37:21.999Z</time></trkpt><trkpt lat="46.28419993803216" lon="11.480356795819066"><ele>860.0</ele><time>2026-04-12T09:37:22.999Z</time></trkpt><trkpt lat="46.28426680278845" lon="11.48021690523953"><ele>860.0</ele><time>2026-04-12T09:37:23.999Z</time></trkpt><trkpt lat="46.28435215955699" lon="11.48009662207799"><ele>860.0</ele><time>2026-04-12T09:37:24.999Z</time></trkpt><trkpt lat="46.28446098404875" lon="11.480018832930206"><ele>860.0</ele><time>2026-04-12T09:37:25.999Z</time></trkpt><trkpt lat="46.284593912965406" lon="11.479972383821211"><ele>860.0</ele><time>2026-04-12T09:37:26.999Z</time></trkpt><trkpt lat="46.284750883274135" lon="11.479938211039753"><ele>858.6666666666667</ele><time>2026-04-12T09:37:27.999Z</time></trkpt><trkpt lat="46.28492681236541" lon="11.479900607821913"><ele>857.3333333333333</ele><time>2026-04-12T09:37:28.999Z</time></trkpt><trkpt lat="46.28512773907882" lon="11.479852823237323"><ele>856.0</ele><time>2026-04-12T09:37:29.999Z</time></trkpt><trkpt lat="46.28533066669462" lon="11.479804670969704"><ele>856.0</ele><time>2026-04-12T09:37:30.999Z</time></trkpt><trkpt lat="46.2854961681341" lon="11.479765246206906"><ele>856.0</ele><time>2026-04-12T09:37:31.999Z</time></trkpt><trkpt lat="46.28563011843617" lon="11.479744421849924"><ele>856.0</ele><time>2026-04-12T09:37:32.999Z</time></trkpt><trkpt lat="46.28575123696278" lon="11.479759208666746"><ele>856.0</ele><time>2026-04-12T09:37:33.999Z</time></trkpt><trkpt lat="46.285856142934655" lon="11.479806723247057"><ele>857.5999999999999</ele><time>2026-04-12T09:37:34.999Z</time></trkpt><trkpt lat="46.285926490908956" lon="11.47988497690691"><ele>859.1999999999999</ele><time>2026-04-12T09:37:36Z</time></trkpt><trkpt lat="46.28597015099104" lon="11.479978895150158"><ele>860.8000000000001</ele><time>2026-04-12T09:37:37Z</time></trkpt><trkpt lat="46.28602795592985" lon="11.48004470409998"><ele>862.4000000000001</ele><time>2026-04-12T09:37:38Z</time></trkpt><trkpt lat="46.286144182142856" lon="11.480147300436881"><ele>864.0</ele><time>2026-04-12T09:37:40Z</time></trkpt><trkpt lat="46.28621559960791" lon="11.480223498949007"><ele>864.0</ele><time>2026-04-12T09:37:41Z</time></trkpt><trkpt lat="46.28629472821688" lon="11.480320700487132"><ele>864.0</ele><time>2026-04-12T09:37:42Z</time></trkpt><trkpt lat="46.286382425465426" lon="11.480434752509176"><ele>864.0</ele><time>2026-04-12T09:37:43Z</time></trkpt><trkpt lat="46.28648333009391" lon="11.480498518694821"><ele>864.0</ele><time>2026-04-12T09:37:44Z</time></trkpt><trkpt lat="46.286603478897185" lon="11.480508213841324"><ele>866.25</ele><time>2026-04-12T09:37:45Z</time></trkpt><trkpt lat="46.28674161994275" lon="11.48051998863344"><ele>868.5</ele><time>2026-04-12T09:37:46Z</time></trkpt><trkpt lat="46.28683381335983" lon="11.480491423404038"><ele>870.75</ele><time>2026-04-12T09:37:47Z</time></trkpt><trkpt lat="46.286962251723274" lon="11.480410292499405"><ele>873.0</ele><time>2026-04-12T09:37:49Z</time></trkpt><trkpt lat="46.287052801772035" lon="11.480369508052052"><ele>873.3333333333333</ele><time>2026-04-12T09:37:50Z</time></trkpt><trkpt lat="46.287181039719954" lon="11.480400929723082"><ele>873.6666666666666</ele><time>2026-04-12T09:37:51Z</time></trkpt><trkpt lat="46.28735258718788" lon="11.480462444325669"><ele>874.0</ele><time>2026-04-12T09:37:52Z</time></trkpt><trkpt lat="46.28752265064951" lon="11.480490717563695"><ele>876.4000000000001</ele><time>2026-04-12T09:37:53Z</time></trkpt><trkpt lat="46.2876746092667" lon="11.480489841374474"><ele>878.8000000000001</ele><time>2026-04-12T09:37:54Z</time></trkpt><trkpt lat="46.287753928452965" lon="11.480449730358455"><ele>881.1999999999999</ele><time>2026-04-12T09:37:55Z</time></trkpt><trkpt lat="46.28782236456293" lon="11.480382103149621"><ele>883.5999999999999</ele><time>2026-04-12T09:37:56Z</time></trkpt><trkpt lat="46.28791426767743" lon="11.480283312057145"><ele>886.0</ele><time>2026-04-12T09:37:57Z</time></trkpt><trkpt lat="46.28800065122747" lon="11.480162855946318"><ele>886.0</ele><time>2026-04-12T09:37:58Z</time></trkpt><trkpt lat="46.28809263756368" lon="11.480075319779782"><ele>886.0</ele><time>2026-04-12T09:37:59Z</time></trkpt><trkpt lat="46.288278366493486" lon="11.480145299196648"><ele>886.0</ele><time>2026-04-12T09:38:00Z</time></trkpt><trkpt lat="46.288260135657055" lon="11.479970818651122"><ele>886.0</ele><time>2026-04-12T09:38:01Z</time></trkpt><trkpt lat="46.288290663095545" lon="11.479886687822104"><ele>888.8</ele><time>2026-04-12T09:38:03Z</time></trkpt><trkpt lat="46.2883303035198" lon="11.479804784701138"><ele>891.5999999999999</ele><time>2026-04-12T09:38:04Z</time></trkpt><trkpt lat="46.28839340484078" lon="11.479707197504329"><ele>894.4</ele><time>2026-04-12T09:38:05Z</time></trkpt><trkpt lat="46.288455454010425" lon="11.479599573733514"><ele>897.2</ele><time>2026-04-12T09:38:06Z</time></trkpt><trkpt lat="46.288492961130764" lon="11.47947708254448"><ele>900.0</ele><time>2026-04-12T09:38:07Z</time></trkpt><trkpt lat="46.28851379173268" lon="11.479328043816642"><ele>900.0</ele><time>2026-04-12T09:38:08Z</time></trkpt><trkpt lat="46.288539899723574" lon="11.479146337121742"><ele>900.0</ele><time>2026-04-12T09:38:09Z</time></trkpt><trkpt lat="46.28858533251462" lon="11.478963046893671"><ele>900.0</ele><time>2026-04-12T09:38:10Z</time></trkpt><trkpt lat="46.2886547147797" lon="11.478821233962318"><ele>900.0</ele><time>2026-04-12T09:38:11Z</time></trkpt><trkpt lat="46.2887456382978" lon="11.478680444959325"><ele>899.0</ele><time>2026-04-12T09:38:12Z</time></trkpt><trkpt lat="46.288838172453836" lon="11.478526039921997"><ele>898.0</ele><time>2026-04-12T09:38:13Z</time></trkpt><trkpt lat="46.28892395488084" lon="11.478362336774895"><ele>897.0</ele><time>2026-04-12T09:38:14Z</time></trkpt><trkpt lat="46.288992199684856" lon="11.478205634754753"><ele>896.0</ele><time>2026-04-12T09:38:15Z</time></trkpt><trkpt lat="46.289036163941596" lon="11.478040987360481"><ele>898.75</ele><time>2026-04-12T09:38:16Z</time></trkpt><trkpt lat="46.28905970410833" lon="11.477856710269839"><ele>901.5</ele><time>2026-04-12T09:38:17Z</time></trkpt><trkpt lat="46.28906598611961" lon="11.477661459877238"><ele>904.25</ele><time>2026-04-12T09:38:18Z</time></trkpt><trkpt lat="46.289059211033276" lon="11.477450879575356"><ele>907.0</ele><time>2026-04-12T09:38:19Z</time></trkpt><trkpt lat="46.28903743634452" lon="11.477216229418058"><ele>908.3333333333333</ele><time>2026-04-12T09:38:20Z</time></trkpt><trkpt lat="46.28901302352967" lon="11.476974830657225"><ele>909.6666666666667</ele><time>2026-04-12T09:38:21Z</time></trkpt><trkpt lat="46.289001501001266" lon="11.47673058613609"><ele>911.0</ele><time>2026-04-12T09:38:22Z</time></trkpt><trkpt lat="46.289018323217135" lon="11.476502121089213"><ele>911.0</ele><time>2026-04-12T09:38:23Z</time></trkpt><trkpt lat="46.28906351710875" lon="11.47627980177017"><ele>911.0</ele><time>2026-04-12T09:38:24Z</time></trkpt><trkpt lat="46.28913237416591" lon="11.476047468444165"><ele>911.0</ele><time>2026-04-12T09:38:25Z</time></trkpt><trkpt lat="46.289212272124004" lon="11.475813826452677"><ele>911.0</ele><time>2026-04-12T09:38:26Z</time></trkpt><trkpt lat="46.2893045276246" lon="11.475583429475954"><ele>911.0</ele><time>2026-04-12T09:38:27Z</time></trkpt><trkpt lat="46.2894022052577" lon="11.47536238280001"><ele>911.0</ele><time>2026-04-12T09:38:28Z</time></trkpt><trkpt lat="46.289493212825136" lon="11.47517793225057"><ele>910.8</ele><time>2026-04-12T09:38:29Z</time></trkpt><trkpt lat="46.289559570155355" lon="11.475033623910209"><ele>910.5999999999999</ele><time>2026-04-12T09:38:30Z</time></trkpt><trkpt lat="46.289610727645126" lon="11.474918208631903"><ele>910.4</ele><time>2026-04-12T09:38:31Z</time></trkpt><trkpt lat="46.289647613910795" lon="11.47480127536428"><ele>910.2</ele><time>2026-04-12T09:38:32Z</time></trkpt><trkpt lat="46.289662546923076" lon="11.474669255792055"><ele>910.0</ele><time>2026-04-12T09:38:33Z</time></trkpt><trkpt lat="46.28968138380314" lon="11.474523781181302"><ele>909.5</ele><time>2026-04-12T09:38:34Z</time></trkpt><trkpt lat="46.28968714288493" lon="11.474359916897905"><ele>909.0</ele><time>2026-04-12T09:38:35Z</time></trkpt><trkpt lat="46.28968680500252" lon="11.474170706933808"><ele>908.5</ele><time>2026-04-12T09:38:36Z</time></trkpt><trkpt lat="46.289684916094" lon="11.473976412064898"><ele>908.0</ele><time>2026-04-12T09:38:37Z</time></trkpt><trkpt lat="46.28968270210324" lon="11.473751114828522"><ele>907.6666666666667</ele><time>2026-04-12T09:38:38Z</time></trkpt><trkpt lat="46.28967734527093" lon="11.473527010841556"><ele>907.3333333333333</ele><time>2026-04-12T09:38:39Z</time></trkpt><trkpt lat="46.2896751914858" lon="11.473302214010566"><ele>907.0</ele><time>2026-04-12T09:38:40Z</time></trkpt><trkpt lat="46.28967090738837" lon="11.473066885947167"><ele>907.3333333333333</ele><time>2026-04-12T09:38:41Z</time></trkpt><trkpt lat="46.2896755907608" lon="11.472827637186297"><ele>907.6666666666667</ele><time>2026-04-12T09:38:42Z</time></trkpt><trkpt lat="46.289693776677396" lon="11.472589518999644"><ele>908.0</ele><time>2026-04-12T09:38:43Z</time></trkpt><trkpt lat="46.2897249506728" lon="11.472367863044656"><ele>908.0</ele><time>2026-04-12T09:38:44Z</time></trkpt><trkpt lat="46.28974086090625" lon="11.472186993680106"><ele>908.0</ele><time>2026-04-12T09:38:45Z</time></trkpt><trkpt lat="46.289736278948524" lon="11.472001923191085"><ele>908.0</ele><time>2026-04-12T09:38:46Z</time></trkpt><trkpt lat="46.289710282202634" lon="11.471817206496087"><ele>908.0</ele><time>2026-04-12T09:38:47Z</time></trkpt><trkpt lat="46.28964737431873" lon="11.471621013651294"><ele>910.0</ele><time>2026-04-12T09:38:48Z</time></trkpt><trkpt lat="46.28957058670047" lon="11.471439672661818"><ele>912.0</ele><time>2026-04-12T09:38:49Z</time></trkpt><trkpt lat="46.289492595200734" lon="11.47125894102326"><ele>914.0</ele><time>2026-04-12T09:38:50Z</time></trkpt><trkpt lat="46.28941519610617" lon="11.471074106302396"><ele>916.0</ele><time>2026-04-12T09:38:51Z</time></trkpt><trkpt lat="46.28934052191493" lon="11.470881741794212"><ele>920.3333333333333</ele><time>2026-04-12T09:38:52Z</time></trkpt><trkpt lat="46.28927184599784" lon="11.470670953576732"><ele>924.6666666666667</ele><time>2026-04-12T09:38:52.999Z</time></trkpt><trkpt lat="46.28919986642612" lon="11.470460419361997"><ele>929.0</ele><time>2026-04-12T09:38:53.999Z</time></trkpt><trkpt lat="46.28911822073327" lon="11.470275193939607"><ele>927.3333333333334</ele><time>2026-04-12T09:38:54.999Z</time></trkpt><trkpt lat="46.28902896243622" lon="11.470098607447587"><ele>925.6666666666667</ele><time>2026-04-12T09:38:55.999Z</time></trkpt><trkpt lat="46.28893548032052" lon="11.46992412282033"><ele>924.0</ele><time>2026-04-12T09:38:56.999Z</time></trkpt><trkpt lat="46.28883532701737" lon="11.4697514092947"><ele>929.6666666666667</ele><time>2026-04-12T09:38:57.999Z</time></trkpt><trkpt lat="46.2887274369115" lon="11.469588663098397"><ele>935.3333333333334</ele><time>2026-04-12T09:38:58.999Z</time></trkpt><trkpt lat="46.28861742513588" lon="11.469426396244266"><ele>941.0</ele><time>2026-04-12T09:38:59.999Z</time></trkpt><trkpt lat="46.28850741304703" lon="11.469271171767442"><ele>941.0</ele><time>2026-04-12T09:39:00.999Z</time></trkpt><trkpt lat="46.28840519302484" lon="11.469106638667219"><ele>941.0</ele><time>2026-04-12T09:39:01.999Z</time></trkpt><trkpt lat="46.288296795590945" lon="11.468987041559265"><ele>941.0</ele><time>2026-04-12T09:39:02.999Z</time></trkpt><trkpt lat="46.28818337735996" lon="11.468918366079212"><ele>941.0</ele><time>2026-04-12T09:39:03.999Z</time></trkpt><trkpt lat="46.2880657229976" lon="11.468872063723827"><ele>941.8</ele><time>2026-04-12T09:39:04.999Z</time></trkpt><trkpt lat="46.28795061149326" lon="11.468822595905893"><ele>942.5999999999999</ele><time>2026-04-12T09:39:05.999Z</time></trkpt><trkpt lat="46.28784935367303" lon="11.468759709592424"><ele>943.4</ele><time>2026-04-12T09:39:06.999Z</time></trkpt><trkpt lat="46.28777638079164" lon="11.468660389535245"><ele>944.2</ele><time>2026-04-12T09:39:07.999Z</time></trkpt><trkpt lat="46.28771484752586" lon="11.468519779854454"><ele>945.0</ele><time>2026-04-12T09:39:08.999Z</time></trkpt><trkpt lat="46.2876799862419" lon="11.468327719942337"><ele>945.0</ele><time>2026-04-12T09:39:09.999Z</time></trkpt><trkpt lat="46.28766224456288" lon="11.46811016484922"><ele>945.0</ele><time>2026-04-12T09:39:10.999Z</time></trkpt><trkpt lat="46.2876461204066" lon="11.467887241101273"><ele>945.0</ele><time>2026-04-12T09:39:11.999Z</time></trkpt><trkpt lat="46.28764302283777" lon="11.46769368504385"><ele>945.0</ele><time>2026-04-12T09:39:12.999Z</time></trkpt><trkpt lat="46.287657284267" lon="11.467499856594841"><ele>946.6666666666667</ele><time>2026-04-12T09:39:13.999Z</time></trkpt><trkpt lat="46.287679905492325" lon="11.467273103919847"><ele>948.3333333333334</ele><time>2026-04-12T09:39:14.999Z</time></trkpt><trkpt lat="46.2877099980612" lon="11.46702312017544"><ele>950.0</ele><time>2026-04-12T09:39:15.999Z</time></trkpt><trkpt lat="46.287736642646465" lon="11.466770633088448"><ele>952.6666666666667</ele><time>2026-04-12T09:39:16.999Z</time></trkpt><trkpt lat="46.28775350480048" lon="11.466532893473422"><ele>955.3333333333333</ele><time>2026-04-12T09:39:17.999Z</time></trkpt><trkpt lat="46.28776031732413" lon="11.46630144069167"><ele>958.0</ele><time>2026-04-12T09:39:18.999Z</time></trkpt><trkpt lat="46.2877502532208" lon="11.466084156315182"><ele>961.0</ele><time>2026-04-12T09:39:19.999Z</time></trkpt><trkpt lat="46.287729895109344" lon="11.465877219742664"><ele>964.0</ele><time>2026-04-12T09:39:20.999Z</time></trkpt><trkpt lat="46.287693752084756" lon="11.465678735639196"><ele>967.0</ele><time>2026-04-12T09:39:21.999Z</time></trkpt><trkpt lat="46.2876271262425" lon="11.465486763483153"><ele>970.0</ele><time>2026-04-12T09:39:22.999Z</time></trkpt><trkpt lat="46.2875387943899" lon="11.465293282710297"><ele>972.6666666666666</ele><time>2026-04-12T09:39:23.999Z</time></trkpt><trkpt lat="46.287440494510676" lon="11.465102754624105"><ele>975.3333333333333</ele><time>2026-04-12T09:39:24.999Z</time></trkpt><trkpt lat="46.287493006660725" lon="11.464714010379952"><ele>978.0</ele><time>2026-04-12T09:39:25.999Z</time></trkpt><trkpt lat="46.28738002612858" lon="11.464527947756693"><ele>980.5</ele><time>2026-04-12T09:39:26.999Z</time></trkpt><trkpt lat="46.287280913140464" lon="11.46436233009041"><ele>983.0</ele><time>2026-04-12T09:39:27.999Z</time></trkpt><trkpt lat="46.287209735742735" lon="11.464200096754363"><ele>985.5</ele><time>2026-04-12T09:39:28.999Z</time></trkpt><trkpt lat="46.28716581328757" lon="11.464058488455844"><ele>988.0</ele><time>2026-04-12T09:39:29.999Z</time></trkpt><trkpt lat="46.28700617593675" lon="11.463730465645325"><ele>988.0</ele><time>2026-04-12T09:39:30.999Z</time></trkpt><trkpt lat="46.28687731724559" lon="11.463646720013882"><ele>988.0</ele><time>2026-04-12T09:39:31.999Z</time></trkpt><trkpt lat="46.287123286422236" lon="11.463754745901502"><ele>988.0</ele><time>2026-04-12T09:39:33.999Z</time></trkpt><trkpt lat="46.28684967589354" lon="11.463835932335964"><ele>990.0</ele><time>2026-04-12T09:39:34.999Z</time></trkpt><trkpt lat="46.28692735433991" lon="11.463754941434555"><ele>992.0</ele><time>2026-04-12T09:39:35.999Z</time></trkpt><trkpt lat="46.28701097339896" lon="11.463670787414294"><ele>994.0</ele><time>2026-04-12T09:39:36.999Z</time></trkpt><trkpt lat="46.28708457532504" lon="11.463600061832583"><ele>996.0</ele><time>2026-04-12T09:39:37.999Z</time></trkpt><trkpt lat="46.2871335502643" lon="11.463452560943894"><ele>998.0</ele><time>2026-04-12T09:39:40.999Z</time></trkpt><trkpt lat="46.28716962732356" lon="11.463332813237988"><ele>998.0</ele><time>2026-04-12T09:39:42Z</time></trkpt><trkpt lat="46.287222054838" lon="11.463158430127827"><ele>998.0</ele><time>2026-04-12T09:39:43Z</time></trkpt><trkpt lat="46.287286314179106" lon="11.462954298568985"><ele>998.0</ele><time>2026-04-12T09:39:44Z</time></trkpt><trkpt lat="46.28736974482966" lon="11.462757195367082"><ele>998.0</ele><time>2026-04-12T09:39:45Z</time></trkpt><trkpt lat="46.28746245941158" lon="11.462589695204596"><ele>997.75</ele><time>2026-04-12T09:39:46Z</time></trkpt><trkpt lat="46.287561007894254" lon="11.462450589774397"><ele>997.5</ele><time>2026-04-12T09:39:47Z</time></trkpt><trkpt lat="46.28766858786707" lon="11.46233543783938"><ele>997.25</ele><time>2026-04-12T09:39:48Z</time></trkpt><trkpt lat="46.2877998448383" lon="11.46220339268597"><ele>997.0</ele><time>2026-04-12T09:39:49Z</time></trkpt><trkpt lat="46.28792570344875" lon="11.462068594352811"><ele>997.0</ele><time>2026-04-12T09:39:50Z</time></trkpt><trkpt lat="46.28802704553278" lon="11.461957573851011"><ele>997.0</ele><time>2026-04-12T09:39:51Z</time></trkpt><trkpt lat="46.28811467710669" lon="11.461854337903707"><ele>997.0</ele><time>2026-04-12T09:39:52Z</time></trkpt><trkpt lat="46.28817454571961" lon="11.46177738549317"><ele>997.0</ele><time>2026-04-12T09:39:53Z</time></trkpt><trkpt lat="46.28825010018842" lon="11.461708459181265"><ele>997.0</ele><time>2026-04-12T09:39:55Z</time></trkpt><trkpt lat="46.28833904420266" lon="11.461636873951576"><ele>995.9999999999999</ele><time>2026-04-12T09:39:57Z</time></trkpt><trkpt lat="46.288425966743894" lon="11.461569093496564"><ele>995.0</ele><time>2026-04-12T09:39:59Z</time></trkpt><trkpt lat="46.288511911942464" lon="11.461526305876433"><ele>994.0</ele><time>2026-04-12T09:40:01Z</time></trkpt><trkpt lat="46.288590205735126" lon="11.461493872811388"><ele>993.0</ele><time>2026-04-12T09:40:03Z</time></trkpt><trkpt lat="46.28865763209096" lon="11.46146222619255"><ele>991.9999999999999</ele><time>2026-04-12T09:40:05Z</time></trkpt><trkpt lat="46.28871743783316" lon="11.461432905844884"><ele>991.0</ele><time>2026-04-12T09:40:07Z</time></trkpt><trkpt lat="46.28878970935926" lon="11.461398267206974"><ele>990.9999999999999</ele><time>2026-04-12T09:40:10Z</time></trkpt><trkpt lat="46.28890357895722" lon="11.461342918855435"><ele>991.0</ele><time>2026-04-12T09:40:12Z</time></trkpt><trkpt lat="46.28897797496721" lon="11.461308951775578"><ele>991.0</ele><time>2026-04-12T09:40:13Z</time></trkpt><trkpt lat="46.28905112849187" lon="11.461280118829222"><ele>991.0</ele><time>2026-04-12T09:40:14Z</time></trkpt><trkpt lat="46.28912607616829" lon="11.461241616495446"><ele>990.9999999999999</ele><time>2026-04-12T09:40:15Z</time></trkpt><trkpt lat="46.28921107040037" lon="11.461209444870612"><ele>991.0</ele><time>2026-04-12T09:40:16Z</time></trkpt><trkpt lat="46.2893015334495" lon="11.461171962360028"><ele>990.0</ele><time>2026-04-12T09:40:17Z</time></trkpt><trkpt lat="46.289395095215966" lon="11.461136127935964"><ele>988.9999999999999</ele><time>2026-04-12T09:40:18Z</time></trkpt><trkpt lat="46.2894927919735" lon="11.461092184269546"><ele>987.9999999999999</ele><time>2026-04-12T09:40:19Z</time></trkpt><trkpt lat="46.28959686642538" lon="11.46104302990726"><ele>987.0</ele><time>2026-04-12T09:40:20Z</time></trkpt><trkpt lat="46.289706389875754" lon="11.460993826376184"><ele>986.0</ele><time>2026-04-12T09:40:21Z</time></trkpt><trkpt lat="46.289816648744555" lon="11.46094337493088"><ele>986.0</ele><time>2026-04-12T09:40:22Z</time></trkpt><trkpt lat="46.289926948102796" lon="11.460899513434246"><ele>985.9999999999999</ele><time>2026-04-12T09:40:23Z</time></trkpt><trkpt lat="46.29002982177221" lon="11.460851303296312"><ele>985.9999999999999</ele><time>2026-04-12T09:40:24Z</time></trkpt><trkpt lat="46.290120606895194" lon="11.460802878855306"><ele>986.0</ele><time>2026-04-12T09:40:25Z</time></trkpt><trkpt lat="46.29021276010392" lon="11.460768556779236"><ele>986.0</ele><time>2026-04-12T09:40:26Z</time></trkpt><trkpt lat="46.29031185555416" lon="11.460725917568409"><ele>986.0</ele><time>2026-04-12T09:40:27Z</time></trkpt><trkpt lat="46.29040768606333" lon="11.460694454359997"><ele>985.9999999999999</ele><time>2026-04-12T09:40:28Z</time></trkpt><trkpt lat="46.290509521326825" lon="11.46066562714391"><ele>985.9999999999999</ele><time>2026-04-12T09:40:29Z</time></trkpt><trkpt lat="46.290608117203156" lon="11.460649213072598"><ele>986.0</ele><time>2026-04-12T09:40:30Z</time></trkpt><trkpt lat="46.290700804682814" lon="11.460641771361766"><ele>986.0</ele><time>2026-04-12T09:40:31Z</time></trkpt><trkpt lat="46.290773981885984" lon="11.4606161846775"><ele>986.8333333333334</ele><time>2026-04-12T09:40:32Z</time></trkpt><trkpt lat="46.29083288623906" lon="11.460581769968593"><ele>987.6666666666667</ele><time>2026-04-12T09:40:33Z</time></trkpt><trkpt lat="46.29093634833011" lon="11.460535849206156"><ele>988.5</ele><time>2026-04-12T09:40:35Z</time></trkpt><trkpt lat="46.29100849779196" lon="11.460498956700444"><ele>989.3333333333333</ele><time>2026-04-12T09:40:37Z</time></trkpt><trkpt lat="46.291126690549184" lon="11.460442809358323"><ele>990.1666666666666</ele><time>2026-04-12T09:40:39Z</time></trkpt><trkpt lat="46.29118918743176" lon="11.460408588268194"><ele>991.0</ele><time>2026-04-12T09:40:40Z</time></trkpt><trkpt lat="46.29125439102706" lon="11.460380561917397"><ele>991.0</ele><time>2026-04-12T09:40:41Z</time></trkpt><trkpt lat="46.29132720634052" lon="11.460341876838406"><ele>990.9999999999999</ele><time>2026-04-12T09:40:42Z</time></trkpt><trkpt lat="46.29139128512722" lon="11.46028402525952"><ele>990.9999999999999</ele><time>2026-04-12T09:40:43Z</time></trkpt><trkpt lat="46.291451248736394" lon="11.460200189673698"><ele>991.0</ele><time>2026-04-12T09:40:44Z</time></trkpt><trkpt lat="46.29153367071759" lon="11.460105919619256"><ele>991.0</ele><time>2026-04-12T09:40:45Z</time></trkpt><trkpt lat="46.291596525056235" lon="11.45996851289836"><ele>992.5999999999999</ele><time>2026-04-12T09:40:46Z</time></trkpt><trkpt lat="46.291640222118026" lon="11.459812773242291"><ele>994.1999999999999</ele><time>2026-04-12T09:40:47Z</time></trkpt><trkpt lat="46.291667099498156" lon="11.459659565575128"><ele>995.8000000000001</ele><time>2026-04-12T09:40:48Z</time></trkpt><trkpt lat="46.291679413959926" lon="11.459509663885614"><ele>997.4000000000001</ele><time>2026-04-12T09:40:49Z</time></trkpt><trkpt lat="46.29171003291854" lon="11.459372309334684"><ele>999.0</ele><time>2026-04-12T09:40:50Z</time></trkpt><trkpt lat="46.29174799613741" lon="11.45924319995713"><ele>999.2</ele><time>2026-04-12T09:40:51Z</time></trkpt><trkpt lat="46.29179814274652" lon="11.459126515338967"><ele>999.4000000000001</ele><time>2026-04-12T09:40:52Z</time></trkpt><trkpt lat="46.29185420896824" lon="11.45901817220305"><ele>999.6</ele><time>2026-04-12T09:40:53Z</time></trkpt><trkpt lat="46.29191389962124" lon="11.458901396124197"><ele>999.8</ele><time>2026-04-12T09:40:54Z</time></trkpt><trkpt lat="46.29197140080809" lon="11.458782748546195"><ele>1000.0</ele><time>2026-04-12T09:40:55Z</time></trkpt><trkpt lat="46.29203162427164" lon="11.458664419694278"><ele>1000.0</ele><time>2026-04-12T09:40:55.999Z</time></trkpt><trkpt lat="46.29209338205536" lon="11.45854672266596"><ele>1000.0</ele><time>2026-04-12T09:40:56.999Z</time></trkpt><trkpt lat="46.292157429056545" lon="11.458423421597479"><ele>1000.0</ele><time>2026-04-12T09:40:57.999Z</time></trkpt><trkpt lat="46.2922156617343" lon="11.458289805645181"><ele>1000.0</ele><time>2026-04-12T09:40:58.999Z</time></trkpt><trkpt lat="46.292278985475846" lon="11.458156368189139"><ele>1000.0</ele><time>2026-04-12T09:40:59.999Z</time></trkpt><trkpt lat="46.292346930093906" lon="11.458021414280868"><ele>1001.0</ele><time>2026-04-12T09:41:00.999Z</time></trkpt><trkpt lat="46.292412842468295" lon="11.457884966992987"><ele>1002.0</ele><time>2026-04-12T09:41:01.999Z</time></trkpt><trkpt lat="46.292481088257645" lon="11.457746833365544"><ele>1003.0</ele><time>2026-04-12T09:41:02.999Z</time></trkpt><trkpt lat="46.2925502872361" lon="11.457599841674789"><ele>1004.0</ele><time>2026-04-12T09:41:03.999Z</time></trkpt><trkpt lat="46.292616315476316" lon="11.457455030027289"><ele>1004.0</ele><time>2026-04-12T09:41:04.999Z</time></trkpt><trkpt lat="46.29267286390222" lon="11.457327491603937"><ele>1004.0</ele><time>2026-04-12T09:41:05.999Z</time></trkpt><trkpt lat="46.29273989758035" lon="11.457198752844256"><ele>1004.0</ele><time>2026-04-12T09:41:06.999Z</time></trkpt><trkpt lat="46.2928067069801" lon="11.457058472124201"><ele>1004.0</ele><time>2026-04-12T09:41:07.999Z</time></trkpt><trkpt lat="46.29287172595" lon="11.456908044133915"><ele>1004.0</ele><time>2026-04-12T09:41:08.999Z</time></trkpt><trkpt lat="46.29291169993921" lon="11.456742392448179"><ele>1004.0000000000001</ele><time>2026-04-12T09:41:09.999Z</time></trkpt><trkpt lat="46.29292077279507" lon="11.45658239309452"><ele>1004.0000000000001</ele><time>2026-04-12T09:41:10.999Z</time></trkpt><trkpt lat="46.29292241759271" lon="11.456451631555653"><ele>1004.0</ele><time>2026-04-12T09:41:11.999Z</time></trkpt><trkpt lat="46.292916049933254" lon="11.456351836863458"><ele>1004.0</ele><time>2026-04-12T09:41:12.999Z</time></trkpt><trkpt lat="46.29289445153683" lon="11.456217070016281"><ele>1004.8333333333334</ele><time>2026-04-12T09:41:14.999Z</time></trkpt><trkpt lat="46.292909940272104" lon="11.45610983765938"><ele>1005.6666666666667</ele><time>2026-04-12T09:41:18.999Z</time></trkpt><trkpt lat="46.29290458095214" lon="11.456004824832972"><ele>1006.5</ele><time>2026-04-12T09:41:20.999Z</time></trkpt><trkpt lat="46.292821843584754" lon="11.455927104194032"><ele>1007.3333333333333</ele><time>2026-04-12T09:41:22.999Z</time></trkpt><trkpt lat="46.29275600970745" lon="11.455907614153451"><ele>1008.1666666666666</ele><time>2026-04-12T09:41:23.999Z</time></trkpt><trkpt lat="46.29267774472636" lon="11.455862646596724"><ele>1009.0</ele><time>2026-04-12T09:41:24.999Z</time></trkpt><trkpt lat="46.29260739857817" lon="11.45578192548353"><ele>1008.9999999999999</ele><time>2026-04-12T09:41:25.999Z</time></trkpt><trkpt lat="46.29252891126294" lon="11.455667380974143"><ele>1009.0</ele><time>2026-04-12T09:41:26.999Z</time></trkpt><trkpt lat="46.29245888619929" lon="11.45555407035126"><ele>1009.0</ele><time>2026-04-12T09:41:27.999Z</time></trkpt><trkpt lat="46.29240678532538" lon="11.45546404487975"><ele>1009.0</ele><time>2026-04-12T09:41:28.999Z</time></trkpt><trkpt lat="46.292360132008156" lon="11.45539469620395"><ele>1008.9999999999999</ele><time>2026-04-12T09:41:29.999Z</time></trkpt><trkpt lat="46.29234029638828" lon="11.455286235002614"><ele>1009.0</ele><time>2026-04-12T09:41:31.999Z</time></trkpt><trkpt lat="46.29242227415874" lon="11.45521579598887"><ele>1009.0</ele><time>2026-04-12T09:41:35.999Z</time></trkpt><trkpt lat="46.29236392522189" lon="11.455268807144718"><ele>1009.0000000000001</ele><time>2026-04-12T09:44:58.999Z</time></trkpt><trkpt lat="46.2923252710345" lon="11.455363324879709"><ele>1009.0000000000001</ele><time>2026-04-12T09:45:02.999Z</time></trkpt><trkpt lat="46.29239499894541" lon="11.45546345734775"><ele>1009.0</ele><time>2026-04-12T09:45:04.999Z</time></trkpt><trkpt lat="46.29247367343057" lon="11.455577509626767"><ele>1009.0</ele><time>2026-04-12T09:45:06.999Z</time></trkpt><trkpt lat="46.29253471826093" lon="11.455698464888352"><ele>1008.9999999999999</ele><time>2026-04-12T09:45:08.999Z</time></trkpt><trkpt lat="46.292560899734326" lon="11.455793541214195"><ele>1009.0</ele><time>2026-04-12T09:45:10.999Z</time></trkpt><trkpt lat="46.29259260670462" lon="11.455876593526119"><ele>1009.0</ele><time>2026-04-12T09:45:11.999Z</time></trkpt><trkpt lat="46.292635756529336" lon="11.455959578843391"><ele>1009.0</ele><time>2026-04-12T09:45:12.999Z</time></trkpt><trkpt lat="46.2926885423941" lon="11.456034056470719"><ele>1008.9999999999999</ele><time>2026-04-12T09:45:13.999Z</time></trkpt><trkpt lat="46.29274178225779" lon="11.456097179441427"><ele>1009.0</ele><time>2026-04-12T09:45:14.999Z</time></trkpt><trkpt lat="46.29284977178607" lon="11.456148488017392"><ele>1009.0</ele><time>2026-04-12T09:45:16.999Z</time></trkpt><trkpt lat="46.29296895225789" lon="11.456051927471982"><ele>1009.0000000000001</ele><time>2026-04-12T09:45:18.999Z</time></trkpt><trkpt lat="46.29305046134472" lon="11.456007900524222"><ele>1009.0000000000001</ele><time>2026-04-12T09:45:19.999Z</time></trkpt><trkpt lat="46.29313731714841" lon="11.456039493305688"><ele>1009.0</ele><time>2026-04-12T09:45:20.999Z</time></trkpt><trkpt lat="46.293193703090814" lon="11.456138246042334"><ele>1009.0</ele><time>2026-04-12T09:45:21.999Z</time></trkpt><trkpt lat="46.29321928071989" lon="11.456291319987937"><ele>1010.0</ele><time>2026-04-12T09:45:22.999Z</time></trkpt><trkpt lat="46.293222588804795" lon="11.456461037556327"><ele>1011.0000000000001</ele><time>2026-04-12T09:45:23.999Z</time></trkpt><trkpt lat="46.2932208107722" lon="11.456643848982258"><ele>1012.0000000000001</ele><time>2026-04-12T09:45:24.999Z</time></trkpt><trkpt lat="46.29322487859193" lon="11.456799320335401"><ele>1013.0</ele><time>2026-04-12T09:45:25.999Z</time></trkpt><trkpt lat="46.2932351439749" lon="11.456934051334413"><ele>1014.0</ele><time>2026-04-12T09:45:26.999Z</time></trkpt><trkpt lat="46.29325224380578" lon="11.457063939882568"><ele>1014.4000000000001</ele><time>2026-04-12T09:45:27.999Z</time></trkpt><trkpt lat="46.293270433891216" lon="11.457198042789589"><ele>1014.8000000000001</ele><time>2026-04-12T09:45:28.999Z</time></trkpt><trkpt lat="46.29329608947967" lon="11.457331962750578"><ele>1015.1999999999999</ele><time>2026-04-12T09:45:29.999Z</time></trkpt><trkpt lat="46.29333988989883" lon="11.457452517856481"><ele>1015.5999999999999</ele><time>2026-04-12T09:45:30.999Z</time></trkpt><trkpt lat="46.293412198662" lon="11.457551723117662"><ele>1016.0</ele><time>2026-04-12T09:45:31.999Z</time></trkpt><trkpt lat="46.29350319140772" lon="11.457620469297384"><ele>1016.0</ele><time>2026-04-12T09:45:32.999Z</time></trkpt><trkpt lat="46.29360587588586" lon="11.457672823367371"><ele>1015.9999999999999</ele><time>2026-04-12T09:45:33.999Z</time></trkpt><trkpt lat="46.29371473213346" lon="11.457695073284532"><ele>1015.9999999999999</ele><time>2026-04-12T09:45:34.999Z</time></trkpt><trkpt lat="46.293824378448136" lon="11.457668838704114"><ele>1016.0</ele><time>2026-04-12T09:45:35.999Z</time></trkpt><trkpt lat="46.293911665023046" lon="11.457607295943795"><ele>1016.0</ele><time>2026-04-12T09:45:36.999Z</time></trkpt><trkpt lat="46.2939864125335" lon="11.457540275161124"><ele>1018.8</ele><time>2026-04-12T09:45:37.999Z</time></trkpt><trkpt lat="46.294069837287786" lon="11.45749198311441"><ele>1021.5999999999999</ele><time>2026-04-12T09:45:38.999Z</time></trkpt><trkpt lat="46.29414707586664" lon="11.457411470116746"><ele>1024.4</ele><time>2026-04-12T09:45:39.999Z</time></trkpt><trkpt lat="46.294208541617074" lon="11.457273397086384"><ele>1027.2</ele><time>2026-04-12T09:45:40.999Z</time></trkpt><trkpt lat="46.29424310933823" lon="11.457130615542285"><ele>1030.0</ele><time>2026-04-12T09:45:41.999Z</time></trkpt><trkpt lat="46.294303655291365" lon="11.457088652274432"><ele>1030.0</ele><time>2026-04-12T09:45:42.999Z</time></trkpt><trkpt lat="46.294376690338254" lon="11.45711603214674"><ele>1030.0</ele><time>2026-04-12T09:45:43.999Z</time></trkpt><trkpt lat="46.29444722310948" lon="11.457075770448636"><ele>1030.0</ele><time>2026-04-12T09:45:44.999Z</time></trkpt><trkpt lat="46.294526576672666" lon="11.457121661783837"><ele>1030.0</ele><time>2026-04-12T09:45:45.999Z</time></trkpt><trkpt lat="46.29461331116392" lon="11.457145910477"><ele>1030.0</ele><time>2026-04-12T09:45:46.999Z</time></trkpt><trkpt lat="46.294694654373224" lon="11.457151598235706"><ele>1030.0</ele><time>2026-04-12T09:45:47.999Z</time></trkpt><trkpt lat="46.294795011442794" lon="11.457121905908606"><ele>1033.5</ele><time>2026-04-12T09:45:49.999Z</time></trkpt><trkpt lat="46.29483407141752" lon="11.457012894138987"><ele>1037.0</ele><time>2026-04-12T09:45:50.999Z</time></trkpt><trkpt lat="46.29488271157747" lon="11.456907972491551"><ele>1040.5</ele><time>2026-04-12T09:45:51.999Z</time></trkpt><trkpt lat="46.29496310627794" lon="11.45682810130062"><ele>1044.0</ele><time>2026-04-12T09:45:52.999Z</time></trkpt><trkpt lat="46.29502629778652" lon="11.456737485944455"><ele>1047.5</ele><time>2026-04-12T09:45:53.999Z</time></trkpt><trkpt lat="46.295070320178866" lon="11.456652489709962"><ele>1051.0</ele><time>2026-04-12T09:45:54.999Z</time></trkpt><trkpt lat="46.29509939678016" lon="11.456540101619783"><ele>1051.0</ele><time>2026-04-12T09:45:55.999Z</time></trkpt><trkpt lat="46.295126093659945" lon="11.456401331236872"><ele>1051.0</ele><time>2026-04-12T09:45:56.999Z</time></trkpt><trkpt lat="46.29516825603869" lon="11.456254046683323"><ele>1051.0</ele><time>2026-04-12T09:45:58.999Z</time></trkpt><trkpt lat="46.29522290373636" lon="11.456202856072808"><ele>1051.0</ele><time>2026-04-12T09:45:59.999Z</time></trkpt><trkpt lat="46.2953018329507" lon="11.456136059740686"><ele>1051.0</ele><time>2026-04-12T09:46:00.999Z</time></trkpt><trkpt lat="46.2953893580756" lon="11.456057584199957"><ele>1050.8</ele><time>2026-04-12T09:46:01.999Z</time></trkpt><trkpt lat="46.2954783773384" lon="11.45598025351542"><ele>1050.6</ele><time>2026-04-12T09:46:02.999Z</time></trkpt><trkpt lat="46.2955587266239" lon="11.455895416720615"><ele>1050.4</ele><time>2026-04-12T09:46:03.999Z</time></trkpt><trkpt lat="46.295651014678974" lon="11.455856039785502"><ele>1050.2</ele><time>2026-04-12T09:46:04.999Z</time></trkpt><trkpt lat="46.29574389358797" lon="11.455821657532315"><ele>1050.0</ele><time>2026-04-12T09:46:06Z</time></trkpt><trkpt lat="46.29583558184747" lon="11.455795207280362"><ele>1052.6666666666667</ele><time>2026-04-12T09:46:07Z</time></trkpt><trkpt lat="46.29590820125338" lon="11.45579588586011"><ele>1055.3333333333333</ele><time>2026-04-12T09:46:08Z</time></trkpt><trkpt lat="46.295982019098574" lon="11.455790549708997"><ele>1058.0</ele><time>2026-04-12T09:46:10Z</time></trkpt><trkpt lat="46.29606187516265" lon="11.455789467643164"><ele>1060.6666666666665</ele><time>2026-04-12T09:46:14Z</time></trkpt><trkpt lat="46.29617417611145" lon="11.455772783176482"><ele>1063.3333333333333</ele><time>2026-04-12T09:46:16Z</time></trkpt><trkpt lat="46.29622332031458" lon="11.45569758810915"><ele>1066.0</ele><time>2026-04-12T09:46:17Z</time></trkpt><trkpt lat="46.29625132277324" lon="11.455578199096106"><ele>1065.6</ele><time>2026-04-12T09:46:18Z</time></trkpt><trkpt lat="46.296260233489875" lon="11.45544433383629"><ele>1065.1999999999998</ele><time>2026-04-12T09:46:19Z</time></trkpt><trkpt lat="46.29626787099855" lon="11.455298482374143"><ele>1064.8000000000002</ele><time>2026-04-12T09:46:20Z</time></trkpt><trkpt lat="46.296308779215835" lon="11.45515797461416"><ele>1064.4</ele><time>2026-04-12T09:46:21Z</time></trkpt><trkpt lat="46.29635254409491" lon="11.45501158594102"><ele>1064.0</ele><time>2026-04-12T09:46:22Z</time></trkpt><trkpt lat="46.29640325648868" lon="11.454866259529863"><ele>1067.4</ele><time>2026-04-12T09:46:23Z</time></trkpt><trkpt lat="46.296449322607295" lon="11.45473938045678"><ele>1070.8000000000002</ele><time>2026-04-12T09:46:24Z</time></trkpt><trkpt lat="46.29653086393012" lon="11.454646924377526"><ele>1074.1999999999998</ele><time>2026-04-12T09:46:25Z</time></trkpt><trkpt lat="46.296622254008284" lon="11.454559420409954"><ele>1077.6</ele><time>2026-04-12T09:46:26Z</time></trkpt><trkpt lat="46.296716693783395" lon="11.454487746197023"><ele>1081.0</ele><time>2026-04-12T09:46:27Z</time></trkpt><trkpt lat="46.29681986740632" lon="11.454429149253484"><ele>1081.25</ele><time>2026-04-12T09:46:28Z</time></trkpt><trkpt lat="46.29692629591322" lon="11.454383894117557"><ele>1081.5</ele><time>2026-04-12T09:46:29Z</time></trkpt><trkpt lat="46.29703962233527" lon="11.454350653154455"><ele>1081.75</ele><time>2026-04-12T09:46:30Z</time></trkpt><trkpt lat="46.29715714495552" lon="11.454324309560109"><ele>1082.0</ele><time>2026-04-12T09:46:31Z</time></trkpt><trkpt lat="46.29728118289763" lon="11.454287976449196"><ele>1085.75</ele><time>2026-04-12T09:46:32Z</time></trkpt><trkpt lat="46.29741180908761" lon="11.454251115003661"><ele>1089.5</ele><time>2026-04-12T09:46:33Z</time></trkpt><trkpt lat="46.29754708997847" lon="11.454216131076487"><ele>1093.25</ele><time>2026-04-12T09:46:34Z</time></trkpt><trkpt lat="46.29767991061369" lon="11.454180537856878"><ele>1097.0</ele><time>2026-04-12T09:46:35Z</time></trkpt><trkpt lat="46.29779997349718" lon="11.454140424499991"><ele>1097.0</ele><time>2026-04-12T09:46:36Z</time></trkpt><trkpt lat="46.29791623626541" lon="11.454089746166773"><ele>1097.0</ele><time>2026-04-12T09:46:37Z</time></trkpt><trkpt lat="46.29804530436188" lon="11.454003924878494"><ele>1097.0</ele><time>2026-04-12T09:46:38Z</time></trkpt><trkpt lat="46.29816406818429" lon="11.453904079128877"><ele>1097.0</ele><time>2026-04-12T09:46:38.999Z</time></trkpt><trkpt lat="46.298294134037775" lon="11.453818886718077"><ele>1100.0</ele><time>2026-04-12T09:46:39.999Z</time></trkpt><trkpt lat="46.29843237362389" lon="11.453748713191224"><ele>1103.0</ele><time>2026-04-12T09:46:40.999Z</time></trkpt><trkpt lat="46.298573383314" lon="11.453683715308637"><ele>1106.0</ele><time>2026-04-12T09:46:41.999Z</time></trkpt><trkpt lat="46.298683004593386" lon="11.45361278786895"><ele>1109.0</ele><time>2026-04-12T09:46:42.999Z</time></trkpt><trkpt lat="46.29876874998016" lon="11.453516450421352"><ele>1109.0</ele><time>2026-04-12T09:46:43.999Z</time></trkpt><trkpt lat="46.29883944006411" lon="11.453391549351823"><ele>1109.0</ele><time>2026-04-12T09:46:44.999Z</time></trkpt><trkpt lat="46.29889574982291" lon="11.45324431760112"><ele>1109.0</ele><time>2026-04-12T09:46:45.999Z</time></trkpt><trkpt lat="46.29893889019963" lon="11.453109027737382"><ele>1109.0</ele><time>2026-04-12T09:46:46.999Z</time></trkpt><trkpt lat="46.298974460624436" lon="11.453007127187368"><ele>1109.0</ele><time>2026-04-12T09:46:47.999Z</time></trkpt><trkpt lat="46.298981184742026" lon="11.452837435026675"><ele>1115.0</ele><time>2026-04-12T09:46:48.999Z</time></trkpt><trkpt lat="46.29908000599403" lon="11.452773103237243"><ele>1121.0</ele><time>2026-04-12T09:46:49.999Z</time></trkpt><trkpt lat="46.2992270271844" lon="11.45288426661815"><ele>1127.0</ele><time>2026-04-12T09:46:50.999Z</time></trkpt><trkpt lat="46.299256519279545" lon="11.4531006147952"><ele>1133.0</ele><time>2026-04-12T09:46:51.999Z</time></trkpt><trkpt lat="46.29931972629291" lon="11.453144200458325"><ele>1133.0</ele><time>2026-04-12T09:46:52.999Z</time></trkpt><trkpt lat="46.299437609724635" lon="11.45322978287629"><ele>1133.0</ele><time>2026-04-12T09:46:54.999Z</time></trkpt><trkpt lat="46.299487278699466" lon="11.453165173724464"><ele>1133.0</ele><time>2026-04-12T09:46:55.999Z</time></trkpt><trkpt lat="46.299556598092494" lon="11.4529983628145"><ele>1133.0</ele><time>2026-04-12T09:46:57.999Z</time></trkpt><trkpt lat="46.29958827438935" lon="11.452899955514349"><ele>1133.0</ele><time>2026-04-12T09:46:58.999Z</time></trkpt><trkpt lat="46.29961941139272" lon="11.452792632692828"><ele>1133.3333333333335</ele><time>2026-04-12T09:46:59.999Z</time></trkpt><trkpt lat="46.29965545027176" lon="11.452688717688858"><ele>1133.6666666666667</ele><time>2026-04-12T09:47:00.999Z</time></trkpt><trkpt lat="46.299707591747335" lon="11.45260702781048"><ele>1134.0</ele><time>2026-04-12T09:47:01.999Z</time></trkpt><trkpt lat="46.29977295996972" lon="11.452540450989593"><ele>1134.3333333333333</ele><time>2026-04-12T09:47:02.999Z</time></trkpt><trkpt lat="46.29983067518841" lon="11.452411085885045"><ele>1134.6666666666665</ele><time>2026-04-12T09:47:03.999Z</time></trkpt><trkpt lat="46.29987749318078" lon="11.452283545629077"><ele>1135.0</ele><time>2026-04-12T09:47:04.999Z</time></trkpt><trkpt lat="46.29983733554993" lon="11.45209527877426"><ele>1139.0</ele><time>2026-04-12T09:47:05.999Z</time></trkpt><trkpt lat="46.29984306707201" lon="11.45194125481995"><ele>1143.0</ele><time>2026-04-12T09:47:06.999Z</time></trkpt><trkpt lat="46.29985070680727" lon="11.451782271027271"><ele>1147.0</ele><time>2026-04-12T09:47:07.999Z</time></trkpt><trkpt lat="46.29985853513828" lon="11.451620878167342"><ele>1151.0</ele><time>2026-04-12T09:47:08.999Z</time></trkpt><trkpt lat="46.299867628664195" lon="11.451455766403035"><ele>1155.0</ele><time>2026-04-12T09:47:09.999Z</time></trkpt><trkpt lat="46.299888954518586" lon="11.451295358489011"><ele>1156.0</ele><time>2026-04-12T09:47:10.999Z</time></trkpt><trkpt lat="46.299915535282274" lon="11.451133389082917"><ele>1157.0</ele><time>2026-04-12T09:47:11.999Z</time></trkpt><trkpt lat="46.29993846814216" lon="11.450974199676978"><ele>1158.0</ele><time>2026-04-12T09:47:12.999Z</time></trkpt><trkpt lat="46.29996225996399" lon="11.450829601855808"><ele>1159.0</ele><time>2026-04-12T09:47:13.999Z</time></trkpt><trkpt lat="46.2999922208594" lon="11.450669407836218"><ele>1160.0</ele><time>2026-04-12T09:47:14.999Z</time></trkpt><trkpt lat="46.30002140357557" lon="11.45051127655206"><ele>1160.5</ele><time>2026-04-12T09:47:15.999Z</time></trkpt><trkpt lat="46.30005096251921" lon="11.450355413656947"><ele>1161.0</ele><time>2026-04-12T09:47:16.999Z</time></trkpt><trkpt lat="46.30007374719018" lon="11.450192241253069"><ele>1161.5</ele><time>2026-04-12T09:47:17.999Z</time></trkpt><trkpt lat="46.30009937146145" lon="11.450033641867934"><ele>1162.0</ele><time>2026-04-12T09:47:18.999Z</time></trkpt><trkpt lat="46.30011774844977" lon="11.44987514409319"><ele>1162.0</ele><time>2026-04-12T09:47:19.999Z</time></trkpt><trkpt lat="46.300120414373175" lon="11.449712747461431"><ele>1162.0</ele><time>2026-04-12T09:47:20.999Z</time></trkpt><trkpt lat="46.30011115114768" lon="11.449547019081274"><ele>1162.0</ele><time>2026-04-12T09:47:21.999Z</time></trkpt><trkpt lat="46.300099121304314" lon="11.449385802687814"><ele>1162.0</ele><time>2026-04-12T09:47:22.999Z</time></trkpt><trkpt lat="46.30008463567502" lon="11.449225969781212"><ele>1162.4</ele><time>2026-04-12T09:47:23.999Z</time></trkpt><trkpt lat="46.30007951298832" lon="11.449071552722295"><ele>1162.8000000000002</ele><time>2026-04-12T09:47:24.999Z</time></trkpt><trkpt lat="46.30007982583955" lon="11.448910682818108"><ele>1163.2</ele><time>2026-04-12T09:47:25.999Z</time></trkpt><trkpt lat="46.300066871517004" lon="11.448751656942303"><ele>1163.6000000000001</ele><time>2026-04-12T09:47:26.999Z</time></trkpt><trkpt lat="46.30006246065018" lon="11.44858695293428"><ele>1164.0</ele><time>2026-04-12T09:47:27.999Z</time></trkpt><trkpt lat="46.30006018615612" lon="11.448425362787935"><ele>1165.2</ele><time>2026-04-12T09:47:28.999Z</time></trkpt><trkpt lat="46.300061764551124" lon="11.448286350278755"><ele>1166.4</ele><time>2026-04-12T09:47:29.999Z</time></trkpt><trkpt lat="46.30007491919346" lon="11.448179198631369"><ele>1167.6</ele><time>2026-04-12T09:47:30.999Z</time></trkpt><trkpt lat="46.300104805019785" lon="11.448093647698505"><ele>1168.8</ele><time>2026-04-12T09:47:31.999Z</time></trkpt><trkpt lat="46.30023925653942" lon="11.448104627780518"><ele>1170.0</ele><time>2026-04-12T09:47:33.999Z</time></trkpt><trkpt lat="46.30032785057809" lon="11.448139531219919"><ele>1170.0</ele><time>2026-04-12T09:47:34.999Z</time></trkpt><trkpt lat="46.300416596830814" lon="11.44814775184871"><ele>1170.0</ele><time>2026-04-12T09:47:35.999Z</time></trkpt><trkpt lat="46.30050544110033" lon="11.44815263209869"><ele>1170.0</ele><time>2026-04-12T09:47:36.999Z</time></trkpt><trkpt lat="46.3005949851574" lon="11.448121721811157"><ele>1170.0</ele><time>2026-04-12T09:47:37.999Z</time></trkpt><trkpt lat="46.30068637863875" lon="11.448080227045095"><ele>1170.0</ele><time>2026-04-12T09:47:38.999Z</time></trkpt><trkpt lat="46.300757467127156" lon="11.448016870740885"><ele>1170.0</ele><time>2026-04-12T09:47:39.999Z</time></trkpt><trkpt lat="46.300832338435896" lon="11.44793162743096"><ele>1174.0</ele><time>2026-04-12T09:47:41.999Z</time></trkpt><trkpt lat="46.30091090217562" lon="11.447877177898961"><ele>1178.0</ele><time>2026-04-12T09:47:44.999Z</time></trkpt><trkpt lat="46.30088810012142" lon="11.447720401317904"><ele>1182.0</ele><time>2026-04-12T09:47:45.999Z</time></trkpt><trkpt lat="46.30088810781441" lon="11.447592007585836"><ele>1186.0</ele><time>2026-04-12T09:47:46.999Z</time></trkpt><trkpt lat="46.300878550289504" lon="11.44746443926032"><ele>1190.0</ele><time>2026-04-12T09:47:47.999Z</time></trkpt><trkpt lat="46.30086352807506" lon="11.447315395362681"><ele>1190.0</ele><time>2026-04-12T09:47:48.999Z</time></trkpt><trkpt lat="46.30084411559436" lon="11.447167594743469"><ele>1190.0</ele><time>2026-04-12T09:47:49.999Z</time></trkpt><trkpt lat="46.30082794425774" lon="11.447048055344316"><ele>1190.0</ele><time>2026-04-12T09:47:50.999Z</time></trkpt><trkpt lat="46.300800328803675" lon="11.446954065327448"><ele>1190.0</ele><time>2026-04-12T09:47:51.999Z</time></trkpt><trkpt lat="46.300795207492726" lon="11.44684392075287"><ele>1190.0</ele><time>2026-04-12T09:47:52.999Z</time></trkpt><trkpt lat="46.30077572202482" lon="11.446724096526014"><ele>1190.0</ele><time>2026-04-12T09:47:53.999Z</time></trkpt><trkpt lat="46.30076969477555" lon="11.446609701441519"><ele>1191.2</ele><time>2026-04-12T09:47:54.999Z</time></trkpt><trkpt lat="46.30074574983964" lon="11.446504291675147"><ele>1192.4</ele><time>2026-04-12T09:47:55.999Z</time></trkpt><trkpt lat="46.30075444031175" lon="11.446373772772672"><ele>1193.6</ele><time>2026-04-12T09:47:56.999Z</time></trkpt><trkpt lat="46.30078107714089" lon="11.446220913220818"><ele>1194.8</ele><time>2026-04-12T09:47:57.999Z</time></trkpt><trkpt lat="46.3008348896056" lon="11.446116428538227"><ele>1196.0</ele><time>2026-04-12T09:47:58.999Z</time></trkpt><trkpt lat="46.300865584375245" lon="11.445996123368538"><ele>1196.3333333333335</ele><time>2026-04-12T09:47:59.999Z</time></trkpt><trkpt lat="46.300861760880814" lon="11.445856278847394"><ele>1196.6666666666667</ele><time>2026-04-12T09:48:00.999Z</time></trkpt><trkpt lat="46.300855839522065" lon="11.445747864552654"><ele>1197.0</ele><time>2026-04-12T09:48:01.999Z</time></trkpt><trkpt lat="46.30095887646204" lon="11.445721259291222"><ele>1197.3333333333333</ele><time>2026-04-12T09:48:03.999Z</time></trkpt><trkpt lat="46.30102299278206" lon="11.44570037983046"><ele>1197.6666666666665</ele><time>2026-04-12T09:48:04.999Z</time></trkpt><trkpt lat="46.301095526915056" lon="11.445704032935279"><ele>1198.0</ele><time>2026-04-12T09:48:06Z</time></trkpt><trkpt lat="46.30117141433123" lon="11.44569385857098"><ele>1198.0</ele><time>2026-04-12T09:48:07Z</time></trkpt><trkpt lat="46.30124476354402" lon="11.445678054088138"><ele>1198.0</ele><time>2026-04-12T09:48:08Z</time></trkpt><trkpt lat="46.30131126721867" lon="11.445582884343144"><ele>1198.0</ele><time>2026-04-12T09:48:09Z</time></trkpt><trkpt lat="46.30138559651254" lon="11.445518494120765"><ele>1198.0</ele><time>2026-04-12T09:48:10Z</time></trkpt><trkpt lat="46.30145733410363" lon="11.445450753858287"><ele>1198.0</ele><time>2026-04-12T09:48:11Z</time></trkpt><trkpt lat="46.30153132854112" lon="11.445389512019029"><ele>1198.0</ele><time>2026-04-12T09:48:12Z</time></trkpt><trkpt lat="46.301608246780035" lon="11.445337062122533"><ele>1201.8333333333333</ele><time>2026-04-12T09:48:13Z</time></trkpt><trkpt lat="46.30167870527679" lon="11.445264250479443"><ele>1205.6666666666665</ele><time>2026-04-12T09:48:14Z</time></trkpt><trkpt lat="46.30173851539293" lon="11.445174319503046"><ele>1209.5</ele><time>2026-04-12T09:48:15Z</time></trkpt><trkpt lat="46.30179551734503" lon="11.445078112979951"><ele>1213.3333333333333</ele><time>2026-04-12T09:48:16Z</time></trkpt><trkpt lat="46.30185290314233" lon="11.444976804753566"><ele>1217.1666666666667</ele><time>2026-04-12T09:48:17Z</time></trkpt><trkpt lat="46.30191748577343" lon="11.444884317124988"><ele>1221.0</ele><time>2026-04-12T09:48:18Z</time></trkpt><trkpt lat="46.301982182688654" lon="11.444811047370795"><ele>1221.0</ele><time>2026-04-12T09:48:19Z</time></trkpt><trkpt lat="46.302048539826664" lon="11.444746280172"><ele>1221.0</ele><time>2026-04-12T09:48:20Z</time></trkpt><trkpt lat="46.3021188798737" lon="11.444672780939875"><ele>1221.0</ele><time>2026-04-12T09:48:21Z</time></trkpt><trkpt lat="46.30219146670577" lon="11.444601553149727"><ele>1221.0</ele><time>2026-04-12T09:48:22Z</time></trkpt><trkpt lat="46.302266206654146" lon="11.444530317060773"><ele>1221.0</ele><time>2026-04-12T09:48:23Z</time></trkpt><trkpt lat="46.30234189614525" lon="11.444460440234526"><ele>1221.0</ele><time>2026-04-12T09:48:24Z</time></trkpt><trkpt lat="46.30242219733102" lon="11.444390698435418"><ele>1225.5</ele><time>2026-04-12T09:48:25Z</time></trkpt><trkpt lat="46.30249370016239" lon="11.444325392022085"><ele>1230.0</ele><time>2026-04-12T09:48:26Z</time></trkpt><trkpt lat="46.30255900811149" lon="11.444256074968367"><ele>1234.5</ele><time>2026-04-12T09:48:27Z</time></trkpt><trkpt lat="46.30262774315027" lon="11.444180826295277"><ele>1239.0</ele><time>2026-04-12T09:48:28Z</time></trkpt><trkpt lat="46.30268925368003" lon="11.444096164090068"><ele>1243.5</ele><time>2026-04-12T09:48:29Z</time></trkpt><trkpt lat="46.3027504503955" lon="11.444007489409666"><ele>1248.0</ele><time>2026-04-12T09:48:30Z</time></trkpt><trkpt lat="46.30279563126117" lon="11.443927672955232"><ele>1248.0</ele><time>2026-04-12T09:48:31Z</time></trkpt><trkpt lat="46.30283433021907" lon="11.443815213441185"><ele>1248.0</ele><time>2026-04-12T09:48:33Z</time></trkpt><trkpt lat="46.30282454642174" lon="11.443691553217063"><ele>1248.0</ele><time>2026-04-12T09:48:35Z</time></trkpt><trkpt lat="46.30283418062522" lon="11.44359865524769"><ele>1248.0</ele><time>2026-04-12T09:48:36Z</time></trkpt><trkpt lat="46.30284150062264" lon="11.443486310548979"><ele>1248.0</ele><time>2026-04-12T09:48:37Z</time></trkpt><trkpt lat="46.30284170917069" lon="11.443370019972171"><ele>1248.0</ele><time>2026-04-12T09:48:38Z</time></trkpt><trkpt lat="46.30284874499272" lon="11.443250849991571"><ele>1250.0</ele><time>2026-04-12T09:48:39Z</time></trkpt><trkpt lat="46.30285866904743" lon="11.443126969274225"><ele>1252.0</ele><time>2026-04-12T09:48:40Z</time></trkpt><trkpt lat="46.302876160463796" lon="11.443000911634691"><ele>1254.0</ele><time>2026-04-12T09:48:41Z</time></trkpt><trkpt lat="46.30290795074616" lon="11.442876787364463"><ele>1256.0</ele><time>2026-04-12T09:48:42Z</time></trkpt><trkpt lat="46.30295768628109" lon="11.44276043795806"><ele>1258.0</ele><time>2026-04-12T09:48:43Z</time></trkpt><trkpt lat="46.30301643247802" lon="11.442655638996676"><ele>1258.2</ele><time>2026-04-12T09:48:44Z</time></trkpt><trkpt lat="46.303080322519655" lon="11.442556640755718"><ele>1258.4</ele><time>2026-04-12T09:48:45Z</time></trkpt><trkpt lat="46.30314842409608" lon="11.442464799385798"><ele>1258.6000000000001</ele><time>2026-04-12T09:48:46Z</time></trkpt><trkpt lat="46.30322002063112" lon="11.442375128937199"><ele>1258.8</ele><time>2026-04-12T09:48:47Z</time></trkpt><trkpt lat="46.30329453666754" lon="11.442281844663533"><ele>1259.0</ele><time>2026-04-12T09:48:48Z</time></trkpt><trkpt lat="46.30337025479456" lon="11.442187449080306"><ele>1260.0</ele><time>2026-04-12T09:48:49Z</time></trkpt><trkpt lat="46.30342927073682" lon="11.442102668603916"><ele>1261.0</ele><time>2026-04-12T09:48:50Z</time></trkpt><trkpt lat="46.30347329236464" lon="11.44203485803282"><ele>1262.0</ele><time>2026-04-12T09:48:51Z</time></trkpt><trkpt lat="46.30353133525095" lon="11.441965974564928"><ele>1263.0</ele><time>2026-04-12T09:48:52Z</time></trkpt><trkpt lat="46.30359945023224" lon="11.441888972282262"><ele>1264.0</ele><time>2026-04-12T09:48:53Z</time></trkpt><trkpt lat="46.30366655450478" lon="11.441819594210836"><ele>1265.0</ele><time>2026-04-12T09:48:54Z</time></trkpt><trkpt lat="46.30374661342758" lon="11.441760556651086"><ele>1265.0</ele><time>2026-04-12T09:48:55Z</time></trkpt><trkpt lat="46.30384083193198" lon="11.441717844685694"><ele>1265.0</ele><time>2026-04-12T09:48:56Z</time></trkpt><trkpt lat="46.30394179694452" lon="11.441689967377787"><ele>1265.0</ele><time>2026-04-12T09:48:57Z</time></trkpt><trkpt lat="46.304042276828774" lon="11.44169192760537"><ele>1265.0</ele><time>2026-04-12T09:48:58Z</time></trkpt><trkpt lat="46.304136572920974" lon="11.441723066990269"><ele>1265.0</ele><time>2026-04-12T09:48:59Z</time></trkpt><trkpt lat="46.304232519622516" lon="11.441770030555636"><ele>1266.6</ele><time>2026-04-12T09:49:00Z</time></trkpt><trkpt lat="46.30433407741393" lon="11.441813444118655"><ele>1268.2</ele><time>2026-04-12T09:49:01Z</time></trkpt><trkpt lat="46.30443710895262" lon="11.441840802400058"><ele>1269.8</ele><time>2026-04-12T09:49:02Z</time></trkpt><trkpt lat="46.30453055258975" lon="11.44186765340683"><ele>1271.4</ele><time>2026-04-12T09:49:03Z</time></trkpt><trkpt lat="46.30463200170082" lon="11.441905198342766"><ele>1273.0</ele><time>2026-04-12T09:49:04Z</time></trkpt><trkpt lat="46.3047268003096" lon="11.44194832473582"><ele>1273.0</ele><time>2026-04-12T09:49:05Z</time></trkpt><trkpt lat="46.30482268903854" lon="11.441995067181267"><ele>1273.0</ele><time>2026-04-12T09:49:06Z</time></trkpt><trkpt lat="46.3049253198695" lon="11.442046187047982"><ele>1273.0</ele><time>2026-04-12T09:49:07Z</time></trkpt><trkpt lat="46.30502589900096" lon="11.442083001694458"><ele>1273.0</ele><time>2026-04-12T09:49:08Z</time></trkpt><trkpt lat="46.30512954209236" lon="11.442097263189922"><ele>1273.0</ele><time>2026-04-12T09:49:09Z</time></trkpt><trkpt lat="46.30524121187574" lon="11.442102556372927"><ele>1273.0</ele><time>2026-04-12T09:49:10Z</time></trkpt><trkpt lat="46.305356165807304" lon="11.44210039099538"><ele>1273.0</ele><time>2026-04-12T09:49:11Z</time></trkpt><trkpt lat="46.305473368213576" lon="11.442093078648442"><ele>1273.0</ele><time>2026-04-12T09:49:12Z</time></trkpt><trkpt lat="46.305592792990666" lon="11.44208200704712"><ele>1273.0</ele><time>2026-04-12T09:49:13Z</time></trkpt><trkpt lat="46.30571257091105" lon="11.442063029710129"><ele>1273.25</ele><time>2026-04-12T09:49:14Z</time></trkpt><trkpt lat="46.30583387187431" lon="11.442018148045953"><ele>1273.5</ele><time>2026-04-12T09:49:15Z</time></trkpt><trkpt lat="46.30595313329099" lon="11.441962021809479"><ele>1273.75</ele><time>2026-04-12T09:49:16Z</time></trkpt><trkpt lat="46.30606947823257" lon="11.441899999677414"><ele>1274.0</ele><time>2026-04-12T09:49:16.999Z</time></trkpt><trkpt lat="46.30617678097201" lon="11.44183629152396"><ele>1274.0</ele><time>2026-04-12T09:49:17.999Z</time></trkpt><trkpt lat="46.30628728098502" lon="11.441764339603449"><ele>1274.0</ele><time>2026-04-12T09:49:18.999Z</time></trkpt><trkpt lat="46.30638927859174" lon="11.441689682701638"><ele>1274.0</ele><time>2026-04-12T09:49:19.999Z</time></trkpt><trkpt lat="46.306472612465114" lon="11.44159676370404"><ele>1274.0</ele><time>2026-04-12T09:49:20.999Z</time></trkpt><trkpt lat="46.3065410753489" lon="11.441482344548364"><ele>1274.0</ele><time>2026-04-12T09:49:21.999Z</time></trkpt><trkpt lat="46.306605435491306" lon="11.441348929977796"><ele>1276.5</ele><time>2026-04-12T09:49:22.999Z</time></trkpt><trkpt lat="46.30665850026588" lon="11.44119931513335"><ele>1279.0</ele><time>2026-04-12T09:49:23.999Z</time></trkpt><trkpt lat="46.30670043813178" lon="11.441042671417499"><ele>1281.5</ele><time>2026-04-12T09:49:24.999Z</time></trkpt><trkpt lat="46.306731073918336" lon="11.440880535054708"><ele>1284.0</ele><time>2026-04-12T09:49:25.999Z</time></trkpt><trkpt lat="46.30675418648046" lon="11.440711275872848"><ele>1284.0</ele><time>2026-04-12T09:49:26.999Z</time></trkpt><trkpt lat="46.30677774986687" lon="11.440542289661003"><ele>1284.0</ele><time>2026-04-12T09:49:27.999Z</time></trkpt><trkpt lat="46.306803985739535" lon="11.44037425160608"><ele>1284.0</ele><time>2026-04-12T09:49:28.999Z</time></trkpt><trkpt lat="46.306829197065845" lon="11.440205022639068"><ele>1284.0</ele><time>2026-04-12T09:49:29.999Z</time></trkpt><trkpt lat="46.306853094253974" lon="11.440034946790515"><ele>1284.0</ele><time>2026-04-12T09:49:30.999Z</time></trkpt><trkpt lat="46.30687660494522" lon="11.43986100107633"><ele>1284.0</ele><time>2026-04-12T09:49:31.999Z</time></trkpt><trkpt lat="46.30690053529026" lon="11.439683936767086"><ele>1284.0</ele><time>2026-04-12T09:49:32.999Z</time></trkpt><trkpt lat="46.30692962573154" lon="11.439509606017117"><ele>1284.0</ele><time>2026-04-12T09:49:33.999Z</time></trkpt><trkpt lat="46.306958518954914" lon="11.439344744392118"><ele>1283.4</ele><time>2026-04-12T09:49:34.999Z</time></trkpt><trkpt lat="46.306983519447975" lon="11.439191354498156"><ele>1282.8000000000002</ele><time>2026-04-12T09:49:35.999Z</time></trkpt><trkpt lat="46.30700476080473" lon="11.43903688796192"><ele>1282.1999999999998</ele><time>2026-04-12T09:49:36.999Z</time></trkpt><trkpt lat="46.30702505655368" lon="11.43888234050631"><ele>1281.6</ele><time>2026-04-12T09:49:37.999Z</time></trkpt><trkpt lat="46.30705288244918" lon="11.438725496180542"><ele>1281.0</ele><time>2026-04-12T09:49:38.999Z</time></trkpt><trkpt lat="46.30708471555523" lon="11.438555991169016"><ele>1280.75</ele><time>2026-04-12T09:49:39.999Z</time></trkpt><trkpt lat="46.30711386379056" lon="11.438379168785584"><ele>1280.5</ele><time>2026-04-12T09:49:40.999Z</time></trkpt><trkpt lat="46.307139092248065" lon="11.438211154185934"><ele>1280.25</ele><time>2026-04-12T09:49:41.999Z</time></trkpt><trkpt lat="46.30716083694768" lon="11.438054754745824"><ele>1280.0</ele><time>2026-04-12T09:49:42.999Z</time></trkpt><trkpt lat="46.3071793842506" lon="11.437888683645234"><ele>1279.4</ele><time>2026-04-12T09:49:43.999Z</time></trkpt><trkpt lat="46.30719929988851" lon="11.437719951738595"><ele>1278.8</ele><time>2026-04-12T09:49:44.999Z</time></trkpt><trkpt lat="46.307223556405305" lon="11.43758628853168"><ele>1278.2</ele><time>2026-04-12T09:49:45.999Z</time></trkpt><trkpt lat="46.307250401293665" lon="11.437462827027398"><ele>1277.6</ele><time>2026-04-12T09:49:47.999Z</time></trkpt><trkpt lat="46.30731031980806" lon="11.437308913596665"><ele>1277.0</ele><time>2026-04-12T09:49:49.999Z</time></trkpt><trkpt lat="46.3073689887633" lon="11.437231867289439"><ele>1280.2</ele><time>2026-04-12T09:49:50.999Z</time></trkpt><trkpt lat="46.30744535410483" lon="11.437166781969127"><ele>1283.4</ele><time>2026-04-12T09:49:51.999Z</time></trkpt><trkpt lat="46.30754208500132" lon="11.437111159487216"><ele>1286.6000000000001</ele><time>2026-04-12T09:49:52.999Z</time></trkpt><trkpt lat="46.307645129873066" lon="11.437062019017246"><ele>1289.8000000000002</ele><time>2026-04-12T09:49:53.999Z</time></trkpt><trkpt lat="46.30772484986933" lon="11.437010915294431"><ele>1293.0</ele><time>2026-04-12T09:49:54.999Z</time></trkpt><trkpt lat="46.30777464970245" lon="11.436938179373756"><ele>1293.0</ele><time>2026-04-12T09:49:55.999Z</time></trkpt><trkpt lat="46.30782742098941" lon="11.436857299968299"><ele>1293.0</ele><time>2026-04-12T09:49:56.999Z</time></trkpt><trkpt lat="46.30784258541864" lon="11.43673394455678"><ele>1293.0</ele><time>2026-04-12T09:49:57.999Z</time></trkpt><trkpt lat="46.3078798316825" lon="11.436625800995106"><ele>1293.0</ele><time>2026-04-12T09:49:58.999Z</time></trkpt><trkpt lat="46.30802896260942" lon="11.436619911229814"><ele>1293.0</ele><time>2026-04-12T09:49:59.999Z</time></trkpt><trkpt lat="46.30807992051321" lon="11.436558312518452"><ele>1296.1666666666667</ele><time>2026-04-12T09:50:01.999Z</time></trkpt><trkpt lat="46.30816252935422" lon="11.43659579641706"><ele>1299.3333333333333</ele><time>2026-04-12T09:50:05.999Z</time></trkpt><trkpt lat="46.30821651317456" lon="11.436643918730107"><ele>1302.5</ele><time>2026-04-12T09:50:06.999Z</time></trkpt><trkpt lat="46.30828497467295" lon="11.43669609573102"><ele>1305.6666666666665</ele><time>2026-04-12T09:50:08.999Z</time></trkpt><trkpt lat="46.308376644612814" lon="11.436712664865714"><ele>1308.8333333333333</ele><time>2026-04-12T09:50:12Z</time></trkpt><trkpt lat="46.308446839166834" lon="11.436710383217866"><ele>1312.0</ele><time>2026-04-12T09:50:14Z</time></trkpt><trkpt lat="46.30850609788745" lon="11.436669418649071"><ele>1312.0</ele><time>2026-04-12T09:50:16Z</time></trkpt><trkpt lat="46.30859756620679" lon="11.4366790933032"><ele>1312.0</ele><time>2026-04-12T09:50:18Z</time></trkpt><trkpt lat="46.308746918961454" lon="11.437146837477407"><ele>1312.0</ele><time>2026-04-12T09:50:21Z</time></trkpt><trkpt lat="46.3088256052748" lon="11.437102917274135"><ele>1312.0</ele><time>2026-04-12T09:50:24Z</time></trkpt><trkpt lat="46.30890192520293" lon="11.437107775534617"><ele>1312.0</ele><time>2026-04-12T09:50:30Z</time></trkpt><trkpt lat="46.30898486747882" lon="11.43709182705172"><ele>1312.0</ele><time>2026-04-12T09:50:33Z</time></trkpt><trkpt lat="46.30902524020969" lon="11.437018717720195"><ele>1312.0</ele><time>2026-04-12T09:50:37Z</time></trkpt><trkpt lat="46.30897909421724" lon="11.436921456655496"><ele>1312.0</ele><time>2026-04-12T09:50:41Z</time></trkpt><trkpt lat="46.30895132277935" lon="11.436818475078837"><ele>1312.0</ele><time>2026-04-12T09:50:43Z</time></trkpt><trkpt lat="46.30893347370372" lon="11.43650241154758"><ele>1312.0</ele><time>2026-04-12T09:50:45Z</time></trkpt><trkpt lat="46.30888598337754" lon="11.436419835484148"><ele>1312.0</ele><time>2026-04-12T09:50:46Z</time></trkpt><trkpt lat="46.30882618388707" lon="11.436337554598419"><ele>1312.0</ele><time>2026-04-12T09:50:47Z</time></trkpt><trkpt lat="46.30876329754517" lon="11.436284224320023"><ele>1312.0</ele><time>2026-04-12T09:50:48Z</time></trkpt><trkpt lat="46.308642882425346" lon="11.436314980736128"><ele>1312.0</ele><time>2026-04-12T09:50:50Z</time></trkpt><trkpt lat="46.308590942226125" lon="11.436387411964493"><ele>1312.0</ele><time>2026-04-12T09:50:51Z</time></trkpt><trkpt lat="46.30853132568898" lon="11.436476017521999"><ele>1312.0</ele><time>2026-04-12T09:50:52Z</time></trkpt><trkpt lat="46.30846177413826" lon="11.436561983160479"><ele>1312.0</ele><time>2026-04-12T09:50:53Z</time></trkpt><trkpt lat="46.30836240489263" lon="11.436626373997694"><ele>1312.0</ele><time>2026-04-12T09:50:54Z</time></trkpt><trkpt lat="46.308257771020806" lon="11.43660461872544"><ele>1312.0</ele><time>2026-04-12T09:50:55Z</time></trkpt><trkpt lat="46.308171728869" lon="11.436560922079313"><ele>1312.0</ele><time>2026-04-12T09:50:56Z</time></trkpt><trkpt lat="46.3080757501243" lon="11.436510842056393"><ele>1308.1999999999998</ele><time>2026-04-12T09:50:57Z</time></trkpt><trkpt lat="46.30797338384404" lon="11.43645080483001"><ele>1304.4</ele><time>2026-04-12T09:50:58Z</time></trkpt><trkpt lat="46.30786664343329" lon="11.436384758384046"><ele>1300.6</ele><time>2026-04-12T09:50:59Z</time></trkpt><trkpt lat="46.30776626251341" lon="11.43631731610416"><ele>1296.8000000000002</ele><time>2026-04-12T09:51:00Z</time></trkpt><trkpt lat="46.30768201833252" lon="11.436240145820053"><ele>1293.0</ele><time>2026-04-12T09:51:01Z</time></trkpt><trkpt lat="46.30760515194382" lon="11.436205551558109"><ele>1293.0</ele><time>2026-04-12T09:51:02Z</time></trkpt><trkpt lat="46.307508196041866" lon="11.43613308649243"><ele>1293.0</ele><time>2026-04-12T09:51:04Z</time></trkpt><trkpt lat="46.307444374029984" lon="11.436150747647039"><ele>1293.0</ele><time>2026-04-12T09:51:05Z</time></trkpt><trkpt lat="46.30739015613914" lon="11.436210838299544"><ele>1293.0</ele><time>2026-04-12T09:51:06Z</time></trkpt><trkpt lat="46.30738649832291" lon="11.436419299618064"><ele>1293.0</ele><time>2026-04-12T09:51:08Z</time></trkpt><trkpt lat="46.30742062534287" lon="11.436507359638806"><ele>1293.0</ele><time>2026-04-12T09:51:09Z</time></trkpt><trkpt lat="46.30748761723135" lon="11.43657245644583"><ele>1293.0</ele><time>2026-04-12T09:51:10Z</time></trkpt><trkpt lat="46.307585775381156" lon="11.436567513933092"><ele>1293.0</ele><time>2026-04-12T09:51:11Z</time></trkpt><trkpt lat="46.30765834616526" lon="11.43660644115936"><ele>1293.0</ele><time>2026-04-12T09:51:12Z</time></trkpt><trkpt lat="46.30772738713911" lon="11.436695558216922"><ele>1293.0</ele><time>2026-04-12T09:51:13Z</time></trkpt><trkpt lat="46.30775051696337" lon="11.436785534600956"><ele>1293.0</ele><time>2026-04-12T09:51:14Z</time></trkpt><trkpt lat="46.307744437286516" lon="11.436876552356727"><ele>1293.0</ele><time>2026-04-12T09:51:15Z</time></trkpt><trkpt lat="46.30771565425771" lon="11.436962779798657"><ele>1293.0</ele><time>2026-04-12T09:51:16Z</time></trkpt><trkpt lat="46.30766285997712" lon="11.437038894852156"><ele>1293.0</ele><time>2026-04-12T09:51:17Z</time></trkpt><trkpt lat="46.307580974690936" lon="11.437048762463034"><ele>1293.0</ele><time>2026-04-12T09:51:18Z</time></trkpt><trkpt lat="46.30750123357082" lon="11.4371072068473"><ele>1293.0</ele><time>2026-04-12T09:51:19Z</time></trkpt><trkpt lat="46.30741120567686" lon="11.437150913549493"><ele>1293.0</ele><time>2026-04-12T09:51:20Z</time></trkpt><trkpt lat="46.307328899529985" lon="11.437219570318574"><ele>1293.6666666666667</ele><time>2026-04-12T09:51:21Z</time></trkpt><trkpt lat="46.30726307554798" lon="11.437307901307832"><ele>1294.3333333333333</ele><time>2026-04-12T09:51:22Z</time></trkpt><trkpt lat="46.30722231239092" lon="11.437411378203668"><ele>1295.0</ele><time>2026-04-12T09:51:23Z</time></trkpt><trkpt lat="46.307201604274574" lon="11.43752884264283"><ele>1295.6666666666665</ele><time>2026-04-12T09:51:23.999Z</time></trkpt><trkpt lat="46.30718920601008" lon="11.437650730478113"><ele>1296.3333333333333</ele><time>2026-04-12T09:51:24.999Z</time></trkpt><trkpt lat="46.30717309549663" lon="11.437773360630073"><ele>1297.0</ele><time>2026-04-12T09:51:25.999Z</time></trkpt><trkpt lat="46.30715686197621" lon="11.437897651099357"><ele>1293.6</ele><time>2026-04-12T09:51:26.999Z</time></trkpt><trkpt lat="46.3071418135519" lon="11.438031753047708"><ele>1290.1999999999998</ele><time>2026-04-12T09:51:27.999Z</time></trkpt><trkpt lat="46.30712421598418" lon="11.438166439506057"><ele>1286.8</ele><time>2026-04-12T09:51:28.999Z</time></trkpt><trkpt lat="46.307101420717174" lon="11.438296980420512"><ele>1283.4</ele><time>2026-04-12T09:51:29.999Z</time></trkpt><trkpt lat="46.30707530258028" lon="11.438434171749908"><ele>1280.0</ele><time>2026-04-12T09:51:30.999Z</time></trkpt><trkpt lat="46.307051244401094" lon="11.438585126791327"><ele>1280.0</ele><time>2026-04-12T09:51:31.999Z</time></trkpt><trkpt lat="46.30702789981311" lon="11.438734133949762"><ele>1280.0</ele><time>2026-04-12T09:51:32.999Z</time></trkpt><trkpt lat="46.30700438609241" lon="11.438885034115943"><ele>1280.0</ele><time>2026-04-12T09:51:33.999Z</time></trkpt><trkpt lat="46.30698063282984" lon="11.439035837773734"><ele>1280.0</ele><time>2026-04-12T09:51:34.999Z</time></trkpt><trkpt lat="46.30695554281829" lon="11.439187390203323"><ele>1280.0</ele><time>2026-04-12T09:51:35.999Z</time></trkpt><trkpt lat="46.306931280369284" lon="11.439331885800321"><ele>1280.2</ele><time>2026-04-12T09:51:36.999Z</time></trkpt><trkpt lat="46.306908446728045" lon="11.439467042811962"><ele>1280.4</ele><time>2026-04-12T09:51:37.999Z</time></trkpt><trkpt lat="46.30689066252635" lon="11.439600575127383"><ele>1280.6</ele><time>2026-04-12T09:51:38.999Z</time></trkpt><trkpt lat="46.306872592978465" lon="11.439741590170991"><ele>1280.8</ele><time>2026-04-12T09:51:39.999Z</time></trkpt><trkpt lat="46.30685669460446" lon="11.439887832022606"><ele>1281.0</ele><time>2026-04-12T09:51:40.999Z</time></trkpt><trkpt lat="46.30684143279811" lon="11.44003466989215"><ele>1281.6</ele><time>2026-04-12T09:51:41.999Z</time></trkpt><trkpt lat="46.30680555388858" lon="11.44017585673711"><ele>1282.1999999999998</ele><time>2026-04-12T09:51:42.999Z</time></trkpt><trkpt lat="46.306784838861695" lon="11.440320822672616"><ele>1282.8000000000002</ele><time>2026-04-12T09:51:43.999Z</time></trkpt><trkpt lat="46.30677873599193" lon="11.440467130541167"><ele>1283.4</ele><time>2026-04-12T09:51:44.999Z</time></trkpt><trkpt lat="46.30675757876495" lon="11.440608648261751"><ele>1284.0</ele><time>2026-04-12T09:51:45.999Z</time></trkpt><trkpt lat="46.306736515678324" lon="11.44075200433748"><ele>1284.0</ele><time>2026-04-12T09:51:46.999Z</time></trkpt><trkpt lat="46.306715464025395" lon="11.440880290270265"><ele>1284.0</ele><time>2026-04-12T09:51:47.999Z</time></trkpt><trkpt lat="46.30669367916059" lon="11.440988780994267"><ele>1284.0</ele><time>2026-04-12T09:51:48.999Z</time></trkpt><trkpt lat="46.30666358440999" lon="11.441115692824575"><ele>1284.0</ele><time>2026-04-12T09:51:49.999Z</time></trkpt><trkpt lat="46.306611601768" lon="11.441224453459277"><ele>1284.0</ele><time>2026-04-12T09:51:50.999Z</time></trkpt><trkpt lat="46.30657749841865" lon="11.44131214485531"><ele>1284.0</ele><time>2026-04-12T09:51:51.999Z</time></trkpt><trkpt lat="46.306549740874836" lon="11.44141417735129"><ele>1283.8333333333333</ele><time>2026-04-12T09:51:52.999Z</time></trkpt><trkpt lat="46.30648334031958" lon="11.441488102645478"><ele>1283.6666666666667</ele><time>2026-04-12T09:51:53.999Z</time></trkpt><trkpt lat="46.30642112616307" lon="11.441580435725905"><ele>1283.5</ele><time>2026-04-12T09:51:54.999Z</time></trkpt><trkpt lat="46.306349863200666" lon="11.441661411860117"><ele>1283.3333333333335</ele><time>2026-04-12T09:51:55.999Z</time></trkpt><trkpt lat="46.30627253622473" lon="11.441732840735288"><ele>1283.1666666666667</ele><time>2026-04-12T09:51:56.999Z</time></trkpt><trkpt lat="46.30619941173585" lon="11.441784282537153"><ele>1283.0</ele><time>2026-04-12T09:51:57.999Z</time></trkpt><trkpt lat="46.30614097523448" lon="11.44184093375258"><ele>1281.5</ele><time>2026-04-12T09:51:58.999Z</time></trkpt><trkpt lat="46.30605011234878" lon="11.441886831693209"><ele>1280.0</ele><time>2026-04-12T09:52:00.999Z</time></trkpt><trkpt lat="46.3059729012982" lon="11.441900926317576"><ele>1278.5</ele><time>2026-04-12T09:52:03.999Z</time></trkpt><trkpt lat="46.305876800755186" lon="11.441960758589492"><ele>1277.0</ele><time>2026-04-12T09:52:05.999Z</time></trkpt><trkpt lat="46.30581408418297" lon="11.441977567712822"><ele>1275.5</ele><time>2026-04-12T09:52:06.999Z</time></trkpt><trkpt lat="46.30574221219535" lon="11.442000502949995"><ele>1274.0</ele><time>2026-04-12T09:52:07.999Z</time></trkpt><trkpt lat="46.305671820548945" lon="11.442030940713979"><ele>1274.0</ele><time>2026-04-12T09:52:08.999Z</time></trkpt><trkpt lat="46.305600315964575" lon="11.442032419000324"><ele>1274.0</ele><time>2026-04-12T09:52:09.999Z</time></trkpt><trkpt lat="46.30552843740862" lon="11.442067275203254"><ele>1274.0</ele><time>2026-04-12T09:52:10.999Z</time></trkpt><trkpt lat="46.30544669342593" lon="11.442066828689244"><ele>1274.0</ele><time>2026-04-12T09:52:11.999Z</time></trkpt><trkpt lat="46.305359997607624" lon="11.442068656740686"><ele>1274.0</ele><time>2026-04-12T09:52:12.999Z</time></trkpt><trkpt lat="46.30527254110854" lon="11.442072800153522"><ele>1274.0</ele><time>2026-04-12T09:52:13.999Z</time></trkpt><trkpt lat="46.30518666304859" lon="11.44204308509048"><ele>1273.8333333333335</ele><time>2026-04-12T09:52:14.999Z</time></trkpt><trkpt lat="46.305100960986216" lon="11.442033132285028"><ele>1273.6666666666667</ele><time>2026-04-12T09:52:15.999Z</time></trkpt><trkpt lat="46.30501641614775" lon="11.442019404896978"><ele>1273.5</ele><time>2026-04-12T09:52:16.999Z</time></trkpt><trkpt lat="46.30493001610649" lon="11.44202032257007"><ele>1273.3333333333333</ele><time>2026-04-12T09:52:18Z</time></trkpt><trkpt lat="46.30484739084383" lon="11.44198455896709"><ele>1273.1666666666665</ele><time>2026-04-12T09:52:19Z</time></trkpt><trkpt lat="46.30476550016047" lon="11.441941505886065"><ele>1273.0</ele><time>2026-04-12T09:52:20Z</time></trkpt><trkpt lat="46.304680019284234" lon="11.441897748628683"><ele>1273.0</ele><time>2026-04-12T09:52:21Z</time></trkpt><trkpt lat="46.30459370776857" lon="11.441859555270032"><ele>1273.0</ele><time>2026-04-12T09:52:22Z</time></trkpt><trkpt lat="46.304510667069586" lon="11.441832214497317"><ele>1273.0</ele><time>2026-04-12T09:52:23Z</time></trkpt><trkpt lat="46.30442603982221" lon="11.441806522240823"><ele>1273.0</ele><time>2026-04-12T09:52:24Z</time></trkpt><trkpt lat="46.30433853769122" lon="11.441754563771111"><ele>1273.0</ele><time>2026-04-12T09:52:25Z</time></trkpt><trkpt lat="46.30424250292252" lon="11.441722870731917"><ele>1273.0</ele><time>2026-04-12T09:52:26Z</time></trkpt><trkpt lat="46.30414282084614" lon="11.441689475213886"><ele>1273.0</ele><time>2026-04-12T09:52:27Z</time></trkpt><trkpt lat="46.30404586732607" lon="11.441657725503756"><ele>1273.0</ele><time>2026-04-12T09:52:28Z</time></trkpt><trkpt lat="46.303958884352475" lon="11.441667334736186"><ele>1273.0</ele><time>2026-04-12T09:52:29Z</time></trkpt><trkpt lat="46.30388237030107" lon="11.44167319473591"><ele>1273.0</ele><time>2026-04-12T09:52:30Z</time></trkpt><trkpt lat="46.30380248257128" lon="11.44170717575323"><ele>1273.0</ele><time>2026-04-12T09:52:31Z</time></trkpt><trkpt lat="46.30371848839071" lon="11.441753441177408"><ele>1271.4</ele><time>2026-04-12T09:52:32Z</time></trkpt><trkpt lat="46.30363257283237" lon="11.441809928822126"><ele>1269.8</ele><time>2026-04-12T09:52:33Z</time></trkpt><trkpt lat="46.303550028114245" lon="11.441894077084548"><ele>1268.2</ele><time>2026-04-12T09:52:34Z</time></trkpt><trkpt lat="46.30347343231898" lon="11.44199854464219"><ele>1266.6</ele><time>2026-04-12T09:52:35Z</time></trkpt><trkpt lat="46.30339951348063" lon="11.442095720134008"><ele>1265.0</ele><time>2026-04-12T09:52:36Z</time></trkpt><trkpt lat="46.30332378669575" lon="11.442194430177867"><ele>1265.0</ele><time>2026-04-12T09:52:37Z</time></trkpt><trkpt lat="46.30324484819521" lon="11.442301887430956"><ele>1265.0</ele><time>2026-04-12T09:52:38Z</time></trkpt><trkpt lat="46.30316109714886" lon="11.442419715311088"><ele>1265.0</ele><time>2026-04-12T09:52:39Z</time></trkpt><trkpt lat="46.303073268209076" lon="11.442543858447465"><ele>1265.0</ele><time>2026-04-12T09:52:40Z</time></trkpt><trkpt lat="46.30298018401095" lon="11.442665280111514"><ele>1263.5</ele><time>2026-04-12T09:52:41Z</time></trkpt><trkpt lat="46.302898581107264" lon="11.442808995401053"><ele>1262.0</ele><time>2026-04-12T09:52:42Z</time></trkpt><trkpt lat="46.302853113058404" lon="11.442969806194364"><ele>1260.5</ele><time>2026-04-12T09:52:43Z</time></trkpt><trkpt lat="46.30281924891659" lon="11.44315030985791"><ele>1259.0</ele><time>2026-04-12T09:52:44Z</time></trkpt><trkpt lat="46.302809413890834" lon="11.443344410823554"><ele>1258.8</ele><time>2026-04-12T09:52:45Z</time></trkpt><trkpt lat="46.302805630228995" lon="11.443519996745238"><ele>1258.6000000000001</ele><time>2026-04-12T09:52:46Z</time></trkpt><trkpt lat="46.30280136516776" lon="11.443669069954593"><ele>1258.4</ele><time>2026-04-12T09:52:47Z</time></trkpt><trkpt lat="46.30280693362987" lon="11.443814754412706"><ele>1258.2</ele><time>2026-04-12T09:52:48Z</time></trkpt><trkpt lat="46.302769840368235" lon="11.443960566571386"><ele>1258.0</ele><time>2026-04-12T09:52:49Z</time></trkpt><trkpt lat="46.30268269955397" lon="11.444057417883117"><ele>1255.5</ele><time>2026-04-12T09:52:50Z</time></trkpt><trkpt lat="46.30259288952165" lon="11.444163909399718"><ele>1253.0</ele><time>2026-04-12T09:52:51Z</time></trkpt><trkpt lat="46.30249997689486" lon="11.444276879668466"><ele>1250.5</ele><time>2026-04-12T09:52:52Z</time></trkpt><trkpt lat="46.30239592270189" lon="11.444368108089446"><ele>1248.0</ele><time>2026-04-12T09:52:53Z</time></trkpt><trkpt lat="46.30230239769316" lon="11.444462626722338"><ele>1246.0</ele><time>2026-04-12T09:52:54Z</time></trkpt><trkpt lat="46.30221495816374" lon="11.444547814426208"><ele>1244.0</ele><time>2026-04-12T09:52:55Z</time></trkpt><trkpt lat="46.30212480979289" lon="11.444637274189306"><ele>1242.0</ele><time>2026-04-12T09:52:56Z</time></trkpt><trkpt lat="46.30202925284029" lon="11.444729402045215"><ele>1240.0</ele><time>2026-04-12T09:52:57Z</time></trkpt><trkpt lat="46.301934384463095" lon="11.4448311135427"><ele>1238.0</ele><time>2026-04-12T09:52:58Z</time></trkpt><trkpt lat="46.30184998917037" lon="11.444933986778429"><ele>1234.6</ele><time>2026-04-12T09:52:59Z</time></trkpt><trkpt lat="46.30177128393226" lon="11.445056471517663"><ele>1231.1999999999998</ele><time>2026-04-12T09:53:00Z</time></trkpt><trkpt lat="46.301712980626675" lon="11.445172610416742"><ele>1227.8</ele><time>2026-04-12T09:53:01Z</time></trkpt><trkpt lat="46.30165459937559" lon="11.445255848883068"><ele>1224.3999999999999</ele><time>2026-04-12T09:53:02Z</time></trkpt><trkpt lat="46.301589456464235" lon="11.445327059023796"><ele>1221.0</ele><time>2026-04-12T09:53:03Z</time></trkpt><trkpt lat="46.301506909979594" lon="11.445366594139996"><ele>1221.0</ele><time>2026-04-12T09:53:04Z</time></trkpt><trkpt lat="46.30143781127462" lon="11.445445798440462"><ele>1221.0</ele><time>2026-04-12T09:53:05Z</time></trkpt><trkpt lat="46.30136666771319" lon="11.445504325744492"><ele>1221.0</ele><time>2026-04-12T09:53:06Z</time></trkpt><trkpt lat="46.30129998864476" lon="11.445563909047578"><ele>1221.0</ele><time>2026-04-12T09:53:07Z</time></trkpt><trkpt lat="46.301230737617004" lon="11.44561638474118"><ele>1221.0</ele><time>2026-04-12T09:53:08Z</time></trkpt><trkpt lat="46.30116834158492" lon="11.445671314075742"><ele>1221.0</ele><time>2026-04-12T09:53:09Z</time></trkpt><trkpt lat="46.301095814130015" lon="11.445712151458244"><ele>1216.3999999999999</ele><time>2026-04-12T09:53:10Z</time></trkpt><trkpt lat="46.301027729993756" lon="11.445707136316267"><ele>1211.8</ele><time>2026-04-12T09:53:11Z</time></trkpt><trkpt lat="46.300942757213065" lon="11.445675401748801"><ele>1207.1999999999998</ele><time>2026-04-12T09:53:13Z</time></trkpt><trkpt lat="46.30084569052317" lon="11.445759354111162"><ele>1202.6</ele><time>2026-04-12T09:53:15Z</time></trkpt><trkpt lat="46.30083527585506" lon="11.445932383786921"><ele>1198.0</ele><time>2026-04-12T09:53:17Z</time></trkpt><trkpt lat="46.30082044290012" lon="11.446123807081316"><ele>1198.0</ele><time>2026-04-12T09:53:19Z</time></trkpt><trkpt lat="46.30076553571975" lon="11.446206076651235"><ele>1198.0</ele><time>2026-04-12T09:53:20Z</time></trkpt><trkpt lat="46.300726755318976" lon="11.446289833734337"><ele>1198.0</ele><time>2026-04-12T09:53:21Z</time></trkpt><trkpt lat="46.30073084395245" lon="11.4465275919843"><ele>1198.0</ele><time>2026-04-12T09:53:23Z</time></trkpt><trkpt lat="46.30073679287548" lon="11.446619750909333"><ele>1198.0</ele><time>2026-04-12T09:53:24Z</time></trkpt><trkpt lat="46.300756136921706" lon="11.446813869594678"><ele>1197.6</ele><time>2026-04-12T09:53:26Z</time></trkpt><trkpt lat="46.30077078849168" lon="11.446903967854324"><ele>1197.1999999999998</ele><time>2026-04-12T09:53:27Z</time></trkpt><trkpt lat="46.3007944418576" lon="11.447049421701022"><ele>1196.8</ele><time>2026-04-12T09:53:29Z</time></trkpt><trkpt lat="46.30081223724369" lon="11.447182598034539"><ele>1196.3999999999999</ele><time>2026-04-12T09:53:30.999Z</time></trkpt><trkpt lat="46.300834691518304" lon="11.447359557118986"><ele>1196.0</ele><time>2026-04-12T09:53:32.999Z</time></trkpt><trkpt lat="46.300844287334826" lon="11.447457629878638"><ele>1194.8</ele><time>2026-04-12T09:53:33.999Z</time></trkpt><trkpt lat="46.30085235151316" lon="11.44756154288714"><ele>1193.6</ele><time>2026-04-12T09:53:34.999Z</time></trkpt><trkpt lat="46.300860299452495" lon="11.447667627453912"><ele>1192.4</ele><time>2026-04-12T09:53:35.999Z</time></trkpt><trkpt lat="46.30087108801438" lon="11.447817818097379"><ele>1191.2</ele><time>2026-04-12T09:53:37.999Z</time></trkpt><trkpt lat="46.30088710978302" lon="11.447994601870654"><ele>1190.0</ele><time>2026-04-12T09:53:39.999Z</time></trkpt><trkpt lat="46.300898387185725" lon="11.448112376142756"><ele>1189.0</ele><time>2026-04-12T09:53:40.999Z</time></trkpt><trkpt lat="46.300906717188454" lon="11.448236321513678"><ele>1188.0</ele><time>2026-04-12T09:53:41.999Z</time></trkpt><trkpt lat="46.300913801287095" lon="11.448365312219181"><ele>1187.0</ele><time>2026-04-12T09:53:42.999Z</time></trkpt><trkpt lat="46.30092243322009" lon="11.448510015682887"><ele>1186.0</ele><time>2026-04-12T09:53:43.999Z</time></trkpt><trkpt lat="46.30093870738159" lon="11.448677856866896"><ele>1185.0</ele><time>2026-04-12T09:53:44.999Z</time></trkpt><trkpt lat="46.30096077452786" lon="11.44883429088341"><ele>1183.0</ele><time>2026-04-12T09:53:45.999Z</time></trkpt><trkpt lat="46.30098283427188" lon="11.449003269154028"><ele>1181.0</ele><time>2026-04-12T09:53:46.999Z</time></trkpt><trkpt lat="46.30099889327937" lon="11.44918101345245"><ele>1179.0</ele><time>2026-04-12T09:53:47.999Z</time></trkpt><trkpt lat="46.301016078216776" lon="11.449357876595123"><ele>1177.0</ele><time>2026-04-12T09:53:48.999Z</time></trkpt><trkpt lat="46.301033024131804" lon="11.449532279920529"><ele>1177.0</ele><time>2026-04-12T09:53:49.999Z</time></trkpt><trkpt lat="46.301044275423806" lon="11.449652251274696"><ele>1177.0</ele><time>2026-04-12T09:53:50.999Z</time></trkpt><trkpt lat="46.301054425533785" lon="11.449777087398644"><ele>1177.0</ele><time>2026-04-12T09:53:52.999Z</time></trkpt><trkpt lat="46.30104354584351" lon="11.449643273858712"><ele>1177.0</ele><time>2026-04-12T09:53:58.999Z</time></trkpt><trkpt lat="46.301029334002095" lon="11.449468478404519"><ele>1177.0</ele><time>2026-04-12T09:53:59.999Z</time></trkpt><trkpt lat="46.3010093630199" lon="11.449288755587652"><ele>1177.0</ele><time>2026-04-12T09:54:00.999Z</time></trkpt><trkpt lat="46.300991360274054" lon="11.449103477886787"><ele>1177.0</ele><time>2026-04-12T09:54:01.999Z</time></trkpt><trkpt lat="46.30097396328035" lon="11.44890944630129"><ele>1177.0</ele><time>2026-04-12T09:54:02.999Z</time></trkpt><trkpt lat="46.30096685474995" lon="11.448704453184503"><ele>1177.0</ele><time>2026-04-12T09:54:03.999Z</time></trkpt><trkpt lat="46.30094039615596" lon="11.448492173624409"><ele>1178.6</ele><time>2026-04-12T09:54:04.999Z</time></trkpt><trkpt lat="46.300917012788375" lon="11.44831446019117"><ele>1180.2</ele><time>2026-04-12T09:54:05.999Z</time></trkpt><trkpt lat="46.300920217112825" lon="11.448170454352859"><ele>1181.8</ele><time>2026-04-12T09:54:06.999Z</time></trkpt><trkpt lat="46.30091942081929" lon="11.448056671272035"><ele>1183.4</ele><time>2026-04-12T09:54:07.999Z</time></trkpt><trkpt lat="46.30091237835706" lon="11.447961805972783"><ele>1185.0</ele><time>2026-04-12T09:54:08.999Z</time></trkpt><trkpt lat="46.30091066693521" lon="11.447823279478294"><ele>1185.0</ele><time>2026-04-12T09:54:10.999Z</time></trkpt><trkpt lat="46.300804962942934" lon="11.447745782433621"><ele>1185.0</ele><time>2026-04-12T09:54:12.999Z</time></trkpt><trkpt lat="46.300752983223276" lon="11.447949676456355"><ele>1185.0</ele><time>2026-04-12T09:54:13.999Z</time></trkpt><trkpt lat="46.30069738778146" lon="11.448037817274907"><ele>1185.0</ele><time>2026-04-12T09:54:14.999Z</time></trkpt><trkpt lat="46.300622902684104" lon="11.448100685169358"><ele>1185.0</ele><time>2026-04-12T09:54:15.999Z</time></trkpt><trkpt lat="46.30053211631667" lon="11.448116595683272"><ele>1182.0</ele><time>2026-04-12T09:54:16.999Z</time></trkpt><trkpt lat="46.30043151770176" lon="11.448111673188766"><ele>1179.0</ele><time>2026-04-12T09:54:17.999Z</time></trkpt><trkpt lat="46.30033145541431" lon="11.448098059365206"><ele>1176.0</ele><time>2026-04-12T09:54:18.999Z</time></trkpt><trkpt lat="46.30024456649656" lon="11.44805836678427"><ele>1173.0</ele><time>2026-04-12T09:54:19.999Z</time></trkpt><trkpt lat="46.30017654908325" lon="11.448033370796768"><ele>1170.0</ele><time>2026-04-12T09:54:20.999Z</time></trkpt><trkpt lat="46.3000839798393" lon="11.448005032527831"><ele>1170.0</ele><time>2026-04-12T09:54:22.999Z</time></trkpt><trkpt lat="46.30003950916362" lon="11.448224610964592"><ele>1170.0</ele><time>2026-04-12T09:54:24Z</time></trkpt><trkpt lat="46.30003686957074" lon="11.448374388879568"><ele>1170.0</ele><time>2026-04-12T09:54:25Z</time></trkpt><trkpt lat="46.30004784863456" lon="11.448543406637148"><ele>1170.0</ele><time>2026-04-12T09:54:26Z</time></trkpt><trkpt lat="46.30005961387809" lon="11.448723152248713"><ele>1168.5</ele><time>2026-04-12T09:54:27Z</time></trkpt><trkpt lat="46.30004748550354" lon="11.448896500224974"><ele>1167.0</ele><time>2026-04-12T09:54:28Z</time></trkpt><trkpt lat="46.30005337875226" lon="11.449071993994071"><ele>1165.5</ele><time>2026-04-12T09:54:29Z</time></trkpt><trkpt lat="46.30006312389754" lon="11.449241589459195"><ele>1164.0</ele><time>2026-04-12T09:54:30Z</time></trkpt><trkpt lat="46.300069966452156" lon="11.449412312842034"><ele>1164.0</ele><time>2026-04-12T09:54:31Z</time></trkpt><trkpt lat="46.3000746965254" lon="11.449582224453708"><ele>1164.0</ele><time>2026-04-12T09:54:32Z</time></trkpt><trkpt lat="46.30009551619537" lon="11.449749305474931"><ele>1164.0</ele><time>2026-04-12T09:54:33Z</time></trkpt><trkpt lat="46.30009306374238" lon="11.449913291074099"><ele>1164.0</ele><time>2026-04-12T09:54:34Z</time></trkpt><trkpt lat="46.300080990148416" lon="11.450073362983325"><ele>1163.6000000000001</ele><time>2026-04-12T09:54:35Z</time></trkpt><trkpt lat="46.30005878795398" lon="11.450228663079127"><ele>1163.2</ele><time>2026-04-12T09:54:36Z</time></trkpt><trkpt lat="46.30002775607975" lon="11.45038307614519"><ele>1162.8000000000002</ele><time>2026-04-12T09:54:37Z</time></trkpt><trkpt lat="46.3000013404629" lon="11.450538964606848"><ele>1162.4</ele><time>2026-04-12T09:54:38Z</time></trkpt><trkpt lat="46.29997667914015" lon="11.450693957103658"><ele>1162.0</ele><time>2026-04-12T09:54:39Z</time></trkpt><trkpt lat="46.29995494568732" lon="11.450846867286433"><ele>1161.6</ele><time>2026-04-12T09:54:40Z</time></trkpt><trkpt lat="46.29991612351109" lon="11.450997290609934"><ele>1161.2</ele><time>2026-04-12T09:54:41Z</time></trkpt><trkpt lat="46.29990937902863" lon="11.451157610582502"><ele>1160.8</ele><time>2026-04-12T09:54:42Z</time></trkpt><trkpt lat="46.29988847679801" lon="11.45131253886125"><ele>1160.4</ele><time>2026-04-12T09:54:43Z</time></trkpt><trkpt lat="46.29987059480295" lon="11.451468642040561"><ele>1160.0</ele><time>2026-04-12T09:54:44Z</time></trkpt><trkpt lat="46.29985595348783" lon="11.451624812077089"><ele>1159.0</ele><time>2026-04-12T09:54:45Z</time></trkpt><trkpt lat="46.29984041947581" lon="11.45178198180384"><ele>1158.0</ele><time>2026-04-12T09:54:46Z</time></trkpt><trkpt lat="46.29982424598996" lon="11.451936305762935"><ele>1157.0</ele><time>2026-04-12T09:54:47Z</time></trkpt><trkpt lat="46.299808081534486" lon="11.452072645977129"><ele>1156.0</ele><time>2026-04-12T09:54:48Z</time></trkpt><trkpt lat="46.29979624228635" lon="11.452180812016422"><ele>1155.0</ele><time>2026-04-12T09:54:49Z</time></trkpt><trkpt lat="46.29979184730806" lon="11.452274773838676"><ele>1154.2</ele><time>2026-04-12T09:54:50Z</time></trkpt><trkpt lat="46.29979128117184" lon="11.452384527617372"><ele>1153.4</ele><time>2026-04-12T09:54:52Z</time></trkpt><trkpt lat="46.29972937289363" lon="11.452539950825198"><ele>1152.6</ele><time>2026-04-12T09:54:57Z</time></trkpt><trkpt lat="46.299685438428334" lon="11.452607085752799"><ele>1151.8</ele><time>2026-04-12T09:55:01Z</time></trkpt><trkpt lat="46.29962797516998" lon="11.452733787420943"><ele>1151.0</ele><time>2026-04-12T09:55:05Z</time></trkpt><trkpt lat="46.29956077493995" lon="11.45288206672196"><ele>1148.0</ele><time>2026-04-12T09:55:07Z</time></trkpt><trkpt lat="46.29953129848615" lon="11.452975742985497"><ele>1145.0</ele><time>2026-04-12T09:55:08Z</time></trkpt><trkpt lat="46.2994949065328" lon="11.453087511799735"><ele>1142.0</ele><time>2026-04-12T09:55:09Z</time></trkpt><trkpt lat="46.299450450317515" lon="11.45317734537288"><ele>1139.0</ele><time>2026-04-12T09:55:10Z</time></trkpt><trkpt lat="46.299340058875536" lon="11.45316866996865"><ele>1136.0</ele><time>2026-04-12T09:55:12Z</time></trkpt><trkpt lat="46.29930037590859" lon="11.453088891113335"><ele>1133.0</ele><time>2026-04-12T09:55:13Z</time></trkpt><trkpt lat="46.29925339216956" lon="11.452998266803254"><ele>1133.5</ele><time>2026-04-12T09:55:15Z</time></trkpt><trkpt lat="46.29917936502671" lon="11.452811192453925"><ele>1134.0</ele><time>2026-04-12T09:55:17Z</time></trkpt><trkpt lat="46.29907458193967" lon="11.452728573461114"><ele>1134.5</ele><time>2026-04-12T09:55:18Z</time></trkpt><trkpt lat="46.298947697271984" lon="11.452731296637873"><ele>1135.0</ele><time>2026-04-12T09:55:19Z</time></trkpt><trkpt lat="46.29890389251875" lon="11.453074659897473"><ele>1129.8</ele><time>2026-04-12T09:55:20Z</time></trkpt><trkpt lat="46.298870272483605" lon="11.4532652928294"><ele>1124.6</ele><time>2026-04-12T09:55:22Z</time></trkpt><trkpt lat="46.29880878767544" lon="11.453368812827607"><ele>1119.4</ele><time>2026-04-12T09:55:23Z</time></trkpt><trkpt lat="46.29874327165677" lon="11.453479084337548"><ele>1114.2</ele><time>2026-04-12T09:55:24Z</time></trkpt><trkpt lat="46.29866427834097" lon="11.453572071112093"><ele>1109.0</ele><time>2026-04-12T09:55:25Z</time></trkpt><trkpt lat="46.298569521934134" lon="11.453632618593954"><ele>1109.0</ele><time>2026-04-12T09:55:25.999Z</time></trkpt><trkpt lat="46.29846040707103" lon="11.453682075776223"><ele>1109.0</ele><time>2026-04-12T09:55:26.999Z</time></trkpt><trkpt lat="46.29834683677473" lon="11.453739640761572"><ele>1109.0</ele><time>2026-04-12T09:55:27.999Z</time></trkpt><trkpt lat="46.29822923491951" lon="11.453806790973806"><ele>1109.0</ele><time>2026-04-12T09:55:28.999Z</time></trkpt><trkpt lat="46.29812252595144" lon="11.453879757934063"><ele>1106.6000000000001</ele><time>2026-04-12T09:55:29.999Z</time></trkpt><trkpt lat="46.298021279242775" lon="11.45395035644571"><ele>1104.2</ele><time>2026-04-12T09:55:30.999Z</time></trkpt><trkpt lat="46.297917456914064" lon="11.454021241979476"><ele>1101.8000000000002</ele><time>2026-04-12T09:55:31.999Z</time></trkpt><trkpt lat="46.29781700721431" lon="11.454083069675747"><ele>1099.4</ele><time>2026-04-12T09:55:32.999Z</time></trkpt><trkpt lat="46.29771727512598" lon="11.454115573048385"><ele>1097.0</ele><time>2026-04-12T09:55:33.999Z</time></trkpt><trkpt lat="46.29761572606232" lon="11.454137776566986"><ele>1097.0</ele><time>2026-04-12T09:55:34.999Z</time></trkpt><trkpt lat="46.29750779662068" lon="11.454167047560825"><ele>1097.0</ele><time>2026-04-12T09:55:35.999Z</time></trkpt><trkpt lat="46.29739572274702" lon="11.454197441968837"><ele>1097.0</ele><time>2026-04-12T09:55:36.999Z</time></trkpt><trkpt lat="46.29728285620966" lon="11.454232295100983"><ele>1097.0</ele><time>2026-04-12T09:55:37.999Z</time></trkpt><trkpt lat="46.29716933058866" lon="11.454266757303982"><ele>1094.0</ele><time>2026-04-12T09:55:38.999Z</time></trkpt><trkpt lat="46.29705861692238" lon="11.45430140332225"><ele>1091.0</ele><time>2026-04-12T09:55:39.999Z</time></trkpt><trkpt lat="46.29695576013407" lon="11.454358849285832"><ele>1088.0</ele><time>2026-04-12T09:55:40.999Z</time></trkpt><trkpt lat="46.296858766210406" lon="11.454397678746757"><ele>1085.0</ele><time>2026-04-12T09:55:41.999Z</time></trkpt><trkpt lat="46.29675612246691" lon="11.454422264418294"><ele>1082.0</ele><time>2026-04-12T09:55:42.999Z</time></trkpt><trkpt lat="46.29665389022582" lon="11.454492339915241"><ele>1082.0</ele><time>2026-04-12T09:55:43.999Z</time></trkpt><trkpt lat="46.296581118925225" lon="11.454587479278615"><ele>1082.0</ele><time>2026-04-12T09:55:44.999Z</time></trkpt><trkpt lat="46.29650635294683" lon="11.45466503203458"><ele>1082.0</ele><time>2026-04-12T09:55:45.999Z</time></trkpt><trkpt lat="46.29643296196434" lon="11.454761626760336"><ele>1082.0</ele><time>2026-04-12T09:55:46.999Z</time></trkpt><trkpt lat="46.296379284349825" lon="11.45485944915473"><ele>1082.0</ele><time>2026-04-12T09:55:47.999Z</time></trkpt><trkpt lat="46.29634178603399" lon="11.454972563189319"><ele>1078.8</ele><time>2026-04-12T09:55:48.999Z</time></trkpt><trkpt lat="46.29628888721067" lon="11.45509736213614"><ele>1075.6</ele><time>2026-04-12T09:55:49.999Z</time></trkpt><trkpt lat="46.29625471692316" lon="11.455242203867998"><ele>1072.3999999999999</ele><time>2026-04-12T09:55:50.999Z</time></trkpt><trkpt lat="46.29624842853869" lon="11.455403539976349"><ele>1069.2</ele><time>2026-04-12T09:55:51.999Z</time></trkpt><trkpt lat="46.29623719563477" lon="11.455542982260955"><ele>1066.0</ele><time>2026-04-12T09:55:52.999Z</time></trkpt><trkpt lat="46.29619888873657" lon="11.455643728558405"><ele>1066.0</ele><time>2026-04-12T09:55:53.999Z</time></trkpt><trkpt lat="46.29614524434562" lon="11.455756921596093"><ele>1066.0</ele><time>2026-04-12T09:55:55.999Z</time></trkpt><trkpt lat="46.29607339660008" lon="11.455772477919579"><ele>1066.0</ele><time>2026-04-12T09:55:59.999Z</time></trkpt><trkpt lat="46.2959891256344" lon="11.455770628318366"><ele>1066.0</ele><time>2026-04-12T09:56:02.999Z</time></trkpt><trkpt lat="46.29588252723484" lon="11.455786825670048"><ele>1066.0</ele><time>2026-04-12T09:56:04.999Z</time></trkpt><trkpt lat="46.29575746654571" lon="11.455810478817803"><ele>1066.0</ele><time>2026-04-12T09:56:06.999Z</time></trkpt><trkpt lat="46.295682296432" lon="11.455794963494325"><ele>1066.0</ele><time>2026-04-12T09:56:07.999Z</time></trkpt><trkpt lat="46.29561467351801" lon="11.455826109558043"><ele>1066.0</ele><time>2026-04-12T09:56:08.999Z</time></trkpt><trkpt lat="46.29555090604377" lon="11.455858160581146"><ele>1066.0</ele><time>2026-04-12T09:56:09.999Z</time></trkpt><trkpt lat="46.2954888381905" lon="11.455894866792528"><ele>1066.0</ele><time>2026-04-12T09:56:10.999Z</time></trkpt><trkpt lat="46.2954259563843" lon="11.45595012181614"><ele>1066.0</ele><time>2026-04-12T09:56:11.999Z</time></trkpt><trkpt lat="46.29536996144075" lon="11.456026741284823"><ele>1066.0</ele><time>2026-04-12T09:56:12.999Z</time></trkpt><trkpt lat="46.29531117236617" lon="11.45608696393967"><ele>1063.0</ele><time>2026-04-12T09:56:13.999Z</time></trkpt><trkpt lat="46.295250075244056" lon="11.456140778784903"><ele>1060.0</ele><time>2026-04-12T09:56:14.999Z</time></trkpt><trkpt lat="46.29519174687804" lon="11.45619279547119"><ele>1057.0</ele><time>2026-04-12T09:56:15.999Z</time></trkpt><trkpt lat="46.29512097225429" lon="11.456271850936426"><ele>1054.0</ele><time>2026-04-12T09:56:17.999Z</time></trkpt><trkpt lat="46.29508607890611" lon="11.456405100178815"><ele>1051.0</ele><time>2026-04-12T09:56:19.999Z</time></trkpt><trkpt lat="46.29504587353373" lon="11.456582134381822"><ele>1051.0</ele><time>2026-04-12T09:56:21.999Z</time></trkpt><trkpt lat="46.29502124601161" lon="11.45667499908259"><ele>1051.0</ele><time>2026-04-12T09:56:22.999Z</time></trkpt><trkpt lat="46.29492821066456" lon="11.45680956321011"><ele>1051.0</ele><time>2026-04-12T09:56:24.999Z</time></trkpt><trkpt lat="46.29485731318945" lon="11.456883097648678"><ele>1051.0</ele><time>2026-04-12T09:56:25.999Z</time></trkpt><trkpt lat="46.294798096303225" lon="11.45697923551694"><ele>1051.0</ele><time>2026-04-12T09:56:26.999Z</time></trkpt><trkpt lat="46.29476072260995" lon="11.45706283761471"><ele>1051.0</ele><time>2026-04-12T09:56:27.999Z</time></trkpt><trkpt lat="46.29467519327525" lon="11.457129368350301"><ele>1047.3999999999999</ele><time>2026-04-12T09:56:30Z</time></trkpt><trkpt lat="46.29453867264899" lon="11.457099744566472"><ele>1043.8</ele><time>2026-04-12T09:56:32Z</time></trkpt><trkpt lat="46.29445064646947" lon="11.45708124818301"><ele>1040.1999999999998</ele><time>2026-04-12T09:56:33Z</time></trkpt><trkpt lat="46.29436841191247" lon="11.457046826783968"><ele>1036.6</ele><time>2026-04-12T09:56:34Z</time></trkpt><trkpt lat="46.29429820932176" lon="11.457093989149818"><ele>1033.0</ele><time>2026-04-12T09:56:35Z</time></trkpt><trkpt lat="46.29420194445339" lon="11.457151127721746"><ele>1033.0</ele><time>2026-04-12T09:56:37Z</time></trkpt><trkpt lat="46.29418440715493" lon="11.45724260419087"><ele>1033.0</ele><time>2026-04-12T09:56:38Z</time></trkpt><trkpt lat="46.2941181649003" lon="11.45740782611925"><ele>1033.0</ele><time>2026-04-12T09:56:40Z</time></trkpt><trkpt lat="46.29408698164122" lon="11.457488630659666"><ele>1033.0</ele><time>2026-04-12T09:56:41Z</time></trkpt><trkpt lat="46.29401480844939" lon="11.45750543338769"><ele>1033.0</ele><time>2026-04-12T09:56:43Z</time></trkpt><trkpt lat="46.29391160865054" lon="11.457560421412945"><ele>1033.0</ele><time>2026-04-12T09:56:45Z</time></trkpt><trkpt lat="46.2938289905695" lon="11.457585931890211"><ele>1029.6</ele><time>2026-04-12T09:56:46Z</time></trkpt><trkpt lat="46.29374017127167" lon="11.457621353457148"><ele>1026.1999999999998</ele><time>2026-04-12T09:56:47Z</time></trkpt><trkpt lat="46.29365154265575" lon="11.457634260950762"><ele>1022.8</ele><time>2026-04-12T09:56:48Z</time></trkpt><trkpt lat="46.2935610783395" lon="11.457611689147829"><ele>1019.4</ele><time>2026-04-12T09:56:49Z</time></trkpt><trkpt lat="46.293477179269885" lon="11.457553148248708"><ele>1016.0</ele><time>2026-04-12T09:56:50Z</time></trkpt><trkpt lat="46.29340423195605" lon="11.457463300233522"><ele>1016.0</ele><time>2026-04-12T09:56:51Z</time></trkpt><trkpt lat="46.293341912771346" lon="11.457354235268005"><ele>1015.9999999999999</ele><time>2026-04-12T09:56:52Z</time></trkpt><trkpt lat="46.29329568013925" lon="11.45722639619411"><ele>1015.9999999999999</ele><time>2026-04-12T09:56:53Z</time></trkpt><trkpt lat="46.29327091218945" lon="11.457080257970777"><ele>1016.0</ele><time>2026-04-12T09:56:54Z</time></trkpt><trkpt lat="46.29326519329023" lon="11.456919036923349"><ele>1016.0</ele><time>2026-04-12T09:56:55Z</time></trkpt><trkpt lat="46.29326099931702" lon="11.456757803163764"><ele>1016.1999999999999</ele><time>2026-04-12T09:56:56Z</time></trkpt><trkpt lat="46.293251954146136" lon="11.456600343309617"><ele>1016.3999999999999</ele><time>2026-04-12T09:56:57Z</time></trkpt><trkpt lat="46.2932460486686" lon="11.456440980413754"><ele>1016.6</ele><time>2026-04-12T09:56:58Z</time></trkpt><trkpt lat="46.29324264984657" lon="11.456283825679296"><ele>1016.8</ele><time>2026-04-12T09:56:59Z</time></trkpt><trkpt lat="46.293232155753614" lon="11.4561649405099"><ele>1017.0</ele><time>2026-04-12T09:57:00Z</time></trkpt><trkpt lat="46.29316420064511" lon="11.456017595247191"><ele>1017.0</ele><time>2026-04-12T09:57:02Z</time></trkpt><trkpt lat="46.29310349443674" lon="11.45597502551454"><ele>1017.0</ele><time>2026-04-12T09:57:03Z</time></trkpt><trkpt lat="46.292994993842036" lon="11.455960689214566"><ele>1017.0</ele><time>2026-04-12T09:57:05Z</time></trkpt><trkpt lat="46.292921915187954" lon="11.455960496618447"><ele>1017.0</ele><time>2026-04-12T09:57:08Z</time></trkpt><trkpt lat="46.2928202314542" lon="11.455921167066487"><ele>1017.0</ele><time>2026-04-12T09:57:10Z</time></trkpt><trkpt lat="46.29274892361235" lon="11.455899320936775"><ele>1017.0</ele><time>2026-04-12T09:57:11Z</time></trkpt><trkpt lat="46.292670490169606" lon="11.4558515737274"><ele>1017.0</ele><time>2026-04-12T09:57:12Z</time></trkpt><trkpt lat="46.29258742509642" lon="11.455775952269354"><ele>1017.0</ele><time>2026-04-12T09:57:13Z</time></trkpt><trkpt lat="46.29251075912354" lon="11.455661093102878"><ele>1017.0</ele><time>2026-04-12T09:57:14Z</time></trkpt><trkpt lat="46.292445411992965" lon="11.455511460991955"><ele>1017.0</ele><time>2026-04-12T09:57:15Z</time></trkpt><trkpt lat="46.29237397730676" lon="11.455395701440747"><ele>1017.0</ele><time>2026-04-12T09:57:16Z</time></trkpt><trkpt lat="46.29232260694074" lon="11.455333147555773"><ele>1017.0</ele><time>2026-04-12T09:57:17Z</time></trkpt><trkpt lat="46.29241515174889" lon="11.455210457306038"><ele>1017.0</ele><time>2026-04-12T09:57:22Z</time></trkpt></trkseg></trk></gpx>